Ship Status Report: callsign 000000

sailwx.info

Track history (hours):
 
Tides and Currents Weather Stations Pressure Air Temp Water Temp Dewpoint Dewpoint Depression Visibility Wind Speed Wind Dir Waves Ship Positions

Callsign 000000 (name unknown)

Last reported at 2016-Aug-29 22:33 UTC. Time now 2016-Aug-29 23:29 UTC.
Position N 31°24' E 121°31'.

Type: Fishing. MMSI: 200007452.

Date/timePositionNaut miles runAvg speedWind from/ knotsBaromVisibWave heightAir tempDewpointWater temp
2016-Aug-29 22:33N 31°24' E 121°31'979437.7
2016-Aug-29 22:33N 29°56' E 122°19'63463368.2
2016-Aug-29 22:32N 23°02' E 113°23'642135948.0
2016-Aug-29 22:32N 31°59' E 119°59'741655.3
2016-Aug-29 22:29N 31°32' E 121°20'5491.2
2016-Aug-29 22:29N 31°30' E 121°24'2129.6
2016-Aug-29 22:28N 31°31' E 121°23'31558.0
2016-Aug-29 22:28N 31°29' E 121°25'138.7
2016-Aug-29 22:26N 31°29' E 121°24'5344772.0
2016-Aug-29 22:19N 22°39' E 120°15'1646167.8
2016-Aug-29 22:18N 24°24' E 117°57'4634725.0
2016-Aug-29 22:12N 31°29' E 121°25'56435.4
2016-Aug-29 22:04N 32°02' E 120°31'6551270.9
2016-Aug-29 21:33N 23°05' E 113°28'653587693.6
2016-Aug-29 21:33N 32°02' E 120°27'15856904.8
2016-Aug-29 21:33N 29°56' E 122°19'10111000.2
2016-Aug-29 21:32N 31°27' E 121°28'41273.8
2016-Aug-29 21:32N 31°29' E 121°24'22124.4
2016-Aug-29 21:32N 31°31' E 121°23'2298.2
2016-Aug-29 21:32N 31°32' E 121°20'7940829.1
2016-Aug-29 21:32N 32°05' E 119°55'928924.2
2016-Aug-29 21:31N 31°22' E 121°30'14501.0
2016-Aug-29 21:29N 31°32' E 121°20'13115.9
2016-Aug-29 21:22N 31°42' E 121°10'18366.5
2016-Aug-29 21:20N 31°30' E 121°24'3 4.1
2016-Aug-29 20:33N 31°31' E 121°21'10715434.6
2016-Aug-29 20:33N 29°56' E 122°19'11511506.5
2016-Aug-29 20:32N 31°37' E 121°15'111777.0
2016-Aug-29 20:32N 31°29' E 121°24'10540.1
2016-Aug-29 20:31N 31°22' E 121°30'7011450.9
2016-Aug-29 20:31N 31°59' E 120°21'603637.5
2016-Aug-29 20:30N 31°31' E 121°23'6072270.2
2016-Aug-29 20:30N 31°60' E 120°20'625598.1
2016-Aug-29 20:29N 31°30' E 121°24'5463.9
2016-Aug-29 20:28N 31°32' E 121°20'4643663.9
2016-Aug-29 20:21N 24°24' E 117°57'467595.0
2016-Aug-29 19:34N 31°37' E 121°16'559860.0
2016-Aug-29 19:33N 31°56' E 120°16'160575954.9
2016-Aug-29 19:33N 29°56' E 122°19'1044133.4
2016-Aug-29 19:32N 31°30' E 121°24'9737.7
2016-Aug-29 19:31N 31°22' E 121°30'11552.5
2016-Aug-29 19:30N 31°31' E 121°23'17295.9
2016-Aug-29 19:26N 31°42' E 121°08'19911.0
2016-Aug-29 19:25N 31°29' E 121°24'17555.7
2016-Aug-29 19:23N 31°42' E 121°10'43911.5
2016-Aug-29 19:20N 32°03' E 120°25'4354.6
2016-Aug-29 18:33N 31°42' E 121°09'12110904.4
2016-Aug-29 18:33N 29°56' E 122°19'128459565.9
2016-Aug-29 18:33N 31°46' E 121°03'241214.8
2016-Aug-29 18:31N 31°29' E 121°24'242.6
2016-Aug-29 18:29N 31°31' E 121°23'665834.4
2016-Aug-29 18:28N 31°56' E 120°10'642671.0
2016-Aug-29 18:27N 31°32' E 121°20'14172.3
2016-Aug-29 18:22N 31°22' E 121°30'45821703.7
2016-Aug-29 18:21N 24°24' E 117°57'4639065.8
2016-Aug-29 18:18N 31°30' E 121°24'1881.2
2016-Aug-29 18:05N 31°41' E 121°09'121230.8
2016-Aug-29 17:33N 29°56' E 122°19'127152338.4
2016-Aug-29 17:33N 31°45' E 121°03'502355.2
2016-Aug-29 17:32N 31°57' E 120°06'731495.5
2016-Aug-29 17:29N 31°29' E 121°25'127.3
2016-Aug-29 17:28N 31°30' E 121°24'120.5
2016-Aug-29 17:25N 31°29' E 121°23'101564.8
2016-Aug-29 17:25N 31°22' E 121°30'14200.7
2016-Aug-29 17:21N 31°32' E 121°20'464167090.4
2016-Aug-29 17:21N 24°24' E 117°57'4699330.6
2016-Aug-29 17:18N 31°41' E 121°09'16122.6
2016-Aug-29 17:10N 31°31' E 121°23'106173.3
2016-Aug-29 16:33N 29°56' E 122°19'17040910.2
2016-Aug-29 16:33N 31°59' E 120°00'7511739.2
2016-Aug-29 16:33N 31°31' E 121°22'12418.5
2016-Aug-29 16:31N 31°22' E 121°30'62598.4
2016-Aug-29 16:31N 31°15' E 121°31'1614022.8
2016-Aug-29 16:31N 31°30' E 121°24'111.3
2016-Aug-29 16:26N 31°29' E 121°23'4600.5
2016-Aug-29 16:26N 31°32' E 121°20'5364.9
2016-Aug-29 16:25N 31°29' E 121°25'6754959.6
2016-Aug-29 16:17N 22°30' E 113°48'67612814.3
2016-Aug-29 16:14N 31°41' E 121°09'661987.0
2016-Aug-29 15:33N 23°04' E 113°25'660125089.3
2016-Aug-29 15:33N 31°29' E 121°23'1154.0
2016-Aug-29 15:33N 31°30' E 121°24'10534229.9
2016-Aug-29 15:33N 29°56' E 122°19'1064034.0
2016-Aug-29 15:31N 31°31' E 121°22'17488.3
2016-Aug-29 15:29N 31°15' E 121°31'6424.2
2016-Aug-29 15:28N 31°22' E 121°30'67142404.2
2016-Aug-29 15:27N 22°29' E 113°52'2521619.8
2016-Aug-29 15:18N 24°24' E 117°57'464620.2
2016-Aug-29 14:33N 31°31' E 121°22'2328.1
2016-Aug-29 14:32N 31°30' E 121°24'222350.9
2016-Aug-29 14:32N 31°45' E 121°06'367260.2
2016-Aug-29 14:31N 31°15' E 121°31'201560.2
2016-Aug-29 14:31N 31°32' E 121°20'41744.6
2016-Aug-29 14:31N 31°29' E 121°23'104187995.9
2016-Aug-29 14:31N 29°56' E 122°19'952136.9
2016-Aug-29 14:28N 31°22' E 121°30'1212.6
2016-Aug-29 13:33N 31°31' E 121°22'1068326.0
2016-Aug-29 13:32N 29°56' E 122°19'1046713.4
2016-Aug-29 13:31N 31°29' E 121°23'106924.7
2016-Aug-29 13:31N 31°22' E 121°30'144573.1
2016-Aug-29 13:31N 31°32' E 121°20'13258.5
2016-Aug-29 13:28N 31°41' E 121°09'32271.2
2016-Aug-29 13:28N 31°40' E 121°12'14212.0
2016-Aug-29 13:24N 31°30' E 121°24'017.1
2016-Aug-29 13:22N 31°29' E 121°25'15142.1
2016-Aug-29 13:15N 31°15' E 121°31'0 0.0
2016-Aug-29 12:33N 31°15' E 121°31'153084.1
2016-Aug-29 12:33N 31°29' E 121°23'9430.7
2016-Aug-29 12:32N 31°36' E 121°17'11327139.4
2016-Aug-29 12:32N 29°56' E 122°19'10638291.7
2016-Aug-29 12:31N 31°31' E 121°22'2288.6
2016-Aug-29 12:31N 31°29' E 121°25'932917.1
2016-Aug-29 12:31N 31°22' E 121°30'1011519.7
2016-Aug-29 12:31N 31°30' E 121°24'4255644.6
2016-Aug-29 12:26N 24°48' E 118°47'4329779.6
2016-Aug-29 12:24N 31°41' E 121°09'13130.3
2016-Aug-29 12:18N 31°32' E 121°20'108147.2
2016-Aug-29 11:33N 29°56' E 122°19'1045149.8
2016-Aug-29 11:32N 31°29' E 121°23'4335.3
2016-Aug-29 11:32N 31°32' E 121°22'14451.0
2016-Aug-29 11:30N 31°21' E 121°31'1513051.5
2016-Aug-29 11:30N 31°32' E 121°20'340.2
2016-Aug-29 11:26N 31°31' E 121°23'257.3
2016-Aug-29 11:24N 31°30' E 121°24'134.6
2016-Aug-29 11:23N 31°29' E 121°25'18545.7
2016-Aug-29 11:21N 31°41' E 121°09'412666.8
2016-Aug-29 11:20N 31°58' E 120°25'419.3
2016-Aug-29 11:06N 32°02' E 120°27'158287.9
2016-Aug-29 10:34N 29°56' E 122°19'15963570.5
2016-Aug-29 10:33N 32°00' E 120°23'6210546.8
2016-Aug-29 10:33N 31°30' E 121°26'181249.5
2016-Aug-29 10:32N 31°41' E 121°09'18729.4
2016-Aug-29 10:31N 31°29' E 121°25'119.0
2016-Aug-29 10:29N 31°30' E 121°24'138.4
2016-Aug-29 10:28N 31°29' E 121°23'4636532.7
2016-Aug-29 10:23N 24°24' E 117°57'46436323.4
2016-Aug-29 10:23N 31°32' E 121°20'15110.0
2016-Aug-29 10:15N 31°21' E 121°31'94136.2
2016-Aug-29 09:33N 29°56' E 122°19'59262661.4
2016-Aug-29 09:33N 39°04' E 117°48'880243750.6
2016-Aug-29 09:32N 24°24' E 117°57'47026834.5
2016-Aug-29 09:31N 31°57' E 120°17'477652.3
2016-Aug-29 09:31N 31°41' E 121°09'221099.0
2016-Aug-29 09:30N 31°27' E 121°29'5403.3
2016-Aug-29 09:29N 31°30' E 121°24'1131.0
2016-Aug-29 09:29N 31°29' E 121°25'0 7.8
2016-Aug-29 09:26N 31°29' E 121°25'1141.8
2016-Aug-29 09:25N 31°29' E 121°23'428.5
2016-Aug-29 09:17N 31°32' E 121°20'1317.3
2016-Aug-29 08:33N 31°25' E 121°32'9729186.9
2016-Aug-29 08:33N 29°56' E 122°19'10920685.9
2016-Aug-29 08:33N 31°33' E 121°20'636086.8
2016-Aug-29 08:32N 31°56' E 120°11'673238.2
2016-Aug-29 08:31N 31°30' E 121°24'180.2
2016-Aug-29 08:30N 31°29' E 121°23'5917840.5
2016-Aug-29 08:30N 31°58' E 120°22'6931091.2
2016-Aug-29 08:30N 31°21' E 121°31'14792.9
2016-Aug-29 08:29N 31°32' E 121°20'19438.3
2016-Aug-29 08:26N 31°45' E 121°03'38477.8
2016-Aug-29 08:21N 31°15' E 121°31'19257.7
2016-Aug-29 08:17N 31°31' E 121°17'108148.9
2016-Aug-29 07:33N 29°56' E 122°19'16624952.5
2016-Aug-29 07:33N 31°57' E 120°05'7814.8
2016-Aug-29 07:32N 31°56' E 120°13'653048.5
2016-Aug-29 07:31N 31°30' E 121°24'157.3
2016-Aug-29 07:30N 31°29' E 121°25'11681.6
2016-Aug-29 07:29N 31°21' E 121°32'6769362.2
2016-Aug-29 07:24N 22°33' E 113°38'6785999.7
2016-Aug-29 07:18N 31°32' E 121°20'42657.5
2016-Aug-29 07:18N 31°30' E 121°24'4894232.6
2016-Aug-29 07:11N 39°05' E 117°45'593945.7
2016-Aug-29 06:33N 29°56' E 122°19'1057134.9
2016-Aug-29 06:32N 31°30' E 121°24'486194445.8
2016-Aug-29 06:32N 39°04' E 117°51'48396571.4
2016-Aug-29 06:32N 31°32' E 121°20'5343.7
2016-Aug-29 06:31N 31°29' E 121°25'786862.7
2016-Aug-29 06:30N 31°59' E 119°60'7311996.0
2016-Aug-29 06:30N 31°32' E 121°20'64894.3
2016-Aug-29 06:25N 31°55' E 120°10'681473.7
2016-Aug-29 06:23N 31°30' E 121°24'67519586.3
2016-Aug-29 06:21N 22°19' E 114°07'636790.3
2016-Aug-29 05:32N 29°56' E 122°19'62872940.7
2016-Aug-29 05:32N 23°03' E 113°30'65912418.7
2016-Aug-29 05:29N 31°31' E 121°23'357.3
2016-Aug-29 05:26N 31°32' E 121°20'030.1
2016-Aug-29 05:25N 31°32' E 121°20'108126.3
2016-Aug-29 04:33N 29°56' E 122°19'12326106.6
2016-Aug-29 04:33N 31°43' E 121°08'502477.0
2016-Aug-29 04:32N 31°55' E 120°10'674410.3
2016-Aug-29 04:31N 31°30' E 121°24'662297833.7
2016-Aug-29 04:31N 23°03' E 113°25'66210541.9
2016-Aug-29 04:27N 31°31' E 121°23'254.6
2016-Aug-29 04:25N 31°30' E 121°24'4253.5
2016-Aug-29 04:24N 31°32' E 121°20'46466825.2
2016-Aug-29 04:23N 24°24' E 117°57'4717571.7
2016-Aug-29 04:20N 31°44' E 121°07'36244.2
2016-Aug-29 04:11N 31°15' E 121°31'15671.3
2016-Aug-29 04:09N 31°29' E 121°25'1525.4
2016-Aug-29 03:33N 31°15' E 121°31'8918874.8
2016-Aug-29 03:33N 29°56' E 122°19'1058010.6
2016-Aug-29 03:32N 31°30' E 121°24'664324.4
2016-Aug-29 03:31N 31°56' E 120°13'661789.1
2016-Aug-29 03:29N 31°30' E 121°24'4162.4
2016-Aug-29 03:28N 31°32' E 121°20'791532.0
2016-Aug-29 03:25N 32°05' E 119°56'81986.8
2016-Aug-29 03:20N 31°31' E 121°22'46411678.8
2016-Aug-29 03:17N 24°24' E 117°57'2441699.6
2016-Aug-29 03:09N 22°19' E 114°09'6611109.9
2016-Aug-29 02:33N 32°02' E 119°57'9347655.5
2016-Aug-29 02:33N 31°15' E 121°31'666171226.0
2016-Aug-29 02:33N 22°19' E 114°09'635457049.9
2016-Aug-29 02:33N 29°56' E 122°19'11411736.2
2016-Aug-29 02:32N 31°37' E 121°16'8206.7
2016-Aug-29 02:30N 31°31' E 121°22'275.5
2016-Aug-29 02:28N 31°32' E 121°20'4136.8
2016-Aug-29 02:26N 31°30' E 121°24'6615675.9
2016-Aug-29 02:19N 22°58' E 113°34'6619327.1
2016-Aug-29 02:15N 31°29' E 121°25'5 7.0
2016-Aug-29 01:33N 31°32' E 121°20'14970.7
2016-Aug-29 01:33N 31°32' E 121°21'107128960.5
2016-Aug-29 01:33N 29°56' E 122°19'635190458.8
2016-Aug-29 01:32N 22°19' E 114°09'24479862.5
2016-Aug-29 01:32N 24°24' E 117°57'45328579.9
2016-Aug-29 01:31N 31°15' E 121°31'17567.0
2016-Aug-29 01:29N 31°31' E 121°22'163.5
2016-Aug-29 01:28N 31°30' E 121°24'76621.4
2016-Aug-29 01:21N 31°59' E 120°01'17643.0
2016-Aug-29 01:19N 31°58' E 120°20'290.5
2016-Aug-29 01:18N 31°58' E 120°22'691968.3
2016-Aug-29 01:16N 31°21' E 121°31'7201.3
2016-Aug-29 01:14N 31°15' E 121°29'15178.3
2016-Aug-29 01:09N 31°29' E 121°25'0146.1
2016-Aug-29 01:09N 31°30' E 121°24'16207.2
2016-Aug-29 01:04N 31°14' E 121°29'85165.6
2016-Aug-29 00:33N 31°58' E 120°04'16821596.0
2016-Aug-29 00:33N 29°56' E 122°19'8914604.4
2016-Aug-29 00:32N 31°15' E 121°30'163330.3
2016-Aug-29 00:32N 31°29' E 121°23'165173.0
2016-Aug-29 00:32N 31°15' E 121°31'17748.9
2016-Aug-29 00:30N 31°31' E 121°23'2442.5
2016-Aug-29 00:30N 31°32' E 121°20'4123.5
2016-Aug-29 00:28N 31°30' E 121°24'46413679.4
2016-Aug-29 00:26N 24°24' E 117°57'463834096.0
2016-Aug-29 00:26N 31°30' E 121°24'10495.1
2016-Aug-29 00:25N 31°21' E 121°31'373.5
2016-Aug-29 00:22N 31°24' E 121°31'67318086.8
2016-Aug-29 00:20N 22°19' E 114°09'67423112.5
2016-Aug-29 00:18N 31°29' E 121°25'24117.0
2016-Aug-29 00:06N 31°45' E 121°03'4888.3
2016-Aug-28 23:33N 31°57' E 120°08'665518.7
2016-Aug-28 23:32N 31°32' E 121°20'10855687.9
2016-Aug-28 23:32N 29°56' E 122°19'1063788.4
2016-Aug-28 23:31N 31°31' E 121°23'1459.9
2016-Aug-28 23:30N 31°30' E 121°24'67469343.5
2016-Aug-28 23:30N 22°19' E 114°09'67497075.8
2016-Aug-28 23:29N 31°30' E 121°24'46387805.6
2016-Aug-28 23:29N 24°24' E 117°57'46824753.3
2016-Aug-28 23:28N 31°58' E 120°04'8232956.8
2016-Aug-28 23:28N 31°21' E 121°31'335.9
2016-Aug-28 23:23N 31°20' E 121°33'578.7
2016-Aug-28 23:19N 31°15' E 121°31'165690.3
2016-Aug-28 23:19N 31°29' E 121°23'12515.3
2016-Aug-28 23:18N 31°20' E 121°33'2 2.8
2016-Aug-28 22:33N 31°21' E 121°31'7920230.3
2016-Aug-28 22:33N 31°57' E 120°08'16549388.4
2016-Aug-28 22:33N 29°56' E 122°19'10426743.6
2016-Aug-28 22:33N 31°29' E 121°25'916951.4
2016-Aug-28 22:33N 31°21' E 121°31'7589933.8
2016-Aug-28 22:33N 31°56' E 120°13'672495.8
2016-Aug-28 22:31N 31°30' E 121°24'180.6
2016-Aug-28 22:30N 31°29' E 121°23'102632.6
2016-Aug-28 22:30N 31°22' E 121°30'671100641.5
2016-Aug-28 22:30N 22°19' E 114°09'24428339.7
2016-Aug-28 22:29N 24°24' E 117°57'46622347.9
2016-Aug-28 22:28N 31°34' E 121°18'1767.4
2016-Aug-28 22:13N 31°21' E 121°31'94143.3
2016-Aug-28 21:33N 29°56' E 122°19'10519894.9
2016-Aug-28 21:33N 31°30' E 121°24'1459.5
2016-Aug-28 21:33N 31°29' E 121°23'89520.1
2016-Aug-28 21:33N 31°25' E 121°31'7365852.5
2016-Aug-28 21:33N 31°57' E 120°13'6724064.6
2016-Aug-28 21:33N 31°29' E 121°25'89291.2
2016-Aug-28 21:33N 31°24' E 121°31'899.2
2016-Aug-28 21:28N 31°29' E 121°24'13422.4
2016-Aug-28 21:26N 31°39' E 121°14'23342.4
2016-Aug-28 21:22N 31°21' E 121°31'61201296058.6
2016-Aug-28 21:22N 33°28' W 117°42'611952576.8
2016-Aug-28 21:15N 31°27' E 121°28'64474.6
2016-Aug-28 21:06N 32°01' E 120°24'159286.7
2016-Aug-28 20:33N 29°56' E 122°19'10527004.4
2016-Aug-28 20:33N 31°30' E 121°24'6131265.1
2016-Aug-28 20:33N 31°60' E 120°22'6512980.4
2016-Aug-28 20:33N 31°27' E 121°28'67442561.6
2016-Aug-28 20:32N 22°19' E 114°09'674101136.6
2016-Aug-28 20:31N 31°33' E 121°20'598427.6
2016-Aug-28 20:31N 31°58' E 120°18'6222339.5
2016-Aug-28 20:31N 31°30' E 121°23'6010340.5
2016-Aug-28 20:30N 31°59' E 120°21'611538.0
2016-Aug-28 20:28N 31°29' E 121°23'117723.4
2016-Aug-28 20:28N 31°21' E 121°31'10251.3
2016-Aug-28 20:26N 31°29' E 121°25'516.7
2016-Aug-28 20:07N 31°32' E 121°20'60107.1
2016-Aug-28 19:34N 31°56' E 120°15'7742.7
2016-Aug-28 19:33N 32°00' E 120°22'59211620.2
2016-Aug-28 19:33N 31°31' E 121°22'10724008.1
2016-Aug-28 19:33N 29°56' E 122°19'11516568.6
2016-Aug-28 19:32N 31°37' E 121°15'10454.6
2016-Aug-28 19:31N 31°30' E 121°24'1119319.4
2016-Aug-28 19:31N 31°21' E 121°31'201039.8
2016-Aug-28 19:30N 31°37' E 121°16'9331.5
2016-Aug-28 19:28N 31°29' E 121°23'592831.7
2016-Aug-28 19:27N 32°04' E 120°26'60241.2
2016-Aug-28 19:12N 31°29' E 121°25'104162.5
2016-Aug-28 18:33N 29°56' E 122°19'10848648.7
2016-Aug-28 18:33N 31°31' E 121°19'45247.4
2016-Aug-28 18:33N 31°30' E 121°24'5625180.5
2016-Aug-28 18:33N 32°04' E 120°32'5725675.2
2016-Aug-28 18:33N 31°29' E 121°25'10284.0
2016-Aug-28 18:31N 31°21' E 121°31'1916901.9
2016-Aug-28 18:31N 31°36' E 121°17'91186.1
2016-Aug-28 18:30N 31°42' E 121°09'171030.8
2016-Aug-28 18:29N 31°29' E 121°23'681004.4
2016-Aug-28 18:25N 31°56' E 120°09'49148.2
2016-Aug-28 18:05N 31°44' E 121°06'125229.0
2016-Aug-28 17:33N 29°56' E 122°19'16619960.0
2016-Aug-28 17:32N 31°57' E 120°05'594421.3
2016-Aug-28 17:31N 31°40' E 121°12'253321.4
2016-Aug-28 17:31N 31°21' E 121°31'11702.8
2016-Aug-28 17:30N 31°30' E 121°24'9385.7
2016-Aug-28 17:29N 31°36' E 121°17'962.0
2016-Aug-28 17:20N 31°29' E 121°23'1 1.1
2016-Aug-28 16:33N 31°30' E 121°24'1058221.7
2016-Aug-28 16:33N 29°56' E 122°19'1194078.0
2016-Aug-28 16:31N 31°40' E 121°12'2590518.2
2016-Aug-28 16:31N 31°21' E 121°31'10683.1
2016-Aug-28 16:30N 31°29' E 121°25'1593.2
2016-Aug-28 16:20N 31°15' E 121°31'71918.1
2016-Aug-28 16:16N 32°01' E 120°27'157222.9
2016-Aug-28 15:33N 29°56' E 122°19'1066837.3
2016-Aug-28 15:32N 31°31' E 121°23'183.2
2016-Aug-28 15:31N 31°30' E 121°24'1198.6
2016-Aug-28 15:25N 31°21' E 121°31'63578.9
2016-Aug-28 15:25N 31°15' E 121°31'16126.8
2016-Aug-28 15:17N 31°30' E 121°23'123.0
2016-Aug-28 15:14N 31°29' E 121°25'104152.5
2016-Aug-28 14:33N 29°56' E 122°19'1052124.7
2016-Aug-28 14:30N 31°30' E 121°24'236.5
2016-Aug-28 14:28N 31°31' E 121°22'171647.0
2016-Aug-28 14:27N 31°15' E 121°31'644.5
2016-Aug-28 14:19N 31°21' E 121°31'1178.2
2016-Aug-28 14:11N 31°30' E 121°23'105166.7
2016-Aug-28 13:33N 29°56' E 122°19'8953478.5
2016-Aug-28 13:33N 31°15' E 121°31'16648.7
2016-Aug-28 13:31N 31°30' E 121°24'216.6
2016-Aug-28 13:26N 31°31' E 121°22'12184.3
2016-Aug-28 13:22N 31°21' E 121°31'35310.2
2016-Aug-28 13:15N 31°46' E 121°02'2434.9
2016-Aug-28 12:33N 31°30' E 121°23'1058203.9
2016-Aug-28 12:32N 29°56' E 122°19'1065985.2
2016-Aug-28 12:31N 31°31' E 121°22'482.0
2016-Aug-28 12:29N 31°29' E 121°26'67593454.4
2016-Aug-28 12:28N 22°19' E 114°09'677187440.6
2016-Aug-28 12:28N 31°43' E 121°08'3013342.5
2016-Aug-28 12:28N 31°21' E 121°31'112144.6
2016-Aug-28 12:28N 31°30' E 121°24'164123.8
2016-Aug-28 12:27N 31°15' E 121°31'41353.8
2016-Aug-28 12:20N 31°47' E 121°00'4152.3
2016-Aug-28 11:33N 31°15' E 121°31'156819.3
2016-Aug-28 11:33N 31°29' E 121°25'104124910.5
2016-Aug-28 11:33N 29°56' E 122°19'1261271.9
2016-Aug-28 11:27N 31°45' E 121°05'22894.9
2016-Aug-28 11:26N 31°30' E 121°24'122.4
2016-Aug-28 11:22N 31°31' E 121°22'239.2
2016-Aug-28 11:19N 31°29' E 121°23'67312758.0
2016-Aug-28 11:16N 22°19' E 114°09'6704372.8
2016-Aug-28 11:07N 31°21' E 121°31'138.9
2016-Aug-28 11:05N 31°22' E 121°30'611.9
2016-Aug-28 10:33N 31°28' E 121°28'10213599.0
2016-Aug-28 10:33N 29°56' E 122°19'11221276.5
2016-Aug-28 10:33N 31°36' E 121°18'6129.4
2016-Aug-28 10:30N 31°31' E 121°23'48641656.7
2016-Aug-28 10:29N 39°04' E 117°48'880264090.9
2016-Aug-28 10:29N 24°24' E 117°57'24580223.1
2016-Aug-28 10:29N 22°18' E 114°08'67244777.3
2016-Aug-28 10:28N 31°21' E 121°31'10329.2
2016-Aug-28 10:26N 31°29' E 121°25'1142.2
2016-Aug-28 10:26N 31°30' E 121°24'13652.3
2016-Aug-28 10:24N 31°20' E 121°33'1315.5
2016-Aug-28 09:33N 31°30' E 121°23'1425510.1
2016-Aug-28 09:33N 31°40' E 121°12'119106843.7
2016-Aug-28 09:33N 29°56' E 122°19'107386243.0
2016-Aug-28 09:33N 31°31' E 121°22'48024317.2
2016-Aug-28 09:32N 24°06' E 118°01'46718699.7
2016-Aug-28 09:30N 31°15' E 121°31'104355.4
2016-Aug-28 09:30N 31°25' E 121°32'67526995.1
2016-Aug-28 09:29N 22°18' E 114°08'67246498.2
2016-Aug-28 09:28N 31°21' E 121°31'9125126.0
2016-Aug-28 09:28N 32°04' E 119°57'806265.7
2016-Aug-28 09:27N 31°31' E 121°23'106119.1
2016-Aug-28 08:33N 29°56' E 122°19'42127088.8
2016-Aug-28 08:32N 24°03' E 118°02'48564614.0
2016-Aug-28 08:32N 31°35' E 121°17'525187.5
2016-Aug-28 08:31N 32°01' E 120°25'47595083.4
2016-Aug-28 08:31N 24°24' E 117°57'458149868.3
2016-Aug-28 08:31N 31°21' E 121°31'86155561.6
2016-Aug-28 08:31N 31°60' E 120°00'7712013.2
2016-Aug-28 08:30N 31°30' E 121°23'2184.1
2016-Aug-28 08:30N 31°29' E 121°25'67531979.8
2016-Aug-28 08:29N 22°18' E 114°08'67812330.7
2016-Aug-28 08:25N 31°41' E 121°13'66033483.6
2016-Aug-28 08:24N 23°04' E 113°30'65987886.6
2016-Aug-28 08:24N 31°39' E 121°13'12363.5
2016-Aug-28 08:22N 31°31' E 121°23'17731.1
2016-Aug-28 08:20N 31°15' E 121°31'843.8
2016-Aug-28 08:09N 31°22' E 121°36'2948.6
2016-Aug-28 07:33N 31°41' E 121°10'466941.9
2016-Aug-28 07:33N 31°58' E 120°19'7444610.8
2016-Aug-28 07:33N 31°15' E 121°31'89160425.9
2016-Aug-28 07:33N 29°56' E 122°19'11719216.3
2016-Aug-28 07:32N 31°39' E 121°13'45741.0
2016-Aug-28 07:29N 32°02' E 120°27'675121411.7
2016-Aug-28 07:28N 22°18' E 114°08'67518694.3
2016-Aug-28 07:26N 31°22' E 121°36'121709.5
2016-Aug-28 07:26N 31°29' E 121°25'721569.6
2016-Aug-28 07:23N 31°58' E 120°06'7114161.8
2016-Aug-28 07:23N 31°30' E 121°23'158.2
2016-Aug-28 07:21N 31°31' E 121°23'12263.0
2016-Aug-28 07:19N 31°21' E 121°31'4584737.6
2016-Aug-28 07:13N 24°24' E 117°57'406615.1
2016-Aug-28 06:33N 29°56' E 122°19'16224347.5
2016-Aug-28 06:33N 31°57' E 120°12'681996.9
2016-Aug-28 06:31N 31°29' E 121°25'14564.3
2016-Aug-28 06:29N 31°39' E 121°13'4857377.3
2016-Aug-28 06:29N 31°60' E 120°22'67020980.5
2016-Aug-28 06:27N 22°18' E 114°08'581565.7
2016-Aug-28 06:25N 23°04' E 113°30'658131627.8
2016-Aug-28 06:25N 31°47' E 121°00'36236.4
2016-Aug-28 06:16N 31°21' E 121°31'25903.1
2016-Aug-28 06:14N 31°41' E 121°13'5985.7
2016-Aug-28 05:33N 31°57' E 120°06'7014915.4
2016-Aug-28 05:33N 31°30' E 121°23'10594577.9
2016-Aug-28 05:33N 29°56' E 122°19'62852563.7
2016-Aug-28 05:32N 23°04' E 113°30'659339062.8
2016-Aug-28 05:32N 31°39' E 121°13'518318.6
2016-Aug-28 05:31N 31°57' E 120°17'47046960.8
2016-Aug-28 05:31N 24°24' E 117°57'88036431.2
2016-Aug-28 05:29N 39°04' E 117°48'4431595554.4
2016-Aug-28 05:29N 31°59' E 120°19'637614.8
2016-Aug-28 05:29N 31°29' E 121°25'156786.1
2016-Aug-28 05:29N 31°15' E 121°31'66727915.4
2016-Aug-28 05:27N 22°18' E 114°08'67854215.7
2016-Aug-28 05:27N 31°40' E 121°13'24296.4
2016-Aug-28 05:22N 31°21' E 121°31'94117.2
2016-Aug-28 04:33N 29°56' E 122°19'105189126.8
2016-Aug-28 04:33N 31°30' E 121°23'118186.5
2016-Aug-28 04:33N 31°21' E 121°31'7634239.6
2016-Aug-28 04:33N 31°56' E 120°12'48845011.9
2016-Aug-28 04:32N 24°03' E 117°58'4896928.4
2016-Aug-28 04:28N 31°40' E 121°12'678271024.1
2016-Aug-28 04:28N 22°18' E 114°08'67293002.3
2016-Aug-28 04:28N 31°21' E 121°31'499112214.1
2016-Aug-28 04:27N 39°05' E 117°46'50426699.7
2016-Aug-28 04:26N 31°15' E 121°31'893734.2
2016-Aug-28 04:25N 31°59' E 119°60'192303.5
2016-Aug-28 04:24N 31°60' E 120°22'64928482.1
2016-Aug-28 04:23N 23°04' E 113°30'98529311.6
2016-Aug-28 04:21N 39°04' E 117°48'4885993.2
2016-Aug-28 04:16N 31°29' E 121°25'362.9
2016-Aug-28 04:14N 31°31' E 121°23'1218.1
2016-Aug-28 03:33N 31°40' E 121°13'118141723.8
2016-Aug-28 03:33N 29°56' E 122°19'16659735.7
2016-Aug-28 03:33N 31°57' E 120°06'8118173.9
2016-Aug-28 03:33N 31°21' E 121°31'111191.9
2016-Aug-28 03:32N 31°30' E 121°23'65898674.9
2016-Aug-28 03:32N 23°04' E 113°30'64416222.8
2016-Aug-28 03:30N 31°57' E 120°18'66624471.7
2016-Aug-28 03:28N 22°18' E 114°08'245126113.6
2016-Aug-28 03:28N 24°24' E 117°57'458183159.2
2016-Aug-28 03:28N 31°21' E 121°31'10217.0
2016-Aug-28 03:25N 31°29' E 121°25'4818161.3
2016-Aug-28 03:21N 24°04' E 118°01'47024149.6
2016-Aug-28 03:20N 31°15' E 121°31'9452.1
2016-Aug-28 03:19N 31°22' E 121°36'4976251.1
2016-Aug-28 03:14N 39°04' E 117°51'051.4
2016-Aug-28 03:14N 39°04' E 117°51'47447438.8
2016-Aug-28 03:14N 31°39' E 121°13'47610854.6
2016-Aug-28 03:11N 39°05' E 117°46'504803.4
2016-Aug-28 02:33N 31°15' E 121°31'50447769.8
2016-Aug-28 02:33N 39°05' E 117°46'496162480.2
2016-Aug-28 02:33N 31°23' E 121°30'9634739.7
2016-Aug-28 02:32N 29°56' E 122°19'16258248.2
2016-Aug-28 02:32N 31°56' E 120°12'7553711.5
2016-Aug-28 02:32N 31°22' E 121°30'157.9
2016-Aug-28 02:31N 31°21' E 121°31'8711170.9
2016-Aug-28 02:30N 31°59' E 119°59'877279.8
2016-Aug-28 02:29N 31°21' E 121°31'67215912.7
2016-Aug-28 02:27N 22°18' E 114°08'6772436785.6
2016-Aug-28 02:27N 31°39' E 121°13'131348.6
2016-Aug-28 02:26N 31°30' E 121°23'3288868.2
2016-Aug-28 02:24N 36°53' E 122°26'3283130.4
2016-Aug-28 02:18N 31°29' E 121°25'4876494.4
2016-Aug-28 02:13N 39°04' E 117°51'9005497.8
2016-Aug-28 02:03N 24°05' E 118°02'420835.8
2016-Aug-28 01:33N 29°56' E 122°19'167602155.5
2016-Aug-28 01:33N 31°57' E 120°04'6521394.1
2016-Aug-28 01:33N 31°36' E 121°17'221768.6
2016-Aug-28 01:32N 31°20' E 121°33'46689.6
2016-Aug-28 01:32N 31°22' E 121°30'894659.9
2016-Aug-28 01:31N 32°03' E 119°57'815587.1
2016-Aug-28 01:30N 31°30' E 121°23'11248.9
2016-Aug-28 01:28N 31°21' E 121°31'6732.5
2016-Aug-28 01:27N 31°15' E 121°31'17403.6
2016-Aug-28 01:25N 31°31' E 121°23'65930791.1
2016-Aug-28 01:23N 23°04' E 113°29'65621668.4
2016-Aug-28 01:22N 31°21' E 121°31'10176.2
2016-Aug-28 01:18N 31°29' E 121°25'6754774.7
2016-Aug-28 01:10N 22°18' E 114°08'2454903.2
2016-Aug-28 01:07N 24°24' E 117°57'465831.0
2016-Aug-28 00:33N 31°32' E 121°22'7616059.7
2016-Aug-28 00:33N 32°00' E 119°59'6961848.7
2016-Aug-28 00:33N 31°38' E 121°15'11525966.5
2016-Aug-28 00:33N 29°56' E 122°19'1057879.1
2016-Aug-28 00:32N 31°30' E 121°23'658215354.5
2016-Aug-28 00:32N 23°04' E 113°29'659790299.6
2016-Aug-28 00:32N 31°31' E 121°23'121897.6
2016-Aug-28 00:31N 31°21' E 121°31'1114.6
2016-Aug-28 00:30N 31°22' E 121°30'67214229.0
2016-Aug-28 00:28N 22°18' E 114°08'672402997.5
2016-Aug-28 00:28N 31°21' E 121°31'6107.1
2016-Aug-28 00:24N 31°15' E 121°31'52420277.1
2016-Aug-28 00:23N 22°36' E 120°15'53748355.5
2016-Aug-28 00:22N 31°29' E 121°25'487438405.6
2016-Aug-28 00:22N 39°04' E 117°50'880287963.1
2016-Aug-28 00:22N 24°24' E 117°57'4702593.3
2016-Aug-28 00:11N 31°41' E 121°13'4754372.5
2016-Aug-28 00:04N 39°05' E 117°46'10241994.5
2016-Aug-27 23:34N 22°18' E 114°08'676810830.5
2016-Aug-27 23:34N 31°29' E 121°27'91442.3
2016-Aug-27 23:33N 31°35' E 121°19'11157078.8
2016-Aug-27 23:33N 29°56' E 122°19'9081058.3
2016-Aug-27 23:33N 31°18' E 121°34'4534.5
2016-Aug-27 23:32N 31°21' E 121°31'657337985.5
2016-Aug-27 23:32N 23°02' E 113°31'65721698.0
2016-Aug-27 23:31N 31°21' E 121°31'11305.3
2016-Aug-27 23:28N 31°30' E 121°23'4638593.1
2016-Aug-27 23:25N 24°24' E 117°57'4686764.1
2016-Aug-27 23:21N 31°59' E 120°02'8717487.2
2016-Aug-27 23:21N 31°15' E 121°31'667844.7
2016-Aug-27 22:33N 22°18' E 114°08'673269251.3
2016-Aug-27 22:33N 31°23' E 121°30'21104.6
2016-Aug-27 22:33N 31°21' E 121°31'8148874.3
2016-Aug-27 22:33N 31°58' E 120°06'2289.4
2016-Aug-27 22:33N 31°57' E 120°08'7970924.2
2016-Aug-27 22:32N 31°25' E 121°33'91355.1
2016-Aug-27 22:32N 31°30' E 121°23'163337.1
2016-Aug-27 22:32N 31°15' E 121°31'18862.8
2016-Aug-27 22:31N 31°32' E 121°23'13267.7
2016-Aug-27 22:28N 31°21' E 121°32'114.9
2016-Aug-27 22:22N 31°22' E 121°30'952051.0
2016-Aug-27 22:19N 29°56' E 122°19'106757.7
2016-Aug-27 22:11N 31°31' E 121°23'393.9
2016-Aug-27 22:09N 31°29' E 121°25'6751137.3
2016-Aug-27 21:33N 22°18' E 114°08'6362289357.1
2016-Aug-27 21:33N 29°56' E 122°19'969352.5
2016-Aug-27 21:33N 31°23' E 121°30'103087.7
2016-Aug-27 21:32N 31°31' E 121°23'31805.5
2016-Aug-27 21:32N 31°29' E 121°25'1311.3
2016-Aug-27 21:32N 31°30' E 121°24'1220724.1
2016-Aug-27 21:32N 31°24' E 121°35'4425.5
2016-Aug-27 21:32N 31°21' E 121°31'6271.3
2016-Aug-27 21:30N 31°15' E 121°31'6158.7
2016-Aug-27 21:28N 31°22' E 121°30'47335510.1
2016-Aug-27 21:27N 24°05' E 118°03'47942062.6
2016-Aug-27 21:26N 31°29' E 121°27'711427.5
2016-Aug-27 21:23N 31°57' E 120°10'163197.1
2016-Aug-27 20:34N 29°56' E 122°19'9758423.6
2016-Aug-27 20:33N 31°25' E 121°31'675142879.2
2016-Aug-27 20:33N 22°18' E 114°08'67641949.5
2016-Aug-27 20:32N 31°24' E 121°35'6828.4
2016-Aug-27 20:32N 31°27' E 121°29'61528.8
2016-Aug-27 20:32N 31°21' E 121°31'112785.5
2016-Aug-27 20:31N 31°30' E 121°24'101221.6
2016-Aug-27 20:31N 31°22' E 121°30'9134.1
2016-Aug-27 20:27N 31°29' E 121°25'695081.9
2016-Aug-27 20:26N 31°57' E 120°10'163186.3
2016-Aug-27 19:33N 29°56' E 122°19'16196458.2
2016-Aug-27 19:33N 31°57' E 120°15'769763.9
2016-Aug-27 19:33N 31°24' E 121°35'3976.0
2016-Aug-27 19:33N 31°25' E 121°32'7482.6
2016-Aug-27 19:32N 31°29' E 121°25'2199.9
2016-Aug-27 19:31N 31°28' E 121°26'71214.2
2016-Aug-27 19:31N 31°22' E 121°30'102817.6
2016-Aug-27 19:31N 31°30' E 121°24'11322.3
2016-Aug-27 19:29N 31°21' E 121°31'6722989.8
2016-Aug-27 19:15N 22°18' E 114°08'66775022.6
2016-Aug-27 19:15N 31°15' E 121°31'89129.8
2016-Aug-27 18:33N 29°56' E 122°19'160143788.6
2016-Aug-27 18:33N 31°60' E 120°20'669104766.4
2016-Aug-27 18:33N 22°18' E 114°08'676486648.2
2016-Aug-27 18:33N 31°24' E 121°35'5223.3
2016-Aug-27 18:32N 31°21' E 121°30'0332.3
2016-Aug-27 18:32N 31°21' E 121°31'11351.3
2016-Aug-27 18:30N 31°30' E 121°24'136.5
2016-Aug-27 18:28N 31°29' E 121°25'15100.0
2016-Aug-27 18:19N 31°17' E 121°34'66214985.2
2016-Aug-27 18:16N 22°53' E 113°31'66372368.9
2016-Aug-27 18:16N 31°22' E 121°30'134301.1
2016-Aug-27 18:16N 31°32' E 121°21'19578.2
2016-Aug-27 18:14N 31°15' E 121°31'73109.3
2016-Aug-27 17:33N 32°03' E 120°26'597367.7
2016-Aug-27 17:33N 31°30' E 121°24'1055253.9
2016-Aug-27 17:32N 29°56' E 122°19'9437741.6
2016-Aug-27 17:32N 31°21' E 121°31'153.9
2016-Aug-27 17:31N 31°21' E 121°30'0181.6
2016-Aug-27 17:31N 31°21' E 121°30'4204.6
2016-Aug-27 17:29N 31°22' E 121°35'12435.9
2016-Aug-27 17:28N 31°29' E 121°25'6755786.9
2016-Aug-27 17:21N 22°18' E 114°08'6707397.2
2016-Aug-27 17:15N 31°17' E 121°34'670942.4
2016-Aug-27 16:33N 22°18' E 114°08'6362289207.1
2016-Aug-27 16:33N 29°56' E 122°19'10511820.6
2016-Aug-27 16:32N 31°30' E 121°24'1142.1
2016-Aug-27 16:32N 31°29' E 121°25'9653.7
2016-Aug-27 16:31N 31°21' E 121°30'0240.6
2016-Aug-27 16:31N 31°21' E 121°30'1 4.8
2016-Aug-27 16:23N 31°21' E 121°31'1262.3
2016-Aug-27 16:11N 31°31' E 121°23'794018.7
2016-Aug-27 16:10N 32°02' E 119°57'175288.4
2016-Aug-27 15:33N 29°56' E 122°19'63654504.2
2016-Aug-27 15:33N 22°18' E 114°08'67711664.6
2016-Aug-27 15:29N 31°41' E 121°10'178800.8
2016-Aug-27 15:29N 31°29' E 121°25'141.9
2016-Aug-27 15:27N 31°30' E 121°24'1311418.5
2016-Aug-27 15:27N 31°22' E 121°35'4143.1
2016-Aug-27 15:26N 31°21' E 121°31'872833.1
2016-Aug-27 15:24N 31°60' E 119°60'862535.3
2016-Aug-27 15:22N 31°21' E 121°30'1012.6
2016-Aug-27 14:33N 31°30' E 121°24'10521014.5
2016-Aug-27 14:33N 29°56' E 122°19'9419944.4
2016-Aug-27 14:32N 31°23' E 121°37'866047.8
2016-Aug-27 14:32N 31°58' E 120°05'825987.8
2016-Aug-27 14:31N 31°21' E 121°30'8525553.3
2016-Aug-27 14:31N 31°59' E 120°01'3383.1
2016-Aug-27 14:30N 32°01' E 119°58'815287.0
2016-Aug-27 14:29N 31°29' E 121°25'15405.0
2016-Aug-27 14:27N 31°15' E 121°31'6278.1
2016-Aug-27 14:26N 31°21' E 121°31'94108.2
2016-Aug-27 13:33N 29°56' E 122°19'166597037.5
2016-Aug-27 13:33N 31°57' E 120°07'27248.7
2016-Aug-27 13:33N 31°56' E 120°08'689405.7
2016-Aug-27 13:33N 31°31' E 121°23'143041.1
2016-Aug-27 13:32N 31°23' E 121°37'676162349.6
2016-Aug-27 13:32N 22°18' E 114°08'675486117.9
2016-Aug-27 13:32N 31°30' E 121°24'762970.9
2016-Aug-27 13:31N 31°59' E 120°01'775036.5
2016-Aug-27 13:30N 31°29' E 121°25'10518.4
2016-Aug-27 13:29N 31°21' E 121°31'6134.1
2016-Aug-27 13:26N 31°15' E 121°31'693.8
2016-Aug-27 13:22N 31°22' E 121°30'345.2
2016-Aug-27 13:18N 31°23' E 121°33'995.9
2016-Aug-27 13:12N 31°29' E 121°24'1068.9
2016-Aug-27 13:04N 31°21' E 121°30'75146.8
2016-Aug-27 12:33N 31°57' E 120°13'7420466.1
2016-Aug-27 12:33N 31°23' E 121°30'2382280.1
2016-Aug-27 12:33N 31°41' E 121°13'139138.8
2016-Aug-27 12:33N 31°31' E 121°22'174802.2
2016-Aug-27 12:33N 31°15' E 121°31'66764883.9
2016-Aug-27 12:32N 22°18' E 114°08'636327025.0
2016-Aug-27 12:32N 29°56' E 122°19'10441729.4
2016-Aug-27 12:32N 31°30' E 121°24'199.6
2016-Aug-27 12:31N 31°30' E 121°24'6924924.4
2016-Aug-27 12:31N 31°56' E 120°08'7810014.8
2016-Aug-27 12:31N 31°21' E 121°30'0 2.3
2016-Aug-27 12:26N 31°21' E 121°30'5105.7
2016-Aug-27 12:23N 31°17' E 121°34'345.3
2016-Aug-27 12:19N 31°20' E 121°33'4220.4
2016-Aug-27 12:17N 31°23' E 121°36'94128.1
2016-Aug-27 11:33N 29°56' E 122°19'1046826.9
2016-Aug-27 11:32N 31°30' E 121°24'5317.4
2016-Aug-27 11:31N 31°26' E 121°29'71683.0
2016-Aug-27 11:31N 31°31' E 121°22'689842.1
2016-Aug-27 11:31N 31°57' E 120°08'7016736.4
2016-Aug-27 11:31N 31°30' E 121°24'6213999.2
2016-Aug-27 11:30N 31°59' E 120°19'753176.7
2016-Aug-27 11:29N 31°22' E 121°36'8849.2
2016-Aug-27 11:28N 31°15' E 121°31'66717652.2
2016-Aug-27 11:26N 22°18' E 114°08'6725559.6
2016-Aug-27 11:19N 31°21' E 121°30'24375.0
2016-Aug-27 11:15N 31°41' E 121°13'119170.4
2016-Aug-27 10:33N 29°56' E 122°19'63632703.6
2016-Aug-27 10:32N 22°18' E 114°08'67545011.3
2016-Aug-27 10:31N 31°31' E 121°22'6533614.9
2016-Aug-27 10:31N 31°57' E 120°12'7638848.7
2016-Aug-27 10:31N 31°22' E 121°30'532159468.5
2016-Aug-27 10:31N 22°34' E 120°17'53942208.0
2016-Aug-27 10:30N 31°30' E 121°24'17206.0
2016-Aug-27 10:25N 31°42' E 121°09'30964.5
2016-Aug-27 10:23N 31°22' E 121°36'723161.3
2016-Aug-27 10:22N 32°01' E 120°25'713451.0
2016-Aug-27 10:20N 31°20' E 121°33'723186.7
2016-Aug-27 10:19N 32°02' E 120°24'4407506.7
2016-Aug-27 10:15N 39°04' E 117°50'48717719.4
2016-Aug-27 10:14N 31°29' E 121°25'913.4
2016-Aug-27 09:33N 31°24' E 121°33'9610777.5
2016-Aug-27 09:33N 29°56' E 122°19'10676485.8
2016-Aug-27 09:33N 31°31' E 121°23'639442.1
2016-Aug-27 09:32N 31°57' E 120°15'732557.2
2016-Aug-27 09:31N 31°21' E 121°30'714925.9
2016-Aug-27 09:30N 31°57' E 120°18'626045.0
2016-Aug-27 09:29N 31°30' E 121°24'12619.7
2016-Aug-27 09:28N 31°39' E 121°14'132638.4
2016-Aug-27 09:28N 31°29' E 121°25'102056.8
2016-Aug-27 09:27N 31°21' E 121°32'939561.3
2016-Aug-27 09:27N 29°56' E 122°17'16215809.3
2016-Aug-27 09:26N 31°56' E 120°08'66167971.3
2016-Aug-27 09:26N 22°18' E 114°08'67514818.8
2016-Aug-27 09:23N 31°22' E 121°36'49710977.8
2016-Aug-27 09:20N 39°04' E 117°50'47310074.4
2016-Aug-27 09:17N 31°41' E 121°13'119161.5
2016-Aug-27 08:33N 29°56' E 122°19'1127095.1
2016-Aug-27 08:32N 31°36' E 121°18'82461.4
2016-Aug-27 08:32N 31°30' E 121°24'6301.1
2016-Aug-27 08:31N 31°34' E 121°18'8313.9
2016-Aug-27 08:29N 31°41' E 121°13'13203.9
2016-Aug-27 08:26N 31°31' E 121°23'675810254.5
2016-Aug-27 08:26N 22°18' E 114°08'67514819.9
2016-Aug-27 08:23N 31°29' E 121°25'989.1
2016-Aug-27 08:17N 31°22' E 121°30'4233.7
2016-Aug-27 08:16N 31°18' E 121°33'74524.8
2016-Aug-27 08:07N 31°58' E 120°20'12505.0
2016-Aug-27 08:06N 31°57' E 120°06'69129.2
2016-Aug-27 07:33N 31°32' E 121°22'10764471.2
2016-Aug-27 07:33N 29°56' E 122°19'16012236.7
2016-Aug-27 07:33N 31°57' E 120°16'627191.2
2016-Aug-27 07:32N 31°31' E 121°23'111065.7
2016-Aug-27 07:31N 31°38' E 121°14'677609246.3
2016-Aug-27 07:31N 22°18' E 114°08'675202552.1
2016-Aug-27 07:31N 31°30' E 121°24'6124357.1
2016-Aug-27 07:31N 32°00' E 120°22'711117.9
2016-Aug-27 07:27N 31°21' E 121°32'10450.7
2016-Aug-27 07:26N 31°29' E 121°25'53713917.1
2016-Aug-27 07:24N 22°36' E 120°15'5306514.9
2016-Aug-27 07:19N 31°22' E 121°30'241244.5
2016-Aug-27 07:18N 31°41' E 121°13'57616.0
2016-Aug-27 07:12N 31°56' E 120°08'82606.4
2016-Aug-27 07:04N 31°19' E 121°33'91176.4
2016-Aug-27 06:33N 29°56' E 122°19'918603.5
2016-Aug-27 06:32N 31°18' E 121°33'5982.4
2016-Aug-27 06:32N 31°24' E 121°32'3157.6
2016-Aug-27 06:31N 31°21' E 121°32'1440.8
2016-Aug-27 06:31N 31°22' E 121°30'932597.0
2016-Aug-27 06:31N 31°29' E 121°25'148.5
2016-Aug-27 06:29N 31°30' E 121°24'6927672.1
2016-Aug-27 06:29N 31°56' E 120°08'16927.9
2016-Aug-27 06:28N 32°03' E 120°25'581802.0
2016-Aug-27 06:26N 31°31' E 121°22'1481.5
2016-Aug-27 06:15N 31°22' E 121°36'69430.7
2016-Aug-27 06:06N 32°02' E 120°29'157101.5
2016-Aug-27 04:33N 29°56' E 122°19'11610676.3
2016-Aug-27 04:32N 31°38' E 121°15'1303.7
2016-Aug-27 04:32N 31°37' E 121°16'235096.7
2016-Aug-27 04:32N 31°22' E 121°36'74132935.6
2016-Aug-27 04:32N 31°59' E 120°20'1138456.7
2016-Aug-27 04:32N 31°56' E 120°08'44369296.9
2016-Aug-27 04:31N 39°04' E 117°50'48543670.7
2016-Aug-27 04:31N 31°31' E 121°23'31500.0
2016-Aug-27 04:31N 31°29' E 121°25'3219.4
2016-Aug-27 04:30N 31°31' E 121°22'296.9
2016-Aug-27 04:29N 31°30' E 121°24'161054.1
2016-Aug-27 04:28N 31°15' E 121°31'6933.3
2016-Aug-27 04:28N 31°22' E 121°30'5305766.4
2016-Aug-27 04:22N 22°36' E 120°15'99611530.6
2016-Aug-27 04:17N 39°04' E 117°51'591814.2
2016-Aug-27 03:33N 29°56' E 122°19'111199203.0
2016-Aug-27 03:33N 31°34' E 121°19'81914.1
2016-Aug-27 03:33N 31°28' E 121°25'53715581.2
2016-Aug-27 03:31N 22°35' E 120°14'86828409.5
2016-Aug-27 03:29N 36°56' E 122°28'335134168.1
2016-Aug-27 03:29N 31°23' E 121°34'9810.1
2016-Aug-27 03:28N 31°15' E 121°31'16950.4
2016-Aug-27 03:27N 31°30' E 121°24'10222.7
2016-Aug-27 03:25N 31°22' E 121°30'995.9
2016-Aug-27 03:19N 31°29' E 121°25'489586861.3
2016-Aug-27 03:19N 39°05' E 117°46'4993199.0
2016-Aug-27 03:10N 31°23' E 121°38'131071.7
2016-Aug-27 03:09N 31°29' E 121°25'2 2.8
2016-Aug-27 02:33N 31°31' E 121°24'106126997.3
2016-Aug-27 02:33N 29°56' E 122°19'10361768.3
2016-Aug-27 02:33N 31°28' E 121°25'12423.5
2016-Aug-27 02:32N 31°22' E 121°37'4739.1
2016-Aug-27 02:31N 31°21' E 121°32'2191.8
2016-Aug-27 02:31N 31°22' E 121°30'49854338.1
2016-Aug-27 02:30N 39°05' E 117°46'48843934.8
2016-Aug-27 02:29N 31°30' E 121°24'33074220.4
2016-Aug-27 02:29N 36°56' E 122°28'33610693.4
2016-Aug-27 02:27N 31°23' E 121°38'10151.6
2016-Aug-27 02:23N 31°15' E 121°31'15343.6
2016-Aug-27 02:21N 31°29' E 121°25'13373.0
2016-Aug-27 02:19N 31°18' E 121°33'1419.0
2016-Aug-27 01:33N 31°30' E 121°24'152158.1
2016-Aug-27 01:33N 31°21' E 121°38'1346741.5
2016-Aug-27 01:33N 31°28' E 121°25'10311581.5
2016-Aug-27 01:32N 29°56' E 122°19'964678.5
2016-Aug-27 01:31N 31°23' E 121°30'53862.3
2016-Aug-27 01:31N 31°18' E 121°33'4599.0
2016-Aug-27 01:31N 31°22' E 121°30'33713205.9
2016-Aug-27 01:29N 36°56' E 122°28'34461895.5
2016-Aug-27 01:29N 31°15' E 121°31'5024016.8
2016-Aug-27 01:21N 39°04' E 117°51'8999432.7
2016-Aug-27 01:16N 24°05' E 117°59'477677.1
2016-Aug-27 00:33N 31°24' E 121°31'979931.2
2016-Aug-27 00:33N 29°56' E 122°19'41922532.9
2016-Aug-27 00:32N 36°56' E 122°28'34428781.7
2016-Aug-27 00:31N 31°15' E 121°31'10296.1
2016-Aug-27 00:29N 31°25' E 121°33'6666.5
2016-Aug-27 00:28N 31°18' E 121°34'14234.3
2016-Aug-27 00:25N 31°30' E 121°24'1012309.7
2016-Aug-27 00:25N 31°21' E 121°30'4145.8
2016-Aug-27 00:23N 31°18' E 121°33'6146.4
2016-Aug-27 00:20N 31°23' E 121°38'12926.3
2016-Aug-27 00:20N 31°28' E 121°25'1215.8
2016-Aug-26 23:33N 31°18' E 121°33'41384.4
2016-Aug-26 23:33N 31°15' E 121°31'8980155.5
2016-Aug-26 23:33N 29°56' E 122°19'928096.1
2016-Aug-26 23:32N 31°20' E 121°33'132156.8
2016-Aug-26 23:32N 31°30' E 121°24'10449.5
2016-Aug-26 23:31N 31°21' E 121°30'8126.1
2016-Aug-26 23:27N 31°21' E 121°40'14611.1
2016-Aug-26 23:26N 31°28' E 121°25'121201.9
2016-Aug-26 23:25N 31°23' E 121°38'553.5
2016-Aug-26 23:19N 31°19' E 121°33'47630568.6
2016-Aug-26 23:18N 24°04' E 117°57'23619330.8
2016-Aug-26 23:17N 22°18' E 114°07'6354523.4
2016-Aug-26 23:09N 29°57' E 122°16'1176676.3
2016-Aug-26 23:08N 31°40' E 121°12'15988.6
2016-Aug-26 23:07N 31°29' E 121°25'813.7
2016-Aug-26 22:33N 31°23' E 121°30'201724.1
2016-Aug-26 22:33N 31°38' E 121°15'162741.6
2016-Aug-26 22:32N 31°30' E 121°31'102122591.9
2016-Aug-26 22:32N 29°56' E 122°19'1055910.6
2016-Aug-26 22:31N 31°30' E 121°24'1091.7
2016-Aug-26 22:25N 31°22' E 121°30'53701.4
2016-Aug-26 22:25N 31°17' E 121°34'6187.8
2016-Aug-26 22:23N 31°23' E 121°38'10210.4
2016-Aug-26 22:20N 31°15' E 121°31'15186.0
2016-Aug-26 22:15N 31°29' E 121°25'112.8
2016-Aug-26 22:10N 31°28' E 121°25'813.0
2016-Aug-26 21:33N 31°22' E 121°30'151975.6
2016-Aug-26 21:33N 31°34' E 121°20'5277.4
2016-Aug-26 21:32N 31°30' E 121°24'10669.5
2016-Aug-26 21:31N 31°22' E 121°30'8183.2
2016-Aug-26 21:28N 31°21' E 121°39'15154.0
2016-Aug-26 21:22N 31°29' E 121°25'1138.9
2016-Aug-26 21:22N 31°28' E 121°25'4826267.3
2016-Aug-26 21:17N 24°02' E 117°58'4813695.0
2016-Aug-26 21:10N 31°23' E 121°38'1525.1
2016-Aug-26 20:33N 31°30' E 121°23'121768.2
2016-Aug-26 20:33N 31°21' E 121°32'111799.0
2016-Aug-26 20:33N 31°30' E 121°25'14443.2
2016-Aug-26 20:31N 31°23' E 121°38'712028.6
2016-Aug-26 20:31N 31°22' E 121°30'47722905.0
2016-Aug-26 20:29N 24°03' E 117°58'47111626.0
2016-Aug-26 20:27N 31°15' E 121°31'14274.5
2016-Aug-26 20:24N 31°28' E 121°25'160.2
2016-Aug-26 20:23N 31°29' E 121°25'360.0
2016-Aug-26 20:20N 31°31' E 121°23'810.1
2016-Aug-26 19:33N 31°37' E 121°16'19422.5
2016-Aug-26 19:31N 31°22' E 121°30'8269.6
2016-Aug-26 19:29N 31°28' E 121°25'121235.3
2016-Aug-26 19:28N 31°23' E 121°38'13150.3
2016-Aug-26 19:23N 31°29' E 121°25'840.3
2016-Aug-26 19:11N 31°22' E 121°30'1 1.4
2016-Aug-26 18:33N 31°23' E 121°30'133.4
2016-Aug-26 18:31N 31°22' E 121°30'956330.6
2016-Aug-26 18:30N 29°56' E 122°19'1045425.7
2016-Aug-26 18:29N 31°29' E 121°25'135.6
2016-Aug-26 18:27N 31°28' E 121°25'8222.6
2016-Aug-26 18:25N 31°21' E 121°30'743.0
2016-Aug-26 18:15N 31°23' E 121°38'536.7
2016-Aug-26 18:07N 31°19' E 121°33'92159.5
2016-Aug-26 17:32N 29°56' E 122°19'9333468.2
2016-Aug-26 17:32N 31°20' E 121°33'101476.4
2016-Aug-26 17:32N 31°28' E 121°25'8407.1
2016-Aug-26 17:31N 31°22' E 121°30'9142.5
2016-Aug-26 17:27N 31°29' E 121°25'13607.2
2016-Aug-26 17:25N 31°23' E 121°38'7 7.8
2016-Aug-26 16:33N 31°21' E 121°30'2675.8
2016-Aug-26 16:33N 31°24' E 121°31'971810.6
2016-Aug-26 16:30N 29°56' E 122°19'933604.2
2016-Aug-26 16:28N 31°23' E 121°38'29344.4
2016-Aug-26 16:23N 31°41' E 121°11'25969.5
2016-Aug-26 16:22N 31°22' E 121°30'9119.1
2016-Aug-26 16:17N 31°29' E 121°25'1 0.8
2016-Aug-26 15:33N 31°29' E 121°24'10411043.9
2016-Aug-26 15:33N 29°56' E 122°19'11752556.7
2016-Aug-26 15:33N 31°39' E 121°14'22265.5
2016-Aug-26 15:28N 31°22' E 121°30'353.2
2016-Aug-26 15:25N 31°24' E 121°32'5143.9
2016-Aug-26 15:22N 31°22' E 121°37'1399.7
2016-Aug-26 15:14N 31°29' E 121°25'13176.7
2016-Aug-26 15:10N 31°23' E 121°38'710.7
2016-Aug-26 14:33N 31°23' E 121°30'174399.8
2016-Aug-26 14:33N 31°36' E 121°17'11381435.1
2016-Aug-26 14:33N 29°56' E 122°19'104187144.8
2016-Aug-26 14:33N 31°29' E 121°25'1758.0
2016-Aug-26 14:33N 31°28' E 121°25'78015.3
2016-Aug-26 14:33N 31°23' E 121°31'3484.0
2016-Aug-26 14:32N 31°26' E 121°29'121094.8
2016-Aug-26 14:32N 31°15' E 121°31'690.7
2016-Aug-26 14:28N 31°22' E 121°30'744.1
2016-Aug-26 14:18N 31°23' E 121°38'7 8.9
2016-Aug-26 13:34N 31°22' E 121°30'61224.2
2016-Aug-26 13:33N 31°15' E 121°31'196378.8
2016-Aug-26 13:33N 31°33' E 121°21'5357.6
2016-Aug-26 13:32N 31°29' E 121°25'12573.5
2016-Aug-26 13:31N 31°19' E 121°34'5105.9
2016-Aug-26 13:28N 31°23' E 121°32'9381.6
2016-Aug-26 13:27N 31°29' E 121°25'1041230.1
2016-Aug-26 13:22N 29°56' E 122°19'1046686.0
2016-Aug-26 13:21N 31°29' E 121°25'13254.5
2016-Aug-26 13:18N 31°23' E 121°38'12254.8
2016-Aug-26 13:15N 31°28' E 121°25'31038.4
2016-Aug-26 13:15N 31°31' E 121°23'106153.4
2016-Aug-26 12:33N 29°56' E 122°19'1065875.3
2016-Aug-26 12:32N 31°30' E 121°22'33071.3
2016-Aug-26 12:32N 31°29' E 121°25'3134.7
2016-Aug-26 12:31N 31°31' E 121°22'124157.7
2016-Aug-26 12:31N 31°21' E 121°30'7252.2
2016-Aug-26 12:29N 31°23' E 121°38'5236.0
2016-Aug-26 12:28N 31°21' E 121°32'102491.1
2016-Aug-26 12:27N 31°29' E 121°25'69375608.8
2016-Aug-26 12:27N 22°11' E 113°44'69323972.8
2016-Aug-26 12:25N 31°29' E 121°23'1683.0
2016-Aug-26 12:14N 31°15' E 121°31'6861017.4
2016-Aug-26 11:33N 22°08' E 113°49'65662104.2
2016-Aug-26 11:33N 29°56' E 122°19'10525153.0
2016-Aug-26 11:32N 31°29' E 121°23'161421.1
2016-Aug-26 11:32N 31°15' E 121°31'176936.1
2016-Aug-26 11:32N 31°31' E 121°22'259.2
2016-Aug-26 11:29N 31°32' E 121°20'181167.1
2016-Aug-26 11:28N 31°23' E 121°38'7564.6
2016-Aug-26 11:28N 31°21' E 121°30'11115.5
2016-Aug-26 11:22N 31°30' E 121°22'1161.2
2016-Aug-26 11:11N 31°22' E 121°30'1116.9
2016-Aug-26 10:33N 31°31' E 121°22'177817.9
2016-Aug-26 10:33N 31°15' E 121°31'1513658.9
2016-Aug-26 10:33N 31°29' E 121°25'8277.2
2016-Aug-26 10:31N 31°22' E 121°30'7168.8
2016-Aug-26 10:28N 31°23' E 121°38'1712554.8
2016-Aug-26 10:28N 31°32' E 121°21'131101.3
2016-Aug-26 10:28N 31°22' E 121°30'10120.2
2016-Aug-26 10:22N 31°29' E 121°23'148.1
2016-Aug-26 10:21N 31°30' E 121°24'674831.6
2016-Aug-26 09:32N 22°28' E 113°54'674115593.2
2016-Aug-26 09:32N 31°34' E 121°19'11012796.2
2016-Aug-26 09:31N 29°56' E 122°19'1046350.6
2016-Aug-26 09:30N 31°29' E 121°25'1157.2
2016-Aug-26 09:30N 31°29' E 121°23'290.6
2016-Aug-26 09:29N 31°31' E 121°22'17162.0
2016-Aug-26 09:22N 31°15' E 121°31'7216.9
2016-Aug-26 09:20N 31°22' E 121°30'7105.9
2016-Aug-26 09:16N 31°23' E 121°38'7289.3
2016-Aug-26 09:15N 31°21' E 121°30'28142.5
2016-Aug-26 09:03N 31°43' E 121°08'1836.7
2016-Aug-26 08:33N 31°29' E 121°23'9404.7
2016-Aug-26 08:32N 31°23' E 121°30'18991.5
2016-Aug-26 08:31N 31°37' E 121°16'8432.2
2016-Aug-26 08:30N 31°31' E 121°22'2217.9
2016-Aug-26 08:29N 31°29' E 121°25'9113.8
2016-Aug-26 08:24N 31°21' E 121°30'235.8
2016-Aug-26 08:20N 31°20' E 121°33'287.7
2016-Aug-26 08:19N 31°18' E 121°33'113.6
2016-Aug-26 08:14N 31°17' E 121°34'901568.9
2016-Aug-26 08:11N 29°56' E 122°19'16397789.7
2016-Aug-26 08:11N 31°57' E 120°11'115.8
2016-Aug-26 08:06N 31°57' E 120°09'4 7.8
2016-Aug-26 07:33N 31°57' E 120°14'16123162.3
2016-Aug-26 07:33N 29°56' E 122°19'1154860.7
2016-Aug-26 07:32N 31°38' E 121°16'725756.8
2016-Aug-26 07:31N 32°03' E 119°57'65965938.2
2016-Aug-26 07:30N 22°28' E 113°54'675110432.3
2016-Aug-26 07:30N 31°33' E 121°20'6577414.8
2016-Aug-26 07:30N 31°57' E 120°09'7035917.0
2016-Aug-26 07:30N 31°29' E 121°25'263.8
2016-Aug-26 07:28N 31°29' E 121°23'15446.7
2016-Aug-26 07:26N 31°41' E 121°11'67870.6
2016-Aug-26 07:22N 32°03' E 119°56'81100.7
2016-Aug-26 06:33N 31°29' E 121°23'61031.9
2016-Aug-26 06:33N 31°34' E 121°19'11113260.1
2016-Aug-26 06:32N 29°56' E 122°19'1594755.6
2016-Aug-26 06:30N 31°58' E 120°20'607246.8
2016-Aug-26 06:30N 31°30' E 121°23'961199.6
2016-Aug-26 06:25N 29°59' E 121°59'1581883.9
2016-Aug-26 06:20N 31°60' E 119°60'9498.8
2016-Aug-26 06:19N 31°57' E 120°09'13106.5
2016-Aug-26 06:12N 32°03' E 119°56'174105.7
2016-Aug-26 04:33N 29°49' E 122°06'132171.3
2016-Aug-26 04:33N 29°56' E 122°19'16429581.1
2016-Aug-26 04:33N 31°57' E 120°09'11823.6
2016-Aug-26 04:33N 31°57' E 120°09'775758.1
2016-Aug-26 04:32N 31°25' E 121°32'8461.3
2016-Aug-26 04:31N 31°30' E 121°24'132.5
2016-Aug-26 04:30N 31°30' E 121°24'198.7
2016-Aug-26 04:29N 31°29' E 121°25'1323657.7
2016-Aug-26 04:29N 31°23' E 121°38'784.4
2016-Aug-26 04:24N 31°22' E 121°30'4967564.7
2016-Aug-26 04:20N 39°04' E 117°50'49711395.5
2016-Aug-26 04:17N 31°22' E 121°36'5114811.8
2016-Aug-26 04:11N 23°06' E 119°23'440700.3
2016-Aug-26 03:33N 29°56' E 122°19'1055252.5
2016-Aug-26 03:32N 31°30' E 121°24'67242352.0
2016-Aug-26 03:32N 31°56' E 120°10'1161.6
2016-Aug-26 03:32N 31°57' E 120°09'1651860.3
2016-Aug-26 03:26N 29°43' E 122°02'1122248.9
2016-Aug-26 03:23N 31°30' E 121°24'69672.5
2016-Aug-26 03:17N 31°57' E 120°10'691655.8
2016-Aug-26 03:15N 31°29' E 121°25'51428441.4
2016-Aug-26 03:14N 23°08' E 119°21'438654.0
2016-Aug-26 02:33N 29°56' E 122°19'16316816.9
2016-Aug-26 02:33N 31°57' E 120°10'6849104.8
2016-Aug-26 02:33N 31°30' E 121°24'182.3
2016-Aug-26 02:32N 31°30' E 121°24'672660.3
2016-Aug-26 02:31N 31°55' E 120°11'6817438.0
2016-Aug-26 02:30N 31°29' E 121°25'7014805.2
2016-Aug-26 02:30N 31°57' E 120°09'68601.5
2016-Aug-26 02:23N 31°31' E 121°23'106127.2
2016-Aug-26 01:33N 29°56' E 122°19'1044403.6
2016-Aug-26 01:32N 31°29' E 121°25'683643.9
2016-Aug-26 01:31N 31°55' E 120°11'2257.7
2016-Aug-26 01:30N 31°57' E 120°09'699149.8
2016-Aug-26 01:30N 31°30' E 121°24'687015.2
2016-Aug-26 01:29N 31°57' E 120°10'692194.4
2016-Aug-26 01:27N 31°30' E 121°24'1031.6
2016-Aug-26 01:09N 31°22' E 121°30'6327.4
2016-Aug-26 01:08N 31°15' E 121°31'1627.6
2016-Aug-26 00:33N 31°30' E 121°24'105126059.4
2016-Aug-26 00:33N 29°56' E 122°19'16432703.0
2016-Aug-26 00:32N 31°57' E 120°10'8236866.7
2016-Aug-26 00:32N 31°17' E 121°34'33763.3
2016-Aug-26 00:32N 31°15' E 121°31'813550.4
2016-Aug-26 00:31N 31°57' E 120°09'775069.1
2016-Aug-26 00:30N 31°21' E 121°30'753930.4
2016-Aug-26 00:29N 31°55' E 120°11'811500.1
2016-Aug-26 00:26N 31°23' E 121°38'16383.9
2016-Aug-26 00:23N 31°31' E 121°23'266.1
2016-Aug-26 00:21N 31°30' E 121°24'105130.2
2016-Aug-25 23:33N 29°56' E 122°19'89320535.3
2016-Aug-25 23:33N 31°15' E 121°31'841516.1
2016-Aug-25 23:30N 31°58' E 120°05'9563.9
2016-Aug-25 23:29N 32°03' E 119°56'13484.2
2016-Aug-25 23:27N 31°57' E 120°09'8210227.5
2016-Aug-25 23:27N 31°17' E 121°34'82147562.9
2016-Aug-25 23:27N 31°57' E 120°10'673218.7
2016-Aug-25 23:26N 31°31' E 121°23'16611.1
2016-Aug-25 23:24N 31°23' E 121°38'765.3
2016-Aug-25 23:18N 31°21' E 121°30'754844.3
2016-Aug-25 23:17N 31°55' E 120°11'80782.3
2016-Aug-25 23:11N 31°17' E 121°34'018.5
2016-Aug-25 23:11N 31°17' E 121°34'6 9.0
2016-Aug-25 22:33N 31°22' E 121°30'61936.5
2016-Aug-25 22:33N 31°15' E 121°31'1656935.6
2016-Aug-25 22:33N 31°30' E 121°24'696363.4
2016-Aug-25 22:32N 31°57' E 120°09'6711031.7
2016-Aug-25 22:32N 31°31' E 121°23'10621259.5
2016-Aug-25 22:31N 29°56' E 122°19'16211188.4
2016-Aug-25 22:31N 31°55' E 120°11'1242852.6
2016-Aug-25 22:30N 32°01' E 120°24'12461.0
2016-Aug-25 22:29N 31°57' E 120°10'027.3
2016-Aug-25 22:28N 31°57' E 120°10'821219.6
2016-Aug-25 22:24N 31°17' E 121°34'7561.1
2016-Aug-25 22:23N 31°23' E 121°38'7165.2
2016-Aug-25 22:21N 31°17' E 121°34'152411.5
2016-Aug-25 22:20N 31°30' E 121°24'151068.5
2016-Aug-25 22:19N 31°17' E 121°34'95670.4
2016-Aug-25 22:11N 32°03' E 119°56'17179.4
2016-Aug-25 22:05N 31°57' E 120°15'0 0.9
2016-Aug-25 21:33N 31°57' E 120°14'3341.3
2016-Aug-25 21:33N 31°57' E 120°18'775208.6
2016-Aug-25 21:32N 31°23' E 121°38'9313972.2
2016-Aug-25 21:31N 29°56' E 122°19'8912328.3
2016-Aug-25 21:31N 31°15' E 121°31'815598.9
2016-Aug-25 21:30N 31°57' E 120°09'7730995.0
2016-Aug-25 21:30N 31°21' E 121°30'775235.3
2016-Aug-25 21:29N 31°57' E 120°10'8221060.6
2016-Aug-25 21:29N 31°17' E 121°34'8018034.1
2016-Aug-25 21:29N 31°55' E 120°11'684401.1
2016-Aug-25 21:28N 31°28' E 121°25'296.0
2016-Aug-25 21:27N 31°30' E 121°24'611374.4
2016-Aug-25 21:24N 31°59' E 120°21'5411205040.8
2016-Aug-25 21:22N 49°18' W 123°02'5388188317.9
2016-Aug-25 21:21N 31°31' E 121°23'286.9
2016-Aug-25 21:19N 31°29' E 121°25'12474.7
2016-Aug-25 21:17N 31°20' E 121°33'934539.9
2016-Aug-25 21:16N 32°03' E 119°56'27152.2
2016-Aug-25 21:05N 32°02' E 120°28'47736535.6
2016-Aug-25 21:04N 24°24' E 117°57'590311363.7
2016-Aug-25 20:33N 49°18' W 123°06'54214879235.5
2016-Aug-25 20:33N 29°56' E 122°19'163586134.1
2016-Aug-25 20:33N 31°56' E 120°10'7668389.8
2016-Aug-25 20:33N 31°22' E 121°30'12483.0
2016-Aug-25 20:33N 31°23' E 121°30'7010139.4
2016-Aug-25 20:33N 31°59' E 120°19'469105627.0
2016-Aug-25 20:32N 24°25' E 118°01'45649749.9
2016-Aug-25 20:32N 31°22' E 121°30'772609.6
2016-Aug-25 20:30N 31°57' E 120°09'7719925.3
2016-Aug-25 20:30N 31°21' E 121°30'122599.6
2016-Aug-25 20:30N 31°31' E 121°23'16416.8
2016-Aug-25 20:27N 31°23' E 121°38'714118.7
2016-Aug-25 20:26N 31°58' E 120°26'7050420.9
2016-Aug-25 20:26N 31°15' E 121°31'7917705.6
2016-Aug-25 20:26N 31°55' E 120°11'671140.8
2016-Aug-25 20:22N 31°30' E 121°24'226.3
2016-Aug-25 20:19N 31°28' E 121°25'120.8
2016-Aug-25 20:15N 31°29' E 121°24'0126.9
2016-Aug-25 20:15N 31°29' E 121°25'53777824.6
2016-Aug-25 19:34N 49°20' W 123°15'58892650124.3
2016-Aug-25 19:33N 24°22' E 118°08'402241194.5
2016-Aug-25 19:33N 29°56' E 122°19'9210296.7
2016-Aug-25 19:33N 31°21' E 121°39'9110869.5
2016-Aug-25 19:32N 31°58' E 120°02'8731212.9
2016-Aug-25 19:32N 31°15' E 121°31'8113864.6
2016-Aug-25 19:32N 31°57' E 120°09'70125705.0
2016-Aug-25 19:32N 31°29' E 121°25'1110.4
2016-Aug-25 19:31N 31°30' E 121°24'10389.6
2016-Aug-25 19:30N 31°22' E 121°30'8406.2
2016-Aug-25 19:29N 31°28' E 121°25'12267.1
2016-Aug-25 19:26N 31°23' E 121°38'81740.3
2016-Aug-25 19:19N 31°55' E 120°11'65364.7
2016-Aug-25 19:09N 31°31' E 121°23'68115.1
2016-Aug-25 18:33N 31°57' E 120°09'164589889.7
2016-Aug-25 18:33N 29°56' E 122°19'408209899.7
2016-Aug-25 18:33N 24°15' E 118°08'58932121634.3
2016-Aug-25 18:33N 49°17' W 123°19'53781613416.5
2016-Aug-25 18:33N 31°22' E 121°30'81117.0
2016-Aug-25 18:32N 31°28' E 121°25'8349728.0
2016-Aug-25 18:32N 32°03' E 119°56'933995.2
2016-Aug-25 18:31N 31°15' E 121°31'797263.8
2016-Aug-25 18:30N 31°55' E 120°11'13243.1
2016-Aug-25 18:27N 31°58' E 120°26'552009.1
2016-Aug-25 18:25N 31°31' E 121°23'285.7
2016-Aug-25 18:24N 31°30' E 121°24'14836.1
2016-Aug-25 18:23N 31°23' E 121°38'13584.0
2016-Aug-25 18:22N 31°29' E 121°25'536665.7
2016-Aug-25 17:33N 22°37' E 120°15'5873960996.0
2016-Aug-25 17:33N 49°12' W 123°26'54051769012.9
2016-Aug-25 17:33N 31°55' E 120°11'6716145.8
2016-Aug-25 17:33N 31°30' E 121°24'114.3
2016-Aug-25 17:30N 31°29' E 121°25'155433.0
2016-Aug-25 17:30N 31°15' E 121°31'63888.8
2016-Aug-25 17:30N 31°22' E 121°30'7105.1
2016-Aug-25 17:26N 31°23' E 121°38'12413.0
2016-Aug-25 17:24N 31°28' E 121°25'713790.8
2016-Aug-25 17:23N 31°57' E 120°09'4834016.6
2016-Aug-25 17:16N 24°07' E 117°60'48822827.6
2016-Aug-25 17:15N 31°58' E 120°26'5781.7
2016-Aug-25 16:33N 31°30' E 121°24'665217623.3
2016-Aug-25 16:33N 23°02' E 113°21'61721169475.0
2016-Aug-25 16:32N 49°06' W 123°32'54071946580.9
2016-Aug-25 16:32N 29°56' E 122°19'892225.5
2016-Aug-25 16:30N 31°15' E 121°31'141033.5
2016-Aug-25 16:29N 31°28' E 121°25'8248.2
2016-Aug-25 16:27N 31°22' E 121°30'771266.9
2016-Aug-25 16:23N 31°57' E 120°09'265.7
2016-Aug-25 16:21N 31°55' E 120°11'642808.8
2016-Aug-25 15:33N 23°04' E 113°25'631252499.0
2016-Aug-25 15:33N 29°56' E 122°19'16439329.4
2016-Aug-25 15:33N 31°57' E 120°09'703266.8
2016-Aug-25 15:32N 31°29' E 121°25'6815254.6
2016-Aug-25 15:32N 31°55' E 120°11'753757.7
2016-Aug-25 15:30N 31°22' E 121°30'10248.5
2016-Aug-25 15:28N 31°30' E 121°24'257.9
2016-Aug-25 15:26N 31°28' E 121°25'1446.9
2016-Aug-25 15:08N 31°15' E 121°31'1017.5
2016-Aug-25 14:33N 31°25' E 121°30'53678.1
2016-Aug-25 14:33N 31°28' E 121°25'103185333.6
2016-Aug-25 14:33N 29°56' E 122°19'628125638.0
2016-Aug-25 14:33N 23°03' E 113°30'65934381.4
2016-Aug-25 14:32N 31°29' E 121°25'184.3
2016-Aug-25 14:31N 31°30' E 121°24'6916644.0
2016-Aug-25 14:31N 31°57' E 120°09'791917.3
2016-Aug-25 14:29N 31°23' E 121°34'493.1
2016-Aug-25 14:26N 31°23' E 121°38'81641.9
2016-Aug-25 14:19N 31°55' E 120°11'721256.8
2016-Aug-25 14:15N 31°20' E 121°25'1013.8
2016-Aug-25 13:33N 31°30' E 121°23'10523686.4
2016-Aug-25 13:33N 29°56' E 122°19'9426141.3
2016-Aug-25 13:33N 31°21' E 121°31'63142.3
2016-Aug-25 13:33N 31°15' E 121°31'141688.7
2016-Aug-25 13:32N 31°28' E 121°25'7299.1
2016-Aug-25 13:31N 31°22' E 121°29'814541.5
2016-Aug-25 13:31N 31°29' E 121°25'1121.3
2016-Aug-25 13:30N 31°30' E 121°24'671180.7
2016-Aug-25 13:27N 31°55' E 120°11'266.3
2016-Aug-25 13:25N 31°57' E 120°09'5094405.8
2016-Aug-25 13:18N 23°45' E 117°39'5043117.9
2016-Aug-25 13:08N 31°23' E 121°38'2136.8
2016-Aug-25 12:33N 31°35' E 121°17'5395058.2
2016-Aug-25 12:33N 32°00' E 120°23'15928598.0
2016-Aug-25 12:33N 29°56' E 122°19'939317.9
2016-Aug-25 12:32N 31°23' E 121°38'696626438.1
2016-Aug-25 12:32N 22°13' E 113°40'69431640.0
2016-Aug-25 12:31N 31°30' E 121°24'1326.8
2016-Aug-25 12:31N 31°29' E 121°25'2163.8
2016-Aug-25 12:30N 31°31' E 121°23'683116.0
2016-Aug-25 12:29N 31°57' E 120°09'711814.0
2016-Aug-25 12:26N 31°28' E 121°25'14538.7
2016-Aug-25 12:25N 31°15' E 121°31'79679.4
2016-Aug-25 12:18N 31°55' E 120°11'810.6
2016-Aug-25 11:33N 31°58' E 120°20'6035965.0
2016-Aug-25 11:33N 31°31' E 121°23'2148.5
2016-Aug-25 11:32N 31°29' E 121°25'1527327.9
2016-Aug-25 11:32N 31°15' E 121°31'8980133.8
2016-Aug-25 11:32N 29°56' E 122°19'16927626.5
2016-Aug-25 11:31N 31°58' E 120°03'767232.3
2016-Aug-25 11:31N 31°28' E 121°25'162602.5
2016-Aug-25 11:30N 31°40' E 121°12'56921.4
2016-Aug-25 11:27N 31°57' E 120°09'229.1
2016-Aug-25 11:22N 31°55' E 120°11'67275.1
2016-Aug-25 11:07N 31°30' E 121°24'5397351.7
2016-Aug-25 11:03N 22°34' E 120°16'5391064.0
2016-Aug-25 10:33N 31°30' E 121°24'7128488.5
2016-Aug-25 10:32N 31°57' E 120°06'8342749.3
2016-Aug-25 10:32N 31°15' E 121°31'8918855.0
2016-Aug-25 10:32N 29°56' E 122°19'16484281.8
2016-Aug-25 10:32N 31°57' E 120°09'6715164.4
2016-Aug-25 10:32N 31°31' E 121°23'782608.2
2016-Aug-25 10:30N 32°02' E 119°58'813408.1
2016-Aug-25 10:28N 31°28' E 121°25'45458405.2
2016-Aug-25 10:28N 24°28' E 118°11'45591012.0
2016-Aug-25 10:28N 31°29' E 121°25'652769.7
2016-Aug-25 10:26N 31°56' E 120°14'10355.5
2016-Aug-25 10:25N 31°58' E 120°26'13417.2
2016-Aug-25 10:23N 31°55' E 120°11'15576.3
2016-Aug-25 10:21N 32°03' E 119°56'5276256.8
2016-Aug-25 10:16N 23°17' E 119°20'1036420.9
2016-Aug-25 10:15N 23°45' E 117°31'50321038.9
2016-Aug-25 10:14N 31°19' E 121°33'22732.1
2016-Aug-25 10:12N 31°09' E 121°11'26199.3
2016-Aug-25 10:04N 31°21' E 121°38'2040.4
2016-Aug-25 09:33N 31°33' E 121°19'11039557.7
2016-Aug-25 09:33N 29°56' E 122°19'12248903.0
2016-Aug-25 09:33N 31°43' E 121°09'456102686.5
2016-Aug-25 09:33N 24°34' E 118°10'438197237.8
2016-Aug-25 09:33N 31°15' E 121°31'87483.1
2016-Aug-25 09:33N 31°22' E 121°35'47728.2
2016-Aug-25 09:33N 31°23' E 121°30'7326439.8
2016-Aug-25 09:33N 31°57' E 120°13'6712614.2
2016-Aug-25 09:32N 31°10' E 121°09'23911.4
2016-Aug-25 09:31N 31°29' E 121°25'2739.3
2016-Aug-25 09:30N 31°31' E 121°23'17182.8
2016-Aug-25 09:25N 31°15' E 121°30'14277.8
2016-Aug-25 09:22N 31°28' E 121°25'81733.9
2016-Aug-25 09:21N 31°21' E 121°26'731283.8
2016-Aug-25 09:18N 31°56' E 120°11'825541.6
2016-Aug-25 09:17N 31°21' E 121°38'711238.1
2016-Aug-25 09:14N 31°58' E 120°26'156229.6
2016-Aug-25 08:33N 29°56' E 122°19'8920032.3
2016-Aug-25 08:33N 31°15' E 121°31'104394.3
2016-Aug-25 08:33N 31°23' E 121°38'677348131.8
2016-Aug-25 08:33N 22°28' E 113°52'655168301.1
2016-Aug-25 08:32N 31°14' E 121°09'205175.9
2016-Aug-25 08:32N 31°29' E 121°24'81154.2
2016-Aug-25 08:32N 31°23' E 121°31'81377.0
2016-Aug-25 08:31N 31°30' E 121°24'11486.5
2016-Aug-25 08:30N 31°38' E 121°15'10495.8
2016-Aug-25 08:29N 31°31' E 121°23'621582.5
2016-Aug-25 08:26N 31°57' E 120°16'743876.1
2016-Aug-25 08:25N 31°23' E 121°33'20355.3
2016-Aug-25 08:22N 31°37' E 121°16'1156.5
2016-Aug-25 08:10N 31°29' E 121°25'8135.1
2016-Aug-25 08:07N 31°22' E 121°29'915.8
2016-Aug-25 07:33N 31°30' E 121°24'133974.7
2016-Aug-25 07:33N 31°39' E 121°13'2545180.3
2016-Aug-25 07:33N 31°20' E 121°33'61467.4
2016-Aug-25 07:33N 31°15' E 121°31'78472.7
2016-Aug-25 07:33N 31°22' E 121°30'672134443.8
2016-Aug-25 07:33N 22°28' E 113°52'67511740.7
2016-Aug-25 07:29N 31°31' E 121°23'113610.8
2016-Aug-25 07:29N 31°22' E 121°30'7194.0
2016-Aug-25 07:27N 31°23' E 121°38'15143.7
2016-Aug-25 07:21N 31°30' E 121°23'226.0
2016-Aug-25 07:17N 31°32' E 121°23'20111.9
2016-Aug-25 07:06N 31°17' E 121°08'1934.9
2016-Aug-25 06:33N 31°30' E 121°24'2152.0
2016-Aug-25 06:32N 31°29' E 121°27'5435.6
2016-Aug-25 06:32N 31°26' E 121°30'23608.6
2016-Aug-25 06:29N 31°17' E 121°05'2277849.2
2016-Aug-25 06:29N 31°15' E 121°31'273633.4
2016-Aug-25 06:29N 31°38' E 121°14'111153.4
2016-Aug-25 06:28N 31°30' E 121°23'342.4
2016-Aug-25 06:24N 31°31' E 121°20'674101077.8
2016-Aug-25 06:23N 22°28' E 113°52'67512032.1
2016-Aug-25 06:20N 31°31' E 121°23'10800.6
2016-Aug-25 06:19N 31°23' E 121°30'4425426.3
2016-Aug-25 06:14N 24°38' E 118°11'4464747.4
2016-Aug-25 06:09N 31°29' E 121°25'489307.7
2016-Aug-25 04:33N 39°05' E 117°46'499448826.2
2016-Aug-25 04:33N 31°21' E 121°31'6562362708.4
2016-Aug-25 04:33N 23°03' E 113°30'65925789.5
2016-Aug-25 04:32N 31°30' E 121°24'1176.5
2016-Aug-25 04:31N 31°30' E 121°23'1053836.0
2016-Aug-25 04:30N 29°56' E 122°19'89325.4
2016-Aug-25 04:13N 31°15' E 121°31'15303.5
2016-Aug-25 04:10N 31°29' E 121°25'13156.2
2016-Aug-25 04:05N 31°23' E 121°38'1528.1
2016-Aug-25 03:34N 31°30' E 121°23'10542189.8
2016-Aug-25 03:33N 29°56' E 122°19'10522144.2
2016-Aug-25 03:33N 31°30' E 121°24'663113641.7
2016-Aug-25 03:33N 23°02' E 113°24'277199643.4
2016-Aug-25 03:33N 24°36' E 118°10'43727097.7
2016-Aug-25 03:32N 31°15' E 121°31'152172.4
2016-Aug-25 03:31N 31°29' E 121°25'15195.0
2016-Aug-25 03:27N 31°15' E 121°30'8997.8
2016-Aug-25 02:32N 29°56' E 122°19'1048911.7
2016-Aug-25 02:31N 31°29' E 121°25'2164.3
2016-Aug-25 02:31N 31°30' E 121°23'119.7
2016-Aug-25 02:27N 31°30' E 121°24'45419221.2
2016-Aug-25 02:26N 24°29' E 118°12'2674246.1
2016-Aug-25 02:22N 22°27' E 113°54'101728831.1
2016-Aug-25 02:20N 39°05' E 117°45'5008219.3
2016-Aug-25 02:16N 31°23' E 121°38'711518.8
2016-Aug-25 02:13N 31°58' E 120°26'54118009.8
2016-Aug-25 01:33N 48°44' W 123°17'5427407050.7
2016-Aug-25 01:32N 29°56' E 122°19'4008832.4
2016-Aug-25 01:29N 24°25' E 118°06'46945674.1
2016-Aug-25 01:29N 31°58' E 120°26'563413.0
2016-Aug-25 01:28N 31°30' E 121°23'143.6
2016-Aug-25 01:26N 31°30' E 121°24'15125.3
2016-Aug-25 01:19N 31°17' E 121°34'1458.7
2016-Aug-25 01:04N 31°29' E 121°25'1019.9
2016-Aug-25 00:33N 31°21' E 121°31'9419866.3
2016-Aug-25 00:32N 29°56' E 122°19'1053760.1
2016-Aug-25 00:31N 31°30' E 121°23'16189.5
2016-Aug-25 00:26N 31°17' E 121°34'15157.4
2016-Aug-25 00:20N 31°30' E 121°24'1 9.5
2016-Aug-25 00:16N 31°29' E 121°25'131884.1
2016-Aug-25 00:15N 31°23' E 121°38'5393808967.3
2016-Aug-25 00:15N 48°35' W 123°14'539778350.7
2016-Aug-25 00:11N 31°29' E 121°25'15225.6
2016-Aug-25 00:07N 31°15' E 121°31'1017.6
2016-Aug-24 23:33N 31°23' E 121°38'53954855636.2
2016-Aug-24 23:33N 48°31' W 123°14'54203902071.7
2016-Aug-24 23:33N 31°58' E 120°26'5522073.2
2016-Aug-24 23:33N 31°31' E 121°23'12167.6
2016-Aug-24 23:29N 31°21' E 121°30'105945.5
2016-Aug-24 23:29N 31°30' E 121°24'1145.0
2016-Aug-24 23:28N 31°30' E 121°23'10629216.3
2016-Aug-24 23:28N 29°56' E 122°19'106116.8
2016-Aug-24 22:33N 31°31' E 121°23'53992429741.2
2016-Aug-24 22:33N 48°27' W 123°17'54192167651.6
2016-Aug-24 22:33N 31°58' E 120°26'6523222.1
2016-Aug-24 22:33N 31°22' E 121°29'966277.6
2016-Aug-24 22:32N 29°56' E 122°19'10520930.0
2016-Aug-24 22:32N 31°30' E 121°24'1176.5
2016-Aug-24 22:31N 31°30' E 121°23'176623.8
2016-Aug-24 22:31N 31°15' E 121°31'10199.6
2016-Aug-24 22:28N 31°23' E 121°38'8 8.3
2016-Aug-24 21:33N 31°22' E 121°29'725625.6
2016-Aug-24 21:33N 31°15' E 121°31'8914572.9
2016-Aug-24 21:32N 29°56' E 122°19'5434310510.3
2016-Aug-24 21:31N 48°27' W 123°18'53982776185.0
2016-Aug-24 21:31N 31°30' E 121°24'242.6
2016-Aug-24 21:29N 31°31' E 121°23'1 9.6
2016-Aug-24 21:24N 31°30' E 121°23'274.8
2016-Aug-24 21:22N 31°29' E 121°25'13932.4
2016-Aug-24 21:21N 31°23' E 121°38'331074.9
2016-Aug-24 21:20N 31°43' E 121°08'3442.8
2016-Aug-24 20:32N 31°15' E 121°31'171068.1
2016-Aug-24 20:31N 31°30' E 121°23'120.3
2016-Aug-24 20:29N 31°31' E 121°23'2322.9
2016-Aug-24 20:29N 31°30' E 121°24'136470.7
2016-Aug-24 20:29N 31°39' E 121°14'1171338.7
2016-Aug-24 20:23N 29°56' E 122°19'1043638.5
2016-Aug-24 20:22N 31°29' E 121°25'13129.6
2016-Aug-24 20:16N 31°23' E 121°38'1419.5
2016-Aug-24 19:33N 31°30' E 121°24'6728.3
2016-Aug-24 19:33N 31°34' E 121°19'76507.0
2016-Aug-24 19:33N 31°39' E 121°14'284397.0
2016-Aug-24 19:32N 31°21' E 121°39'10409.5
2016-Aug-24 19:31N 31°15' E 121°31'173286.0
2016-Aug-24 19:30N 31°31' E 121°23'155.6
2016-Aug-24 19:30N 31°30' E 121°23'10584.0
2016-Aug-24 19:29N 31°22' E 121°29'852.6
2016-Aug-24 19:19N 31°29' E 121°25'701287.8
2016-Aug-24 19:16N 31°57' E 120°09'16423654.7
2016-Aug-24 19:16N 29°56' E 122°19'1762815.5
2016-Aug-24 19:12N 32°03' E 119°56'13386.5
2016-Aug-24 19:10N 31°56' E 120°10'237.9
2016-Aug-24 19:07N 31°55' E 120°11'162285.8
2016-Aug-24 18:33N 29°56' E 122°19'9612779.9
2016-Aug-24 18:33N 31°22' E 121°29'72072.6
2016-Aug-24 18:33N 31°29' E 121°25'84078.7
2016-Aug-24 18:33N 31°35' E 121°19'6487.3
2016-Aug-24 18:32N 31°30' E 121°23'1196.9
2016-Aug-24 18:32N 31°31' E 121°23'2167.1
2016-Aug-24 18:31N 31°29' E 121°25'706312.2
2016-Aug-24 18:30N 31°57' E 120°09'128.8
2016-Aug-24 18:28N 31°56' E 120°10'802807.8
2016-Aug-24 18:26N 31°15' E 121°31'942323.5
2016-Aug-24 18:24N 32°03' E 119°56'8919.7
2016-Aug-24 18:23N 31°58' E 120°04'747863.1
2016-Aug-24 18:23N 31°30' E 121°24'105127.5
2016-Aug-24 17:34N 29°56' E 122°19'106190834.8
2016-Aug-24 17:34N 31°31' E 121°24'6913834.7
2016-Aug-24 17:33N 31°57' E 120°08'726132.3
2016-Aug-24 17:33N 31°28' E 121°25'2257.6
2016-Aug-24 17:32N 31°30' E 121°24'931302.4
2016-Aug-24 17:32N 31°22' E 121°29'10754.0
2016-Aug-24 17:31N 31°30' E 121°23'685800.1
2016-Aug-24 17:31N 31°56' E 120°10'131540.0
2016-Aug-24 17:30N 32°03' E 119°56'121435.2
2016-Aug-24 17:30N 31°57' E 120°09'70987.7
2016-Aug-24 17:25N 31°29' E 121°25'153018.3
2016-Aug-24 17:25N 31°15' E 121°31'90345.3
2016-Aug-24 17:09N 31°60' E 119°60'77125.6
2016-Aug-24 16:33N 31°30' E 121°23'104949.5
2016-Aug-24 16:33N 31°22' E 121°29'7213711.4
2016-Aug-24 16:32N 31°57' E 120°14'5523.6
2016-Aug-24 16:32N 31°57' E 120°09'7380.3
2016-Aug-24 16:31N 31°59' E 120°02'774499.6
2016-Aug-24 16:30N 31°28' E 121°25'2187.3
2016-Aug-24 16:29N 31°30' E 121°24'6679268.9
2016-Aug-24 16:25N 22°54' E 113°30'667342875.9
2016-Aug-24 16:25N 31°29' E 121°25'682351.2
2016-Aug-24 16:23N 31°55' E 120°11'1 1.7
2016-Aug-24 15:33N 31°56' E 120°12'6621588.0
2016-Aug-24 15:33N 31°30' E 121°23'10519986.7
2016-Aug-24 15:32N 29°56' E 122°19'1676398.5
2016-Aug-24 15:31N 31°58' E 120°05'816073.9
2016-Aug-24 15:30N 31°25' E 121°32'71197.2
2016-Aug-24 15:30N 31°28' E 121°25'71196.2
2016-Aug-24 15:29N 31°22' E 121°29'8477.4
2016-Aug-24 15:28N 31°29' E 121°25'15603.7
2016-Aug-24 15:27N 31°15' E 121°31'801774.3
2016-Aug-24 15:24N 31°56' E 120°10'693022.4
2016-Aug-24 15:23N 31°30' E 121°24'70606.2
2016-Aug-24 15:16N 31°57' E 120°09'1 1.4
2016-Aug-24 14:33N 31°56' E 120°10'1638164.8
2016-Aug-24 14:32N 29°56' E 122°19'16428086.5
2016-Aug-24 14:32N 31°57' E 120°10'686804.1
2016-Aug-24 14:31N 31°30' E 121°23'3265.3
2016-Aug-24 14:31N 31°28' E 121°25'2228.9
2016-Aug-24 14:30N 31°30' E 121°24'674387.0
2016-Aug-24 14:29N 31°56' E 120°12'328.7
2016-Aug-24 14:24N 31°57' E 120°09'776265.0
2016-Aug-24 14:23N 31°22' E 121°29'8219.0
2016-Aug-24 14:21N 31°29' E 121°25'15238.3
2016-Aug-24 14:17N 31°15' E 121°31'89122.4
2016-Aug-24 13:33N 29°56' E 122°19'1562999.2
2016-Aug-24 13:30N 31°58' E 120°26'704419.4
2016-Aug-24 13:29N 31°15' E 121°30'8016986.2
2016-Aug-24 13:29N 31°56' E 120°10'696571.6
2016-Aug-24 13:28N 31°29' E 121°25'1554329.7
2016-Aug-24 13:28N 31°15' E 121°31'7712066.9
2016-Aug-24 13:28N 31°57' E 120°14'723516.3
2016-Aug-24 13:27N 31°22' E 121°29'10433.3
2016-Aug-24 13:25N 31°30' E 121°23'661267.6
2016-Aug-24 13:22N 31°56' E 120°12'522049.9
2016-Aug-24 13:21N 31°41' E 121°11'16399.9
2016-Aug-24 13:18N 31°30' E 121°24'6591185650.3
2016-Aug-24 13:18N 23°04' E 113°30'65815483.9
2016-Aug-24 13:16N 31°28' E 121°25'0 0.0
2016-Aug-24 12:33N 31°28' E 121°25'10361718.1
2016-Aug-24 12:33N 29°56' E 122°19'10614165.3
2016-Aug-24 12:32N 31°31' E 121°23'673657.8
2016-Aug-24 12:31N 31°56' E 120°10'81004.5
2016-Aug-24 12:31N 31°59' E 120°19'753649.7
2016-Aug-24 12:29N 31°15' E 121°31'65180856.4
2016-Aug-24 12:29N 23°04' E 113°30'65969726.5
2016-Aug-24 12:28N 31°29' E 121°25'267.0
2016-Aug-24 12:27N 31°30' E 121°23'10825.4
2016-Aug-24 12:26N 31°22' E 121°29'21570.0
2016-Aug-24 12:24N 31°39' E 121°15'12679.3
2016-Aug-24 12:23N 31°30' E 121°24'67709.0
2016-Aug-24 12:17N 31°56' E 120°12'464635.5
2016-Aug-24 11:33N 24°26' E 118°05'400110764.9
2016-Aug-24 11:33N 29°56' E 122°19'10317634.7
2016-Aug-24 11:33N 31°28' E 121°25'7185235.3
2016-Aug-24 11:33N 31°57' E 120°09'3316.7
2016-Aug-24 11:32N 31°56' E 120°12'7912310.9
2016-Aug-24 11:32N 31°15' E 121°31'8236694.0
2016-Aug-24 11:32N 31°56' E 120°08'6915519.5
2016-Aug-24 11:31N 31°30' E 121°23'10343.0
2016-Aug-24 11:30N 31°22' E 121°29'10937.2
2016-Aug-24 11:29N 31°31' E 121°23'315.5
2016-Aug-24 11:19N 31°29' E 121°25'1808.6
2016-Aug-24 11:19N 31°30' E 121°24'6597272.7
2016-Aug-24 11:14N 23°04' E 113°30'651952.0
2016-Aug-24 10:33N 31°15' E 121°31'1513623.2
2016-Aug-24 10:33N 31°29' E 121°25'1049603.4
2016-Aug-24 10:32N 29°56' E 122°19'10612757.6
2016-Aug-24 10:32N 31°31' E 121°23'2338.4
2016-Aug-24 10:31N 31°30' E 121°24'1162.9
2016-Aug-24 10:31N 31°30' E 121°23'111947.0
2016-Aug-24 10:30N 31°21' E 121°31'9184.8
2016-Aug-24 10:28N 31°28' E 121°25'7261.7
2016-Aug-24 10:26N 31°22' E 121°29'103235.8
2016-Aug-24 10:26N 31°31' E 121°24'1091897.2
2016-Aug-24 10:22N 29°47' E 122°04'1251659.8
2016-Aug-24 10:18N 31°43' E 121°08'501748.1
2016-Aug-24 10:16N 31°56' E 120°12'4607880.6
2016-Aug-24 10:13N 24°29' E 118°13'46012632.9
2016-Aug-24 10:11N 31°57' E 120°09'1299.1
2016-Aug-24 10:03N 32°02' E 119°56'172345.1
2016-Aug-24 09:33N 29°54' E 122°09'91046.2
2016-Aug-24 09:33N 29°56' E 122°19'117211436.0
2016-Aug-24 09:33N 31°39' E 121°13'66040255.9
2016-Aug-24 09:32N 23°04' E 113°30'6592372663.7
2016-Aug-24 09:32N 31°26' E 121°30'7785.1
2016-Aug-24 09:31N 31°30' E 121°23'663429.4
2016-Aug-24 09:30N 31°56' E 120°12'45549637.9
2016-Aug-24 09:30N 24°34' E 118°10'45678242.8
2016-Aug-24 09:29N 31°44' E 121°05'191594.7
2016-Aug-24 09:29N 31°31' E 121°23'278.2
2016-Aug-24 09:27N 31°30' E 121°24'16414.0
2016-Aug-24 09:25N 31°15' E 121°31'864624.2
2016-Aug-24 09:24N 29°58' E 122°15'944819.1
2016-Aug-24 09:23N 31°23' E 121°30'71175.0
2016-Aug-24 09:22N 31°28' E 121°25'9574.0
2016-Aug-24 09:21N 31°21' E 121°31'78417.9
2016-Aug-24 09:10N 31°57' E 120°09'1633260.2
2016-Aug-24 09:07N 29°56' E 122°17'862677.2
2016-Aug-24 09:05N 31°13' E 121°30'171089.4
2016-Aug-24 09:04N 31°29' E 121°25'612.3
2016-Aug-24 08:33N 31°34' E 121°19'101343.1
2016-Aug-24 08:33N 31°41' E 121°12'11925283.8
2016-Aug-24 08:33N 29°56' E 122°19'16227775.3
2016-Aug-24 08:32N 31°56' E 120°12'64176919.6
2016-Aug-24 08:32N 23°04' E 113°30'650106427.7
2016-Aug-24 08:32N 31°15' E 121°29'7663.4
2016-Aug-24 08:31N 31°21' E 121°31'62491.5
2016-Aug-24 08:31N 31°15' E 121°31'864839.7
2016-Aug-24 08:30N 29°58' E 122°15'1038458.3
2016-Aug-24 08:29N 31°31' E 121°23'2136.9
2016-Aug-24 08:28N 31°30' E 121°24'2221.1
2016-Aug-24 08:28N 31°28' E 121°25'9442327.0
2016-Aug-24 08:28N 29°59' E 122°01'9715129.4
2016-Aug-24 08:27N 31°30' E 121°23'17418.1
2016-Aug-24 08:25N 31°21' E 121°40'851224.1
2016-Aug-24 08:20N 31°57' E 120°09'44518.7
2016-Aug-24 08:15N 31°47' E 120°59'381689.6
2016-Aug-24 08:14N 31°21' E 121°31'4708090.2
2016-Aug-24 08:11N 24°08' E 118°05'415665.5
2016-Aug-24 07:33N 29°56' E 122°19'1264487.7
2016-Aug-24 07:32N 31°45' E 121°05'2014698.3
2016-Aug-24 07:31N 31°31' E 121°23'173.1
2016-Aug-24 07:31N 31°30' E 121°23'123956.8
2016-Aug-24 07:31N 31°21' E 121°32'7479.2
2016-Aug-24 07:30N 31°21' E 121°40'10623.4
2016-Aug-24 07:29N 31°15' E 121°31'103354.2
2016-Aug-24 07:29N 31°25' E 121°31'7414840.5
2016-Aug-24 07:28N 31°56' E 120°12'7624829.9
2016-Aug-24 07:28N 31°21' E 121°31'101253.5
2016-Aug-24 07:28N 31°29' E 121°24'702946.4
2016-Aug-24 07:26N 31°57' E 120°09'715324.3
2016-Aug-24 07:25N 31°28' E 121°25'6586385.0
2016-Aug-24 07:19N 23°04' E 113°30'65917824.3
2016-Aug-24 07:17N 31°29' E 121°25'12227.7
2016-Aug-24 07:14N 31°22' E 121°36'911615.5
2016-Aug-24 07:11N 29°58' E 122°15'1723608.0
2016-Aug-24 07:08N 32°03' E 119°56'762539.1
2016-Aug-24 07:06N 31°35' E 121°19'3 5.9
2016-Aug-24 06:33N 31°32' E 121°22'10838823.1
2016-Aug-24 06:33N 29°56' E 122°19'11961357.1
2016-Aug-24 06:33N 31°41' E 121°12'66291638.9
2016-Aug-24 06:33N 23°04' E 113°26'6611189009.5
2016-Aug-24 06:33N 31°30' E 121°23'132380.9
2016-Aug-24 06:32N 31°20' E 121°33'27089.5
2016-Aug-24 06:32N 31°21' E 121°31'10860.7
2016-Aug-24 06:32N 31°29' E 121°25'115063.8
2016-Aug-24 06:32N 31°38' E 121°16'9838.9
2016-Aug-24 06:31N 31°31' E 121°23'545130900.2
2016-Aug-24 06:31N 23°21' E 116°51'54441670.0
2016-Aug-24 06:30N 31°21' E 121°40'8511779.1
2016-Aug-24 06:29N 31°57' E 120°09'712808.4
2016-Aug-24 06:28N 31°28' E 121°25'12702.2
2016-Aug-24 06:27N 31°22' E 121°38'6581.5
2016-Aug-24 06:26N 31°25' E 121°32'95835.0
2016-Aug-24 06:19N 29°58' E 122°15'1593299.2
2016-Aug-24 06:16N 31°56' E 120°12'542142.8
2016-Aug-24 06:15N 31°39' E 121°13'222418.1
2016-Aug-24 06:14N 31°22' E 121°29'3 1.7
2016-Aug-24 04:33N 31°24' E 121°32'235845.3
2016-Aug-24 04:33N 31°40' E 121°13'232456.8
2016-Aug-24 04:32N 31°23' E 121°30'133587.3
2016-Aug-24 04:32N 31°33' E 121°21'20869.1
2016-Aug-24 04:31N 31°15' E 121°31'161974.6
2016-Aug-24 04:30N 31°30' E 121°23'65730731.1
2016-Aug-24 04:29N 23°04' E 113°32'658592329.5
2016-Aug-24 04:29N 31°25' E 121°32'7393.9
2016-Aug-24 04:28N 31°29' E 121°25'70601.6
2016-Aug-24 04:21N 31°57' E 120°09'772317.0
2016-Aug-24 04:19N 31°25' E 121°32'98128.6
2016-Aug-24 03:33N 29°56' E 122°19'10426729.4
2016-Aug-24 03:33N 31°29' E 121°25'144493.0
2016-Aug-24 03:33N 31°21' E 121°38'7544767.2
2016-Aug-24 03:33N 32°00' E 120°23'70252178.0
2016-Aug-24 03:33N 31°21' E 121°31'4431595060.5
2016-Aug-24 03:33N 24°35' E 118°10'449107735.0
2016-Aug-24 03:32N 31°30' E 121°23'6917646.3
2016-Aug-24 03:32N 31°57' E 120°09'7028191.5
2016-Aug-24 03:32N 31°30' E 121°26'660792408.3
2016-Aug-24 03:32N 23°03' E 113°30'65731518.3
2016-Aug-24 03:31N 31°21' E 121°31'924019.9
2016-Aug-24 03:29N 29°58' E 122°15'10314773.7
2016-Aug-24 03:29N 31°30' E 121°23'343.3
2016-Aug-24 03:25N 31°28' E 121°25'68640.9
2016-Aug-24 03:19N 31°56' E 120°12'76801.0
2016-Aug-24 03:13N 31°21' E 121°31'2 2.5
2016-Aug-24 02:34N 31°23' E 121°30'7119613.6
2016-Aug-24 02:33N 31°57' E 120°17'159574120.0
2016-Aug-24 02:33N 29°56' E 122°19'896927.7
2016-Aug-24 02:33N 31°15' E 121°32'15562.5
2016-Aug-24 02:31N 31°29' E 121°25'5815.9
2016-Aug-24 02:31N 31°27' E 121°29'6201.2
2016-Aug-24 02:29N 31°30' E 121°23'3204.8
2016-Aug-24 02:28N 31°28' E 121°25'10357.1
2016-Aug-24 02:26N 31°21' E 121°32'12470.9
2016-Aug-24 02:25N 31°30' E 121°23'659124895.7
2016-Aug-24 02:24N 23°03' E 113°30'65732389.3
2016-Aug-24 02:23N 31°21' E 121°31'733.1
2016-Aug-24 02:10N 31°20' E 121°39'742004.7
2016-Aug-24 02:08N 31°58' E 120°26'6501133.6
2016-Aug-24 01:34N 23°04' E 113°29'18159271.2
2016-Aug-24 01:33N 23°20' E 116°45'548246621.0
2016-Aug-24 01:33N 31°24' E 121°33'4284.8
2016-Aug-24 01:32N 31°21' E 121°31'454148421.0
2016-Aug-24 01:32N 24°25' E 118°06'456821147.1
2016-Aug-24 01:32N 31°23' E 121°34'121789.4
2016-Aug-24 01:32N 31°30' E 121°23'10514606.4
2016-Aug-24 01:31N 29°56' E 122°19'1031146.2
2016-Aug-24 01:26N 31°28' E 121°25'321.0
2016-Aug-24 01:18N 31°30' E 121°23'13229.9
2016-Aug-24 01:15N 31°40' E 121°13'25745.0
2016-Aug-24 01:13N 31°21' E 121°32'3 4.6
2016-Aug-24 00:33N 31°24' E 121°31'9610216.4
2016-Aug-24 00:33N 29°56' E 122°19'93167536.8
2016-Aug-24 00:33N 31°20' E 121°33'547218883.8
2016-Aug-24 00:33N 23°22' E 116°35'55220269.9
2016-Aug-24 00:31N 31°30' E 121°23'15820.3
2016-Aug-24 00:30N 31°22' E 121°38'15939.1
2016-Aug-24 00:29N 31°30' E 121°23'66412929.9
2016-Aug-24 00:26N 23°02' E 113°22'66423214.0
2016-Aug-24 00:24N 31°28' E 121°25'1 8.1
2016-Aug-24 00:16N 31°29' E 121°25'104365.3
2016-Aug-24 00:16N 31°21' E 121°31'111.2
2016-Aug-24 00:10N 31°21' E 121°32'11156.4
2016-Aug-24 00:06N 31°30' E 121°25'331105.2
2016-Aug-24 00:04N 31°06' E 120°57'94186.7
2016-Aug-23 23:34N 29°55' E 122°09'10120101.8
2016-Aug-23 23:33N 31°28' E 121°25'385.2
2016-Aug-23 23:31N 31°30' E 121°23'1518168.0
2016-Aug-23 23:31N 31°18' E 121°34'019.2
2016-Aug-23 23:31N 31°18' E 121°33'13614.1
2016-Aug-23 23:29N 31°29' E 121°25'10326.4
2016-Aug-23 23:27N 31°21' E 121°31'792.3
2016-Aug-23 23:23N 31°21' E 121°39'16293.7
2016-Aug-23 23:20N 31°30' E 121°23'1 6.4
2016-Aug-23 23:11N 31°31' E 121°23'13103.7
2016-Aug-23 23:04N 31°21' E 121°32'1120.6
2016-Aug-23 22:33N 31°29' E 121°25'2563.1
2016-Aug-23 22:33N 31°30' E 121°23'26966.4
2016-Aug-23 22:33N 31°30' E 121°25'967364.1
2016-Aug-23 22:32N 29°57' E 121°55'833927.2
2016-Aug-23 22:31N 31°18' E 121°33'12687.7
2016-Aug-23 22:30N 31°28' E 121°25'390.3
2016-Aug-23 22:28N 31°30' E 121°23'12429.4
2016-Aug-23 22:26N 31°21' E 121°32'6123.8
2016-Aug-23 22:23N 31°15' E 121°31'62443.9
2016-Aug-23 22:23N 31°21' E 121°31'121979.6
2016-Aug-23 22:23N 31°31' E 121°23'4808478.6
2016-Aug-23 22:19N 24°05' E 118°01'482625.9
2016-Aug-23 21:33N 31°33' E 121°19'17874.9
2016-Aug-23 21:32N 31°21' E 121°32'121473.1
2016-Aug-23 21:32N 31°30' E 121°23'151069.3
2016-Aug-23 21:31N 31°18' E 121°33'12461.2
2016-Aug-23 21:29N 31°28' E 121°25'9970.3
2016-Aug-23 21:29N 31°21' E 121°31'12368.9
2016-Aug-23 21:27N 31°31' E 121°23'17243.0
2016-Aug-23 21:22N 31°15' E 121°31'1580.4
2016-Aug-23 21:11N 31°29' E 121°25'1524.3
2016-Aug-23 20:33N 31°15' E 121°31'237026.9
2016-Aug-23 20:33N 31°35' E 121°17'7103.2
2016-Aug-23 20:29N 31°30' E 121°23'11717.4
2016-Aug-23 20:28N 31°21' E 121°31'30994.8
2016-Aug-23 20:26N 31°43' E 121°08'18678.9
2016-Aug-23 20:25N 31°31' E 121°23'16166.1
2016-Aug-23 20:19N 31°18' E 121°33'14436.2
2016-Aug-23 20:17N 31°29' E 121°25'118.9
2016-Aug-23 20:13N 31°28' E 121°25'15153.2
2016-Aug-23 20:07N 31°14' E 121°30'30698.0
2016-Aug-23 20:04N 31°40' E 121°13'2446.3
2016-Aug-23 19:33N 31°21' E 121°31'62197.4
2016-Aug-23 19:33N 31°15' E 121°31'151708.6
2016-Aug-23 19:33N 31°29' E 121°25'145039.2
2016-Aug-23 19:33N 31°39' E 121°13'14686.6
2016-Aug-23 19:31N 31°29' E 121°25'191392.0
2016-Aug-23 19:30N 31°42' E 121°09'171420.0
2016-Aug-23 19:30N 31°31' E 121°23'16437.0
2016-Aug-23 19:28N 31°18' E 121°34'61141.4
2016-Aug-23 19:27N 31°12' E 121°30'281673.4
2016-Aug-23 19:26N 31°37' E 121°15'25759.0
2016-Aug-23 19:24N 31°18' E 121°33'22299.0
2016-Aug-23 19:20N 31°35' E 121°18'23704.3
2016-Aug-23 19:18N 31°17' E 121°34'31207.9
2016-Aug-23 19:09N 31°41' E 121°10'48229405.0
2016-Aug-23 19:08N 24°07' E 118°08'414124141.0
2016-Aug-23 19:08N 29°47' E 122°32'1034090.9
2016-Aug-23 19:06N 31°18' E 121°34'826724.1
2016-Aug-23 19:05N 31°57' E 120°09'79148.0
2016-Aug-23 18:34N 31°21' E 121°31'2320625.4
2016-Aug-23 18:33N 31°39' E 121°15'131316.2
2016-Aug-23 18:33N 31°29' E 121°25'166208.5
2016-Aug-23 18:33N 31°15' E 121°31'2850696.5
2016-Aug-23 18:33N 31°39' E 121°13'47959465.5
2016-Aug-23 18:32N 24°09' E 118°06'477171698.8
2016-Aug-23 18:32N 31°35' E 121°19'221731.5
2016-Aug-23 18:31N 31°15' E 121°31'276448.0
2016-Aug-23 18:31N 31°38' E 121°15'2610308.1
2016-Aug-23 18:31N 31°18' E 121°33'6495.7
2016-Aug-23 18:30N 31°24' E 121°32'271522.5
2016-Aug-23 18:29N 31°42' E 121°09'1093230.1
2016-Aug-23 18:27N 29°57' E 121°42'8516086.0
2016-Aug-23 18:27N 31°21' E 121°31'121688.6
2016-Aug-23 18:26N 31°31' E 121°23'131749.2
2016-Aug-23 18:26N 31°21' E 121°32'2152.2
2016-Aug-23 18:25N 31°20' E 121°33'811152.4
2016-Aug-23 18:21N 31°57' E 120°09'70314.5
2016-Aug-23 18:08N 31°29' E 121°25'16745.5
2016-Aug-23 18:06N 31°14' E 121°29'17369.6
2016-Aug-23 18:04N 31°30' E 121°23'510.3
2016-Aug-23 17:34N 31°34' E 121°19'72860.4
2016-Aug-23 17:33N 31°39' E 121°13'713200.6
2016-Aug-23 17:33N 31°34' E 121°19'161520.7
2016-Aug-23 17:33N 31°21' E 121°30'7818645.0
2016-Aug-23 17:32N 31°57' E 120°09'5338234.3
2016-Aug-23 17:32N 31°42' E 121°09'272134.3
2016-Aug-23 17:32N 31°21' E 121°30'43745.4
2016-Aug-23 17:32N 31°18' E 121°33'3294.0
2016-Aug-23 17:31N 31°21' E 121°32'4185.6
2016-Aug-23 17:30N 31°22' E 121°37'1655953.7
2016-Aug-23 17:30N 31°31' E 121°23'123438.9
2016-Aug-23 17:29N 31°23' E 121°34'9211449.2
2016-Aug-23 17:29N 32°03' E 119°56'812331.7
2016-Aug-23 17:27N 31°30' E 121°23'16490.5
2016-Aug-23 17:25N 31°15' E 121°31'46519937.2
2016-Aug-23 17:23N 24°07' E 118°05'47621135.3
2016-Aug-23 17:22N 31°28' E 121°25'8412058.7
2016-Aug-23 17:22N 32°04' E 119°56'837848.1
2016-Aug-23 17:21N 31°29' E 121°25'0 0.8
2016-Aug-23 17:17N 31°29' E 121°25'5 7.5
2016-Aug-23 16:33N 31°32' E 121°19'5953.5
2016-Aug-23 16:33N 31°36' E 121°17'201701.7
2016-Aug-23 16:32N 31°21' E 121°31'1210722.9
2016-Aug-23 16:32N 31°31' E 121°24'8013100.3
2016-Aug-23 16:32N 32°02' E 119°57'9120410.7
2016-Aug-23 16:32N 31°21' E 121°32'8422.5
2016-Aug-23 16:31N 31°28' E 121°28'5233.2
2016-Aug-23 16:30N 31°24' E 121°31'91974.4
2016-Aug-23 16:29N 31°15' E 121°31'46725104.8
2016-Aug-23 16:28N 24°06' E 118°03'47613292.4
2016-Aug-23 16:26N 31°25' E 121°30'8116.4
2016-Aug-23 16:22N 31°30' E 121°23'125.3
2016-Aug-23 16:18N 31°29' E 121°25'116.4
2016-Aug-23 16:14N 31°28' E 121°25'120.1
2016-Aug-23 16:11N 31°29' E 121°25'6 9.0
2016-Aug-23 15:34N 31°32' E 121°19'1201.0
2016-Aug-23 15:33N 31°33' E 121°20'121342.3
2016-Aug-23 15:33N 31°26' E 121°31'813676.8
2016-Aug-23 15:33N 31°21' E 121°38'11560.3
2016-Aug-23 15:31N 31°28' E 121°28'823728.6
2016-Aug-23 15:30N 32°00' E 119°59'7919000.0
2016-Aug-23 15:30N 31°29' E 121°25'8266.4
2016-Aug-23 15:28N 31°23' E 121°30'9422.1
2016-Aug-23 15:27N 31°30' E 121°23'69925.2
2016-Aug-23 15:22N 31°57' E 120°09'701519.9
2016-Aug-23 15:20N 31°29' E 121°25'480123438.8
2016-Aug-23 15:19N 24°05' E 117°59'46914189.1
2016-Aug-23 15:17N 31°15' E 121°31'15142.2
2016-Aug-23 15:11N 31°29' E 121°25'6 9.0
2016-Aug-23 14:34N 31°32' E 121°19'5584.7
2016-Aug-23 14:33N 31°30' E 121°25'762515.6
2016-Aug-23 14:31N 31°58' E 120°02'834276.8
2016-Aug-23 14:30N 31°22' E 121°30'3301.3
2016-Aug-23 14:29N 31°26' E 121°30'3172.8
2016-Aug-23 14:28N 31°24' E 121°32'3282.8
2016-Aug-23 14:28N 31°25' E 121°30'10589.5
2016-Aug-23 14:27N 31°31' E 121°21'1128.5
2016-Aug-23 14:26N 31°32' E 121°21'14126.2
2016-Aug-23 14:20N 31°21' E 121°31'4446.0
2016-Aug-23 14:19N 31°18' E 121°33'14240.9
2016-Aug-23 14:16N 31°29' E 121°25'704954.4
2016-Aug-23 14:15N 31°57' E 120°09'69464.3
2016-Aug-23 14:06N 31°30' E 121°23'1659297.7
2016-Aug-23 14:06N 31°15' E 121°31'5 9.9
2016-Aug-23 13:33N 31°20' E 121°33'1715411.8
2016-Aug-23 13:33N 31°32' E 121°19'6860843.7
2016-Aug-23 13:33N 31°58' E 120°06'816204.8
2016-Aug-23 13:33N 31°21' E 121°31'61920.0
2016-Aug-23 13:32N 31°27' E 121°28'4201.0
2016-Aug-23 13:31N 31°29' E 121°25'11649.4
2016-Aug-23 13:30N 31°21' E 121°33'80143934.2
2016-Aug-23 13:30N 31°57' E 120°09'6911764.2
2016-Aug-23 13:30N 31°30' E 121°23'2306.5
2016-Aug-23 13:30N 31°29' E 121°25'0 2.7
2016-Aug-23 13:27N 31°29' E 121°25'11643.2
2016-Aug-23 13:26N 31°37' E 121°16'20140.0
2016-Aug-23 13:18N 31°21' E 121°31'1216.1
2016-Aug-23 12:34N 31°31' E 121°23'31934.2
2016-Aug-23 12:33N 31°32' E 121°19'6244763.9
2016-Aug-23 12:33N 31°56' E 120°12'639422.9
2016-Aug-23 12:33N 31°32' E 121°20'9442.4
2016-Aug-23 12:32N 31°39' E 121°13'277575.0
2016-Aug-23 12:32N 31°18' E 121°33'151152.7
2016-Aug-23 12:31N 31°30' E 121°23'814863.1
2016-Aug-23 12:30N 32°03' E 119°56'924557.2
2016-Aug-23 12:29N 31°21' E 121°33'3159.4
2016-Aug-23 12:27N 31°24' E 121°31'781766.2
2016-Aug-23 12:25N 31°57' E 120°09'781453.7
2016-Aug-23 12:21N 31°21' E 121°30'747.0
2016-Aug-23 12:13N 31°15' E 121°31'15238.9
2016-Aug-23 12:09N 31°29' E 121°25'195289.7
2016-Aug-23 12:09N 31°42' E 121°08'4576.5
2016-Aug-23 11:33N 31°58' E 120°18'5852107.8
2016-Aug-23 11:33N 31°32' E 121°19'1913612.6
2016-Aug-23 11:33N 31°22' E 121°38'91466.8
2016-Aug-23 11:33N 31°21' E 121°27'71924.4
2016-Aug-23 11:33N 31°15' E 121°31'169886.3
2016-Aug-23 11:33N 31°30' E 121°23'131328.1
2016-Aug-23 11:32N 31°21' E 121°33'7815553.3
2016-Aug-23 11:32N 30°40' E 122°50'8129030.7
2016-Aug-23 11:32N 31°25' E 121°32'273830.1
2016-Aug-23 11:31N 31°42' E 121°08'5510332.7
2016-Aug-23 11:31N 31°57' E 120°06'626569.0
2016-Aug-23 11:30N 31°37' E 121°15'11102.9
2016-Aug-23 11:24N 31°29' E 121°25'2119.7
2016-Aug-23 11:23N 31°31' E 121°23'12577.4
2016-Aug-23 11:21N 31°21' E 121°30'91079.5
2016-Aug-23 11:21N 31°29' E 121°25'5 6.9
2016-Aug-23 10:33N 31°32' E 121°19'106283.3
2016-Aug-23 10:33N 31°40' E 121°11'241304.7
2016-Aug-23 10:32N 31°22' E 121°30'2413.1
2016-Aug-23 10:32N 31°21' E 121°27'3244.3
2016-Aug-23 10:31N 31°21' E 121°30'11143.5
2016-Aug-23 10:27N 31°30' E 121°23'251.6
2016-Aug-23 10:25N 31°29' E 121°25'152595.9
2016-Aug-23 10:25N 31°15' E 121°31'672.0
2016-Aug-23 10:20N 31°21' E 121°31'434.8
2016-Aug-23 10:14N 31°18' E 121°33'1483.1
2016-Aug-23 10:04N 31°29' E 121°25'816.1
2016-Aug-23 09:33N 31°21' E 121°27'1322911.1
2016-Aug-23 09:33N 31°32' E 121°19'2010086.0
2016-Aug-23 09:33N 31°15' E 121°31'3496.3
2016-Aug-23 09:33N 31°17' E 121°34'0 0.2
2016-Aug-23 09:31N 31°17' E 121°34'4193.3
2016-Aug-23 09:29N 31°21' E 121°33'111242.6
2016-Aug-23 09:29N 31°29' E 121°25'481346033.4
2016-Aug-23 09:29N 24°05' E 117°58'48113966.6
2016-Aug-23 09:27N 31°30' E 121°23'1207.0
2016-Aug-23 09:26N 31°31' E 121°22'161310.9
2016-Aug-23 09:26N 31°18' E 121°33'6133.0
2016-Aug-23 09:23N 31°21' E 121°27'7969.1
2016-Aug-23 09:22N 31°22' E 121°36'589.3
2016-Aug-23 09:19N 31°21' E 121°30'19138.6
2016-Aug-23 09:11N 31°36' E 121°16'5 7.8
2016-Aug-23 08:33N 31°32' E 121°19'201088.5
2016-Aug-23 08:32N 31°15' E 121°31'6277.4
2016-Aug-23 08:31N 31°21' E 121°33'31000.8
2016-Aug-23 08:31N 31°23' E 121°34'11222.5
2016-Aug-23 08:28N 31°29' E 121°25'9197.9
2016-Aug-23 08:25N 31°21' E 121°30'122343.1
2016-Aug-23 08:25N 31°31' E 121°23'16310.5
2016-Aug-23 08:22N 31°42' E 121°09'261309.2
2016-Aug-23 08:21N 31°21' E 121°27'6567470.3
2016-Aug-23 08:15N 23°01' E 113°31'65667463.3
2016-Aug-23 08:15N 31°17' E 121°34'710.5
2016-Aug-23 07:34N 31°21' E 121°27'137655.0
2016-Aug-23 07:33N 31°32' E 121°19'1410340.3
2016-Aug-23 07:33N 31°21' E 121°30'622945.9
2016-Aug-23 07:33N 31°15' E 121°31'255713.1
2016-Aug-23 07:33N 31°37' E 121°16'11264.5
2016-Aug-23 07:31N 31°29' E 121°25'65929280.0
2016-Aug-23 07:29N 23°04' E 113°29'657337812.3
2016-Aug-23 07:29N 31°21' E 121°33'13408.6
2016-Aug-23 07:27N 31°30' E 121°23'1 9.7
2016-Aug-23 07:22N 31°31' E 121°23'18180.7
2016-Aug-23 07:16N 31°43' E 121°08'1927.1
2016-Aug-23 06:33N 31°31' E 121°25'660339456.8
2016-Aug-23 06:33N 23°04' E 113°29'656472373.4
2016-Aug-23 06:33N 31°22' E 121°30'247835.6
2016-Aug-23 06:33N 31°40' E 121°12'24792.3
2016-Aug-23 06:31N 31°21' E 121°31'4101.0
2016-Aug-23 06:29N 31°18' E 121°33'161002.4
2016-Aug-23 06:28N 31°31' E 121°23'10291.2
2016-Aug-23 06:26N 31°21' E 121°27'6236.7
2016-Aug-23 06:24N 31°23' E 121°34'61727.0
2016-Aug-23 06:24N 31°17' E 121°34'1571.6
2016-Aug-23 06:12N 31°29' E 121°25'0 1.2
2016-Aug-23 06:07N 31°29' E 121°25'7251.9
2016-Aug-23 06:05N 31°34' E 121°19'1427.2
2016-Aug-23 05:33N 31°23' E 121°30'177742.6
2016-Aug-23 05:33N 31°36' E 121°17'178931.9
2016-Aug-23 05:33N 31°23' E 121°30'1140777.8
2016-Aug-23 05:33N 31°32' E 121°22'264.5
2016-Aug-23 05:31N 31°30' E 121°23'1107.5
2016-Aug-23 05:30N 31°29' E 121°25'119543.9
2016-Aug-23 05:30N 31°23' E 121°34'13164.1
2016-Aug-23 05:25N 31°31' E 121°23'121493.7
2016-Aug-23 05:25N 31°21' E 121°30'2235.1
2016-Aug-23 05:24N 31°21' E 121°33'65716421.4
2016-Aug-23 05:22N 23°04' E 113°29'6581185198.8
2016-Aug-23 05:22N 31°29' E 121°25'1 0.9
2016-Aug-23 04:33N 31°29' E 121°25'6875.3
2016-Aug-23 04:33N 31°33' E 121°19'1046930.7
2016-Aug-23 04:32N 29°56' E 122°03'8826447.9
2016-Aug-23 04:32N 31°21' E 121°39'161385.6
2016-Aug-23 04:31N 31°30' E 121°23'65969749.9
2016-Aug-23 04:31N 23°04' E 113°29'657118228.0
2016-Aug-23 04:30N 31°21' E 121°33'31130.5
2016-Aug-23 04:30N 31°23' E 121°34'8353.0
2016-Aug-23 04:29N 31°15' E 121°31'101341.1
2016-Aug-23 04:28N 31°21' E 121°39'81011.2
2016-Aug-23 04:28N 31°21' E 121°30'9262.7
2016-Aug-23 04:26N 31°29' E 121°25'83278.9
2016-Aug-23 04:26N 31°21' E 121°27'4962259.9
2016-Aug-23 04:12N 39°04' E 117°49'594912.9
2016-Aug-23 03:33N 29°49' E 122°06'10373981.7
2016-Aug-23 03:33N 31°27' E 121°30'5635.2
2016-Aug-23 03:33N 31°29' E 121°25'11351.9
2016-Aug-23 03:31N 31°21' E 121°33'112631.4
2016-Aug-23 03:31N 31°29' E 121°25'65928573.6
2016-Aug-23 03:29N 23°04' E 113°29'656295270.9
2016-Aug-23 03:29N 31°21' E 121°30'81175.1
2016-Aug-23 03:29N 31°21' E 121°40'10812.5
2016-Aug-23 03:28N 31°21' E 121°27'634.5
2016-Aug-23 03:18N 31°23' E 121°34'69411147.0
2016-Aug-23 03:14N 22°07' E 113°49'1 2.0
2016-Aug-23 02:32N 22°09' E 113°49'69342987.6
2016-Aug-23 02:31N 31°25' E 121°32'168.0
2016-Aug-23 02:30N 31°24' E 121°31'827784.1
2016-Aug-23 02:30N 31°29' E 121°25'83283.5
2016-Aug-23 02:30N 31°21' E 121°27'4765051.3
2016-Aug-23 02:24N 24°04' E 117°57'90034849.5
2016-Aug-23 02:22N 39°04' E 117°51'497223852.8
2016-Aug-23 02:22N 31°21' E 121°33'111991.6
2016-Aug-23 02:22N 31°29' E 121°25'4576233.0
2016-Aug-23 02:18N 24°28' E 118°04'45452769.2
2016-Aug-23 02:17N 31°23' E 121°34'65914561.2
2016-Aug-23 02:14N 23°04' E 113°29'656214741.0
2016-Aug-23 02:14N 31°21' E 121°30'7212.8
2016-Aug-23 02:12N 31°21' E 121°39'531.0
2016-Aug-23 02:03N 31°23' E 121°34'4 7.1
2016-Aug-23 01:33N 31°23' E 121°30'31435.4
2016-Aug-23 01:33N 31°23' E 121°33'659395467.7
2016-Aug-23 01:33N 23°04' E 113°29'65822788.2
2016-Aug-23 01:31N 31°32' E 121°21'143049.2
2016-Aug-23 01:31N 31°23' E 121°34'113151.3
2016-Aug-23 01:31N 31°29' E 121°25'98346.5
2016-Aug-23 01:31N 31°21' E 121°30'11268.8
2016-Aug-23 01:28N 31°30' E 121°23'1288.6
2016-Aug-23 01:20N 31°21' E 121°33'436.9
2016-Aug-23 01:13N 31°21' E 121°27'1725.5
2016-Aug-23 00:32N 31°36' E 121°17'193939.5
2016-Aug-23 00:32N 31°21' E 121°30'3141.9
2016-Aug-23 00:31N 31°21' E 121°27'64029.1
2016-Aug-23 00:31N 31°19' E 121°34'14360.0
2016-Aug-23 00:29N 31°30' E 121°23'45810837.0
2016-Aug-23 00:26N 24°28' E 118°04'26510841.5
2016-Aug-23 00:25N 23°04' E 113°29'65653694.3
2016-Aug-23 00:24N 31°21' E 121°31'1003304.7
2016-Aug-23 00:22N 29°45' E 122°03'1011931.1
2016-Aug-23 00:19N 31°23' E 121°34'4308.8
2016-Aug-23 00:18N 31°22' E 121°30'8145.3
2016-Aug-23 00:15N 31°29' E 121°25'1622.1
2016-Aug-22 23:32N 31°40' E 121°11'222856.3
2016-Aug-22 23:32N 31°25' E 121°30'277.0
2016-Aug-22 23:30N 31°26' E 121°28'6233.7
2016-Aug-22 23:29N 31°30' E 121°23'153374.2
2016-Aug-22 23:28N 31°18' E 121°33'9036171.2
2016-Aug-22 23:28N 29°53' E 122°09'391117286.0
2016-Aug-22 23:28N 24°28' E 118°04'45136062.1
2016-Aug-22 23:27N 31°21' E 121°27'357.4
2016-Aug-22 23:24N 31°21' E 121°31'65620724.1
2016-Aug-22 23:22N 23°04' E 113°29'65916817.8
2016-Aug-22 23:20N 31°31' E 121°23'1 0.9
2016-Aug-22 22:33N 31°31' E 121°22'1579.8
2016-Aug-22 22:33N 31°32' E 121°21'10012835.5
2016-Aug-22 22:33N 29°57' E 121°59'616100726.8
2016-Aug-22 22:32N 23°04' E 113°29'656168725.1
2016-Aug-22 22:32N 31°21' E 121°30'111832.2
2016-Aug-22 22:32N 31°30' E 121°23'11229.8
2016-Aug-22 22:29N 31°21' E 121°31'12563.7
2016-Aug-22 22:28N 31°31' E 121°23'16893.8
2016-Aug-22 22:26N 31°18' E 121°33'1485.8
2016-Aug-22 22:17N 31°29' E 121°25'8551.2
2016-Aug-22 22:16N 31°21' E 121°27'1926.3
2016-Aug-22 21:33N 31°37' E 121°16'195.0
2016-Aug-22 21:33N 31°38' E 121°15'211307.1
2016-Aug-22 21:32N 31°21' E 121°31'3909.8
2016-Aug-22 21:31N 31°21' E 121°27'82976.7
2016-Aug-22 21:31N 31°29' E 121°25'133.8
2016-Aug-22 21:29N 31°30' E 121°23'161887.8
2016-Aug-22 21:28N 31°17' E 121°34'17702.5
2016-Aug-22 21:27N 31°31' E 121°23'1762235.7
2016-Aug-22 21:27N 31°15' E 121°31'494.7
2016-Aug-22 21:24N 31°18' E 121°33'4739246.4
2016-Aug-22 21:21N 24°04' E 118°02'47522786.9
2016-Aug-22 21:20N 31°21' E 121°30'662.4
2016-Aug-22 21:15N 31°17' E 121°34'3246.8
2016-Aug-22 20:33N 31°41' E 121°09'184242.5
2016-Aug-22 20:33N 31°29' E 121°25'153914.3
2016-Aug-22 20:33N 31°15' E 121°31'172053.0
2016-Aug-22 20:32N 31°30' E 121°23'171265.6
2016-Aug-22 20:31N 31°42' E 121°09'5400525401.9
2016-Aug-22 20:31N 48°27' W 123°18'5399396630.2
2016-Aug-22 20:30N 31°31' E 121°23'171219.6
2016-Aug-22 20:29N 31°17' E 121°34'113.8
2016-Aug-22 20:27N 31°18' E 121°33'65511621.9
2016-Aug-22 20:23N 23°04' E 113°29'6554070.5
2016-Aug-22 20:14N 31°17' E 121°34'5128.3
2016-Aug-22 20:11N 31°21' E 121°31'54008564.5
2016-Aug-22 19:33N 48°27' W 123°18'53992776485.6
2016-Aug-22 19:33N 31°31' E 121°23'101411.9
2016-Aug-22 19:33N 31°24' E 121°31'828138.7
2016-Aug-22 19:33N 31°29' E 121°25'1438.3
2016-Aug-22 19:33N 31°30' E 121°23'2717.9
2016-Aug-22 19:32N 31°30' E 121°25'65926658.5
2016-Aug-22 19:31N 23°04' E 113°29'65229322.6
2016-Aug-22 19:30N 31°15' E 121°31'28140.3
2016-Aug-22 19:18N 31°39' E 121°13'27187.3
2016-Aug-22 19:09N 31°18' E 121°33'224.8
2016-Aug-22 19:04N 31°20' E 121°33'539710594.8
2016-Aug-22 18:33N 48°24' W 123°22'53979714864.2
2016-Aug-22 18:33N 31°23' E 121°30'8676.5
2016-Aug-22 18:33N 31°15' E 121°31'17801.7
2016-Aug-22 18:31N 31°31' E 121°23'2100.2
2016-Aug-22 18:30N 31°29' E 121°25'1412313.6
2016-Aug-22 18:30N 31°18' E 121°33'65524835.6
2016-Aug-22 18:28N 23°04' E 113°29'66014656.8
2016-Aug-22 18:26N 31°35' E 121°18'681.2
2016-Aug-22 18:21N 31°30' E 121°23'1060.4
2016-Aug-22 18:11N 31°21' E 121°27'331.7
2016-Aug-22 18:06N 31°21' E 121°30'4106.6
2016-Aug-22 18:04N 31°18' E 121°34'4 7.2
2016-Aug-22 17:33N 31°21' E 121°31'4703.3
2016-Aug-22 17:32N 31°18' E 121°33'145472.7
2016-Aug-22 17:32N 31°29' E 121°25'152383.5
2016-Aug-22 17:32N 31°15' E 121°31'17975.2
2016-Aug-22 17:31N 31°31' E 121°23'127.3
2016-Aug-22 17:29N 31°30' E 121°23'10112.1
2016-Aug-22 17:24N 31°21' E 121°27'7 8.9
2016-Aug-22 16:34N 31°22' E 121°36'142732.0
2016-Aug-22 16:33N 31°31' E 121°23'10476.6
2016-Aug-22 16:32N 31°21' E 121°27'19877.3
2016-Aug-22 16:31N 31°37' E 121°16'10290.8
2016-Aug-22 16:29N 31°30' E 121°23'6127.7
2016-Aug-22 16:26N 31°27' E 121°29'445.8
2016-Aug-22 16:20N 31°29' E 121°25'6597774.7
2016-Aug-22 16:15N 23°04' E 113°29'6566768.6
2016-Aug-22 16:09N 31°21' E 121°30'0 0.1
2016-Aug-22 15:33N 31°21' E 121°30'65643742.6
2016-Aug-22 15:32N 23°04' E 113°29'65911401.3
2016-Aug-22 15:29N 31°30' E 121°23'10111.1
2016-Aug-22 15:24N 31°21' E 121°27'814883.4
2016-Aug-22 15:24N 31°29' E 121°25'892.7
2016-Aug-22 15:18N 31°35' E 121°18'151120.0
2016-Aug-22 15:18N 31°25' E 121°32'7166.6
2016-Aug-22 15:15N 31°18' E 121°33'694.3
2016-Aug-22 15:11N 31°24' E 121°32'1422.7
2016-Aug-22 14:33N 31°34' E 121°20'11502.3
2016-Aug-22 14:32N 31°27' E 121°29'4744148.3
2016-Aug-22 14:25N 24°09' E 118°05'4817941.7
2016-Aug-22 14:22N 31°56' E 120°11'744158.7
2016-Aug-22 14:21N 31°21' E 121°27'3153.7
2016-Aug-22 14:20N 31°21' E 121°30'712052.1
2016-Aug-22 14:17N 31°58' E 120°19'860.2
2016-Aug-22 14:10N 31°57' E 120°10'674188.9
2016-Aug-22 14:09N 31°30' E 121°23'0 0.8
2016-Aug-22 13:34N 31°30' E 121°23'66118782.7
2016-Aug-22 13:34N 31°56' E 120°12'64092216.3
2016-Aug-22 13:33N 23°04' E 113°29'660593692.7
2016-Aug-22 13:33N 31°25' E 121°32'76271930.4
2016-Aug-22 13:33N 31°56' E 120°11'63227862.2
2016-Aug-22 13:33N 31°31' E 121°19'627385.6
2016-Aug-22 13:33N 31°57' E 120°13'48434133.3
2016-Aug-22 13:32N 24°07' E 118°03'47222345.4
2016-Aug-22 13:30N 31°21' E 121°31'11878.5
2016-Aug-22 13:30N 31°30' E 121°23'1127.6
2016-Aug-22 13:29N 31°29' E 121°25'8396.5
2016-Aug-22 13:28N 31°21' E 121°27'761879.1
2016-Aug-22 13:25N 31°57' E 120°09'813052.0
2016-Aug-22 13:24N 31°23' E 121°35'4193.0
2016-Aug-22 13:23N 31°21' E 121°30'6139.2
2016-Aug-22 13:20N 31°15' E 121°31'871023.5
2016-Aug-22 13:15N 29°57' E 122°16'92134.5
2016-Aug-22 12:33N 31°21' E 121°31'415189.3
2016-Aug-22 12:33N 31°25' E 121°32'715412.9
2016-Aug-22 12:33N 31°58' E 120°18'828810.6
2016-Aug-22 12:33N 32°02' E 120°27'512986.1
2016-Aug-22 12:32N 31°35' E 121°18'81141.8
2016-Aug-22 12:31N 31°29' E 121°25'117.4
2016-Aug-22 12:26N 31°30' E 121°23'6910313.4
2016-Aug-22 12:26N 31°57' E 120°09'82841.7
2016-Aug-22 12:20N 31°18' E 121°33'6264.5
2016-Aug-22 12:19N 31°21' E 121°27'7293.1
2016-Aug-22 12:17N 31°15' E 121°31'65213404.4
2016-Aug-22 12:14N 23°04' E 113°29'65645425.7
2016-Aug-22 12:13N 31°21' E 121°30'1282.6
2016-Aug-22 12:05N 31°31' E 121°23'1222.6
2016-Aug-22 11:33N 31°39' E 121°13'4810061.3
2016-Aug-22 11:33N 32°02' E 120°23'601446.1
2016-Aug-22 11:31N 31°30' E 121°23'6035777.6
2016-Aug-22 11:31N 31°60' E 120°23'702682.6
2016-Aug-22 11:29N 31°21' E 121°31'4453.3
2016-Aug-22 11:29N 31°25' E 121°32'7388.0
2016-Aug-22 11:27N 31°18' E 121°33'51705.8
2016-Aug-22 11:27N 31°22' E 121°36'66043991.7
2016-Aug-22 11:26N 23°04' E 113°29'65239096.3
2016-Aug-22 11:25N 31°15' E 121°31'7251.6
2016-Aug-22 11:24N 31°21' E 121°27'681050.2
2016-Aug-22 11:20N 32°00' E 120°21'11253.6
2016-Aug-22 11:17N 31°57' E 120°09'781246.9
2016-Aug-22 11:13N 31°21' E 121°30'9134.5
2016-Aug-22 11:09N 31°29' E 121°25'78128.2
2016-Aug-22 10:33N 31°60' E 120°00'833452.1
2016-Aug-22 10:31N 31°26' E 121°30'4770.1
2016-Aug-22 10:31N 31°22' E 121°30'7815542.7
2016-Aug-22 10:31N 31°57' E 120°09'91140.9
2016-Aug-22 10:30N 31°58' E 120°20'6173120.6
2016-Aug-22 10:30N 31°30' E 121°23'9930.5
2016-Aug-22 10:30N 31°25' E 121°32'10313.5
2016-Aug-22 10:28N 31°31' E 121°23'659474282.7
2016-Aug-22 10:28N 23°04' E 113°29'659139622.3
2016-Aug-22 10:27N 31°43' E 121°07'34122529.5
2016-Aug-22 10:27N 31°18' E 121°33'711834.8
2016-Aug-22 10:25N 32°04' E 120°31'652099.1
2016-Aug-22 10:23N 31°21' E 121°27'8377.1
2016-Aug-22 10:22N 31°29' E 121°25'15341.2
2016-Aug-22 10:19N 31°15' E 121°31'652.2
2016-Aug-22 10:12N 31°21' E 121°30'856.6
2016-Aug-22 10:04N 31°21' E 121°39'611.1
2016-Aug-22 09:33N 31°18' E 121°33'65578652.8
2016-Aug-22 09:33N 23°03' E 113°30'640575873.6
2016-Aug-22 09:33N 31°57' E 120°08'713289.0
2016-Aug-22 09:32N 31°29' E 121°25'6415318.6
2016-Aug-22 09:31N 31°57' E 120°17'6211660.7
2016-Aug-22 09:31N 31°31' E 121°23'12613.2
2016-Aug-22 09:30N 31°21' E 121°30'377.3
2016-Aug-22 09:27N 31°23' E 121°34'142339.5
2016-Aug-22 09:27N 31°31' E 121°21'182690.2
2016-Aug-22 09:26N 31°15' E 121°31'7444.8
2016-Aug-22 09:25N 31°21' E 121°27'10377.1
2016-Aug-22 09:24N 31°30' E 121°23'9434.4
2016-Aug-22 09:23N 31°25' E 121°32'4355.4
2016-Aug-22 09:22N 31°21' E 121°31'792209.8
2016-Aug-22 09:20N 31°57' E 120°09'543032309.3
2016-Aug-22 09:10N 48°25' W 123°22'5396413346.7
2016-Aug-22 09:09N 31°41' E 121°11'5539138.8
2016-Aug-22 09:05N 23°21' E 116°43'842232.2
2016-Aug-22 09:03N 24°05' E 118°02'484966.3
2016-Aug-22 08:33N 31°38' E 121°15'5625322.7
2016-Aug-22 08:33N 31°56' E 120°12'7846854.2
2016-Aug-22 08:33N 31°15' E 121°31'658197351.8
2016-Aug-22 08:33N 22°55' E 113°30'66520110.8
2016-Aug-22 08:31N 31°23' E 121°32'7814060.3
2016-Aug-22 08:30N 31°57' E 120°09'776772.6
2016-Aug-22 08:30N 31°22' E 121°30'10734.4
2016-Aug-22 08:29N 31°30' E 121°23'116.9
2016-Aug-22 08:26N 31°31' E 121°22'12667.8
2016-Aug-22 08:24N 31°21' E 121°30'775343.4
2016-Aug-22 08:24N 31°56' E 120°10'81600.7
2016-Aug-22 08:16N 31°18' E 121°33'6108.0
2016-Aug-22 08:12N 31°21' E 121°27'540049589.1
2016-Aug-22 08:06N 48°25' W 123°23'53959980.1
2016-Aug-22 07:33N 31°32' E 121°22'6634158.0
2016-Aug-22 07:33N 31°56' E 120°10'759966.5
2016-Aug-22 07:33N 31°21' E 121°27'71778.0
2016-Aug-22 07:32N 31°15' E 121°31'17673.0
2016-Aug-22 07:31N 31°31' E 121°22'122338.2
2016-Aug-22 07:30N 31°21' E 121°30'5397164653.6
2016-Aug-22 07:28N 48°25' W 123°23'62022232801.3
2016-Aug-22 07:28N 22°53' E 113°20'68227590.9
2016-Aug-22 07:27N 31°31' E 121°39'12182.4
2016-Aug-22 07:23N 31°21' E 121°31'4681653.1
2016-Aug-22 07:06N 24°09' E 118°06'96175.8
2016-Aug-22 06:33N 23°24' E 116°33'545140221.0
2016-Aug-22 06:33N 31°21' E 121°31'172314.6
2016-Aug-22 06:32N 31°35' E 121°19'5707.5
2016-Aug-22 06:32N 31°31' E 121°22'668218492.1
2016-Aug-22 06:32N 22°55' E 113°27'668200421.8
2016-Aug-22 06:32N 31°25' E 121°31'8595.9
2016-Aug-22 06:31N 31°18' E 121°33'46544041.5
2016-Aug-22 06:30N 24°11' E 118°07'47941040.5
2016-Aug-22 06:29N 31°58' E 120°02'6140.9
2016-Aug-22 06:27N 31°57' E 120°09'701774.9
2016-Aug-22 06:25N 31°29' E 121°25'539355153.5
2016-Aug-22 06:19N 48°19' W 123°30'53921294110.9
2016-Aug-22 06:18N 31°24' E 121°32'419.3
2016-Aug-22 06:05N 31°21' E 121°27'713.1
2016-Aug-22 05:33N 31°15' E 121°31'540114387.7
2016-Aug-22 05:33N 23°21' E 116°40'540486022.4
2016-Aug-22 05:33N 31°15' E 121°30'84215.4
2016-Aug-22 05:33N 31°23' E 121°30'46655973.7
2016-Aug-22 05:32N 24°12' E 118°09'46592925.7
2016-Aug-22 05:32N 31°21' E 121°31'121744.1
2016-Aug-22 05:32N 31°30' E 121°23'1311435.7
2016-Aug-22 05:32N 31°20' E 121°33'14326.0
2016-Aug-22 05:29N 31°31' E 121°23'6651197050.4
2016-Aug-22 05:29N 22°55' E 113°30'646775535.9
2016-Aug-22 05:29N 31°58' E 120°06'54254882300.1
2016-Aug-22 05:29N 48°17' W 123°36'5394462300.6
2016-Aug-22 05:28N 31°21' E 121°27'8909.9
2016-Aug-22 05:28N 31°29' E 121°25'10611.5
2016-Aug-22 05:27N 31°21' E 121°31'7814810.0
2016-Aug-22 05:26N 31°57' E 120°09'798076.2
2016-Aug-22 05:26N 31°21' E 121°31'7710240.5
2016-Aug-22 05:25N 31°56' E 120°11'7624939.8
2016-Aug-22 05:25N 31°21' E 121°30'371.8
2016-Aug-22 05:23N 31°20' E 121°33'49920418.3
2016-Aug-22 05:21N 39°04' E 117°50'9481195.2
2016-Aug-22 04:33N 23°18' E 116°47'181217460.0
2016-Aug-22 04:33N 22°60' E 113°31'26328743.5
2016-Aug-22 04:33N 24°11' E 118°08'47823572.6
2016-Aug-22 04:32N 31°57' E 120°09'809343.5
2016-Aug-22 04:31N 31°20' E 121°33'53871491694.3
2016-Aug-22 04:31N 48°16' W 123°41'5386745720.4
2016-Aug-22 04:31N 31°30' E 121°23'6450.5
2016-Aug-22 04:30N 31°31' E 121°17'6224703.6
2016-Aug-22 04:30N 31°56' E 120°11'7429587.4
2016-Aug-22 04:29N 31°21' E 121°27'7489.6
2016-Aug-22 04:29N 31°15' E 121°31'149.2
2016-Aug-22 04:28N 31°15' E 121°31'5031809407.5
2016-Aug-22 04:28N 39°04' E 117°49'497255576.6
2016-Aug-22 04:28N 31°23' E 121°36'5242.1
2016-Aug-22 04:26N 31°21' E 121°31'10416.6
2016-Aug-22 04:25N 31°29' E 121°25'151163.0
2016-Aug-22 04:24N 31°21' E 121°39'172756.8
2016-Aug-22 04:24N 31°31' E 121°23'1488.8
2016-Aug-22 04:14N 31°20' E 121°33'37369.8
2016-Aug-22 04:08N 31°46' E 121°04'4686576.1
2016-Aug-22 04:04N 39°05' E 117°45'445857.7
2016-Aug-22 03:33N 31°57' E 120°14'6422312493.2
2016-Aug-22 03:33N 23°04' E 113°29'26272542.5
2016-Aug-22 03:33N 24°10' E 118°06'47448714.6
2016-Aug-22 03:32N 31°29' E 121°25'8503.6
2016-Aug-22 03:31N 31°21' E 121°27'7371.8
2016-Aug-22 03:30N 31°15' E 121°31'197795.7
2016-Aug-22 03:30N 31°31' E 121°17'6179.4
2016-Aug-22 03:28N 31°30' E 121°23'141841.8
2016-Aug-22 03:27N 31°41' E 121°13'25715.2
2016-Aug-22 03:25N 31°21' E 121°31'49742628.9
2016-Aug-22 03:25N 39°04' E 117°49'498199014.5
2016-Aug-22 03:24N 31°21' E 121°31'5755115097.5
2016-Aug-22 03:21N 37°47' W 122°16'5798166983.7
2016-Aug-22 03:19N 31°56' E 120°11'57957583.3
2016-Aug-22 02:33N 37°48' W 122°19'57882976459.3
2016-Aug-22 02:33N 31°58' E 120°18'48587284.6
2016-Aug-22 02:33N 24°08' E 118°05'476171193.8
2016-Aug-22 02:33N 31°29' E 121°25'76176.7
2016-Aug-22 02:33N 31°31' E 121°17'147109.8
2016-Aug-22 02:33N 31°22' E 121°30'272671.7
2016-Aug-22 02:32N 31°42' E 121°09'47133883.7
2016-Aug-22 02:31N 39°04' E 117°51'44256800.6
2016-Aug-22 02:31N 31°57' E 120°09'6924733.5
2016-Aug-22 02:31N 31°30' E 121°23'6711484.8
2016-Aug-22 02:30N 31°56' E 120°11'7453259.3
2016-Aug-22 02:30N 31°21' E 121°27'66968834.1
2016-Aug-22 02:30N 22°19' E 114°09'61313.4
2016-Aug-22 02:18N 23°06' E 113°27'65628466.1
2016-Aug-22 02:17N 31°21' E 121°31'035.1
2016-Aug-22 02:16N 31°21' E 121°31'84976.7
2016-Aug-22 02:11N 31°58' E 120°02'483763.6
2016-Aug-22 01:33N 24°07' E 118°05'242290956.4
2016-Aug-22 01:33N 22°19' E 114°09'6711207933.4
2016-Aug-22 01:33N 31°31' E 121°17'575310355171.1
2016-Aug-22 01:33N 37°49' W 122°24'57501881973.1
2016-Aug-22 01:32N 31°40' E 121°12'243134.8
2016-Aug-22 01:32N 31°24' E 121°32'7083862.6
2016-Aug-22 01:32N 32°01' E 120°22'738493.4
2016-Aug-22 01:31N 31°23' E 121°35'1367.5
2016-Aug-22 01:31N 31°22' E 121°36'8211314.1
2016-Aug-22 01:31N 31°57' E 120°09'694756.4
2016-Aug-22 01:30N 31°30' E 121°23'65979072.7
2016-Aug-22 01:29N 23°06' E 113°27'65981801.6
2016-Aug-22 01:29N 31°29' E 121°25'683330.7
2016-Aug-22 01:28N 31°56' E 120°11'771590.2
2016-Aug-22 01:25N 31°21' E 121°31'375.6
2016-Aug-22 01:22N 31°21' E 121°27'373.5
2016-Aug-22 01:20N 31°21' E 121°30'80869.6
2016-Aug-22 01:15N 31°58' E 120°07'3 4.6
2016-Aug-22 00:34N 31°57' E 120°10'58105254.3
2016-Aug-22 00:33N 31°38' E 121°15'224852.7
2016-Aug-22 00:33N 31°21' E 121°31'11108.9
2016-Aug-22 00:33N 31°21' E 121°32'161554.0
2016-Aug-22 00:33N 31°31' E 121°17'477132180.8
2016-Aug-22 00:32N 24°05' E 118°03'62031395698.9
2016-Aug-22 00:32N 37°52' W 122°27'5746766163.2
2016-Aug-22 00:32N 31°21' E 121°27'101910.6
2016-Aug-22 00:31N 31°30' E 121°23'113305.3
2016-Aug-22 00:31N 31°21' E 121°31'2195.0
2016-Aug-22 00:31N 31°22' E 121°29'7520732.6
2016-Aug-22 00:30N 31°56' E 120°11'65232528.1
2016-Aug-22 00:30N 31°32' E 121°21'67410643.0
2016-Aug-22 00:27N 22°19' E 114°09'61972.8
2016-Aug-22 00:23N 23°06' E 113°27'65935943.1
2016-Aug-22 00:22N 31°29' E 121°25'9400.0
2016-Aug-22 00:20N 31°21' E 121°30'7817521.8
2016-Aug-22 00:20N 31°57' E 120°09'538726895.2
2016-Aug-22 00:08N 48°20' W 124°23'53539189.9
2016-Aug-21 23:33N 31°31' E 121°22'626788.7
2016-Aug-21 23:33N 31°57' E 120°16'5377339575.6
2016-Aug-21 23:32N 48°22' W 124°28'5347337728.3
2016-Aug-21 23:31N 31°35' E 121°19'5236.1
2016-Aug-21 23:30N 31°31' E 121°17'65533229.0
2016-Aug-21 23:28N 23°06' E 113°27'64026497.4
2016-Aug-21 23:27N 31°56' E 120°11'661113394.8
2016-Aug-21 23:27N 22°19' E 114°09'66943803.2
2016-Aug-21 23:26N 31°21' E 121°27'10324.4
2016-Aug-21 23:24N 31°30' E 121°23'124.1
2016-Aug-21 23:20N 31°29' E 121°25'10352.9
2016-Aug-21 23:18N 31°21' E 121°31'795542.9
2016-Aug-21 23:18N 31°57' E 120°09'78878.4
2016-Aug-21 23:12N 31°21' E 121°30'122.7
2016-Aug-21 23:09N 31°22' E 121°29'7120.4
2016-Aug-21 23:05N 31°15' E 121°31'713.6
2016-Aug-21 22:33N 31°22' E 121°29'53412403362.3
2016-Aug-21 22:33N 48°25' W 124°38'533919221953.6
2016-Aug-21 22:33N 31°34' E 121°18'41440.4
2016-Aug-21 22:33N 31°32' E 121°23'6010722.3
2016-Aug-21 22:33N 31°60' E 120°21'7529865.7
2016-Aug-21 22:32N 31°18' E 121°33'670803577.3
2016-Aug-21 22:32N 22°19' E 114°09'66924583.6
2016-Aug-21 22:31N 31°21' E 121°27'474569357.2
2016-Aug-21 22:31N 24°04' E 118°01'487159227.8
2016-Aug-21 22:31N 31°57' E 120°09'7011452.6
2016-Aug-21 22:30N 31°29' E 121°25'1385.4
2016-Aug-21 22:30N 31°30' E 121°23'679667.5
2016-Aug-21 22:30N 31°56' E 120°11'64021342.8
2016-Aug-21 22:28N 23°06' E 113°27'6127.3
2016-Aug-21 22:25N 23°02' E 113°22'6588079.0
2016-Aug-21 22:20N 31°15' E 121°31'6612.2
2016-Aug-21 22:20N 31°21' E 121°30'0 4.2
2016-Aug-21 22:17N 31°21' E 121°30'147.5
2016-Aug-21 22:16N 31°21' E 121°31'57457979.1
2016-Aug-21 21:33N 37°52' W 122°25'62431021651.7
2016-Aug-21 21:33N 23°43' E 117°35'514369809.8
2016-Aug-21 21:33N 31°38' E 121°15'122524.6
2016-Aug-21 21:32N 31°29' E 121°25'66020847.8
2016-Aug-21 21:31N 23°05' E 113°26'612760.4
2016-Aug-21 21:29N 22°19' E 114°09'67177909.8
2016-Aug-21 21:29N 31°21' E 121°31'693675.6
2016-Aug-21 21:28N 32°04' E 120°27'614901.1
2016-Aug-21 21:27N 31°28' E 121°25'1412563.8
2016-Aug-21 21:27N 31°15' E 121°31'17470.7
2016-Aug-21 21:25N 31°31' E 121°23'661864.5
2016-Aug-21 21:22N 31°56' E 120°11'676714.0
2016-Aug-21 21:22N 31°30' E 121°23'65959302.9
2016-Aug-21 21:21N 23°06' E 113°27'65616739.4
2016-Aug-21 21:19N 31°18' E 121°33'490.4
2016-Aug-21 21:16N 31°21' E 121°30'4724250.1
2016-Aug-21 21:09N 24°06' E 118°03'483799.8
2016-Aug-21 20:33N 31°40' E 121°12'482102023.2
2016-Aug-21 20:33N 24°08' E 118°04'6206797925.1
2016-Aug-21 20:32N 37°48' W 122°22'5750940918.1
2016-Aug-21 20:32N 31°31' E 121°22'46561.6
2016-Aug-21 20:32N 31°28' E 121°25'8856.3
2016-Aug-21 20:31N 31°21' E 121°30'91294.6
2016-Aug-21 20:31N 31°29' E 121°25'681892.9
2016-Aug-21 20:29N 31°56' E 120°11'64018895.1
2016-Aug-21 20:27N 23°06' E 113°27'6238.7
2016-Aug-21 20:25N 23°01' E 113°31'660108046.1
2016-Aug-21 20:25N 31°30' E 121°23'1576.8
2016-Aug-21 20:13N 31°18' E 121°33'439.7
2016-Aug-21 20:06N 31°21' E 121°30'119.7
2016-Aug-21 20:04N 31°21' E 121°31'79153.4
2016-Aug-21 19:33N 30°40' E 122°50'469241442.3
2016-Aug-21 19:33N 24°07' E 118°01'6210859887.2
2016-Aug-21 19:33N 37°48' W 122°21'5751197192.6
2016-Aug-21 19:31N 31°31' E 121°22'175.1
2016-Aug-21 19:30N 31°30' E 121°23'3138.5
2016-Aug-21 19:29N 31°28' E 121°25'11120.4
2016-Aug-21 19:24N 31°20' E 121°33'251.0
2016-Aug-21 19:21N 31°21' E 121°31'62418.7
2016-Aug-21 19:21N 31°15' E 121°31'66635780.1
2016-Aug-21 19:20N 22°19' E 114°09'6116914.7
2016-Aug-21 19:20N 23°06' E 113°27'64014683.7
2016-Aug-21 19:17N 31°56' E 120°11'6822354.3
2016-Aug-21 19:17N 31°29' E 121°25'14192.5
2016-Aug-21 19:13N 31°18' E 121°33'61308.3
2016-Aug-21 19:13N 31°21' E 121°27'25311.5
2016-Aug-21 19:08N 31°41' E 121°10'575810033.2
2016-Aug-21 18:33N 37°48' W 122°17'57581727495.4
2016-Aug-21 18:33N 31°41' E 121°09'322098.6
2016-Aug-21 18:32N 31°15' E 121°31'91023.4
2016-Aug-21 18:32N 31°23' E 121°34'10597.9
2016-Aug-21 18:31N 31°29' E 121°25'2583.9
2016-Aug-21 18:31N 31°31' E 121°22'12726.3
2016-Aug-21 18:30N 31°21' E 121°30'8510.8
2016-Aug-21 18:29N 31°28' E 121°25'692901.8
2016-Aug-21 18:27N 31°56' E 120°11'743096.4
2016-Aug-21 18:26N 31°21' E 121°27'368.1
2016-Aug-21 18:23N 31°21' E 121°31'7810447.3
2016-Aug-21 18:23N 31°57' E 120°09'64014673.4
2016-Aug-21 18:20N 23°06' E 113°27'65918388.2
2016-Aug-21 18:18N 31°30' E 121°23'3 3.7
2016-Aug-21 17:33N 31°28' E 121°25'219385.7
2016-Aug-21 17:33N 31°43' E 121°08'182701.5
2016-Aug-21 17:33N 31°30' E 121°23'111780.6
2016-Aug-21 17:33N 31°21' E 121°30'12638.5
2016-Aug-21 17:31N 31°31' E 121°22'162624.2
2016-Aug-21 17:31N 31°18' E 121°33'264011.2
2016-Aug-21 17:31N 31°38' E 121°15'221715.4
2016-Aug-21 17:30N 31°21' E 121°31'11302.1
2016-Aug-21 17:28N 31°30' E 121°23'671391.7
2016-Aug-21 17:25N 31°56' E 120°11'803254.1
2016-Aug-21 17:23N 31°15' E 121°31'15883.9
2016-Aug-21 17:22N 31°29' E 121°25'67418812.7
2016-Aug-21 17:20N 22°19' E 114°09'613012.2
2016-Aug-21 17:19N 23°06' E 113°27'236990.6
2016-Aug-21 17:05N 23°48' E 117°39'505966.7
2016-Aug-21 16:33N 31°34' E 121°20'6322658.7
2016-Aug-21 16:33N 31°56' E 120°11'797724.7
2016-Aug-21 16:32N 31°20' E 121°33'8111632.0
2016-Aug-21 16:32N 31°57' E 120°09'752009.5
2016-Aug-21 16:30N 31°21' E 121°27'6557251.5
2016-Aug-21 16:24N 23°06' E 113°27'61849419.0
2016-Aug-21 16:24N 30°03' E 121°56'8273472.4
2016-Aug-21 16:24N 31°21' E 121°30'023.1
2016-Aug-21 16:23N 31°21' E 121°30'156633.3
2016-Aug-21 16:23N 31°31' E 121°17'71736.2
2016-Aug-21 16:23N 31°29' E 121°25'188.5
2016-Aug-21 16:22N 31°28' E 121°25'4317.7
2016-Aug-21 16:22N 31°31' E 121°22'133.0
2016-Aug-21 16:20N 31°30' E 121°23'683327.4
2016-Aug-21 16:19N 31°57' E 120°09'7092.1
2016-Aug-21 15:33N 31°30' E 121°25'666251.0
2016-Aug-21 15:33N 31°57' E 120°14'7911804.4
2016-Aug-21 15:32N 31°22' E 121°37'3374.1
2016-Aug-21 15:32N 31°23' E 121°34'7828025.1
2016-Aug-21 15:32N 31°56' E 120°11'672460.9
2016-Aug-21 15:30N 31°30' E 121°23'659790726.7
2016-Aug-21 15:30N 23°06' E 113°27'65560493.8
2016-Aug-21 15:29N 31°31' E 121°17'1311582.2
2016-Aug-21 15:29N 31°21' E 121°27'83301.6
2016-Aug-21 15:29N 31°29' E 121°25'92074.9
2016-Aug-21 15:29N 31°21' E 121°30'1147.0
2016-Aug-21 15:29N 31°21' E 121°31'67115482.2
2016-Aug-21 15:26N 22°19' E 114°09'67053572.2
2016-Aug-21 15:25N 31°18' E 121°33'281451.2
2016-Aug-21 15:24N 31°40' E 121°13'16433.4
2016-Aug-21 15:22N 31°28' E 121°25'981957.3
2016-Aug-21 15:19N 29°56' E 122°04'842451.8
2016-Aug-21 15:17N 31°15' E 121°31'781461.0
2016-Aug-21 15:14N 31°56' E 120°13'74637.0
2016-Aug-21 15:07N 31°21' E 121°30'2137.0
2016-Aug-21 14:33N 31°38' E 121°16'7628.4
2016-Aug-21 14:32N 31°31' E 121°17'5510.2
2016-Aug-21 14:32N 31°30' E 121°23'674231.2
2016-Aug-21 14:31N 31°56' E 120°11'1449749.2
2016-Aug-21 14:30N 29°59' E 121°48'191061.5
2016-Aug-21 14:29N 29°51' E 122°07'1585697.0
2016-Aug-21 14:27N 31°58' E 120°18'671075.5
2016-Aug-21 14:23N 31°28' E 121°28'380.6
2016-Aug-21 14:21N 31°28' E 121°25'12354.2
2016-Aug-21 14:19N 31°18' E 121°33'80617.1
2016-Aug-21 14:12N 31°55' E 120°10'771866.8
2016-Aug-21 14:09N 31°21' E 121°31'102704.7
2016-Aug-21 14:09N 31°29' E 121°25'711.9
2016-Aug-21 13:33N 31°34' E 121°19'71264.7
2016-Aug-21 13:33N 31°29' E 121°25'6822392.0
2016-Aug-21 13:33N 31°56' E 120°11'6111637.6
2016-Aug-21 13:32N 31°34' E 121°18'9326.9
2016-Aug-21 13:31N 31°28' E 121°25'693418.9
2016-Aug-21 13:30N 31°55' E 120°10'6760313.8
2016-Aug-21 13:30N 31°30' E 121°23'77895.5
2016-Aug-21 13:30N 31°26' E 121°29'65950453.9
2016-Aug-21 13:29N 23°06' E 113°27'6557935.1
2016-Aug-21 13:24N 31°21' E 121°27'3185.0
2016-Aug-21 13:23N 31°21' E 121°31'466.6
2016-Aug-21 13:19N 31°18' E 121°33'5181.6
2016-Aug-21 13:18N 31°21' E 121°38'67510514.2
2016-Aug-21 13:14N 22°19' E 114°09'676998.4
2016-Aug-21 12:33N 31°40' E 121°12'2421276.8
2016-Aug-21 12:33N 31°24' E 121°32'7827999.9
2016-Aug-21 12:33N 31°57' E 120°09'66118991.6
2016-Aug-21 12:33N 31°32' E 121°21'1828.7
2016-Aug-21 12:33N 31°32' E 121°23'480107897.0
2016-Aug-21 12:33N 24°07' E 117°59'41833417.0
2016-Aug-21 12:32N 29°57' E 122°15'1033068.3
2016-Aug-21 12:30N 31°30' E 121°23'3279.0
2016-Aug-21 12:29N 31°28' E 121°25'67457735.9
2016-Aug-21 12:28N 22°19' E 114°09'6116912.1
2016-Aug-21 12:28N 23°06' E 113°27'65613128.2
2016-Aug-21 12:25N 31°21' E 121°30'761682.9
2016-Aug-21 12:23N 31°56' E 120°11'74473.3
2016-Aug-21 12:13N 31°21' E 121°27'131009.8
2016-Aug-21 12:12N 31°31' E 121°17'6295.3
2016-Aug-21 11:33N 31°56' E 120°11'7716396.0
2016-Aug-21 11:33N 31°23' E 121°33'54588.7
2016-Aug-21 11:33N 31°18' E 121°34'465239120.2
2016-Aug-21 11:33N 24°12' E 118°04'47280941.4
2016-Aug-21 11:33N 31°31' E 121°20'10554194.2
2016-Aug-21 11:33N 29°57' E 122°15'9417736.4
2016-Aug-21 11:32N 31°21' E 121°27'7749.9
2016-Aug-21 11:32N 31°28' E 121°25'9339.8
2016-Aug-21 11:30N 31°21' E 121°31'11621.4
2016-Aug-21 11:29N 31°30' E 121°23'9349.5
2016-Aug-21 11:28N 31°37' E 121°16'594520.8
2016-Aug-21 11:27N 31°56' E 120°11'80713.3
2016-Aug-21 11:20N 31°15' E 121°31'66688786.5
2016-Aug-21 11:20N 22°19' E 114°09'102316085.2
2016-Aug-21 11:16N 39°05' E 117°46'500112494.1
2016-Aug-21 11:16N 31°22' E 121°37'6611188997.6
2016-Aug-21 11:16N 23°06' E 113°27'659942.8
2016-Aug-21 10:34N 31°36' E 121°16'470141046.4
2016-Aug-21 10:33N 24°16' E 118°10'47238642.8
2016-Aug-21 10:33N 31°40' E 121°11'28968.3
2016-Aug-21 10:31N 31°20' E 121°33'9064765.1
2016-Aug-21 10:31N 29°57' E 122°15'16028758.8
2016-Aug-21 10:30N 31°56' E 120°11'74133381.1
2016-Aug-21 10:30N 31°21' E 121°28'3727.6
2016-Aug-21 10:30N 31°23' E 121°31'7165.1
2016-Aug-21 10:28N 31°28' E 121°25'9552.2
2016-Aug-21 10:27N 31°21' E 121°31'778935.5
2016-Aug-21 10:26N 31°56' E 120°11'44314232.8
2016-Aug-21 10:24N 39°04' E 117°50'50269572.7
2016-Aug-21 10:24N 31°15' E 121°31'10315.6
2016-Aug-21 10:22N 31°25' E 121°31'659237305.6
2016-Aug-21 10:22N 23°06' E 113°27'25453866.2
2016-Aug-21 10:22N 20°02' E 110°18'91334586.0
2016-Aug-21 10:20N 31°30' E 121°23'48817582.2
2016-Aug-21 10:18N 39°05' E 117°45'488644.0
2016-Aug-21 09:33N 31°30' E 121°23'32371.1
2016-Aug-21 09:33N 31°28' E 121°25'1864521.2
2016-Aug-21 09:33N 31°41' E 121°10'241093.3
2016-Aug-21 09:32N 31°21' E 121°28'6692409605.4
2016-Aug-21 09:32N 22°19' E 114°09'25565566.0
2016-Aug-21 09:31N 20°02' E 110°18'90618745.4
2016-Aug-21 09:28N 31°15' E 121°31'6476.0
2016-Aug-21 09:28N 31°21' E 121°30'656787292.9
2016-Aug-21 09:28N 23°06' E 113°27'2765987.4
2016-Aug-21 09:25N 24°20' E 118°18'46719118.1
2016-Aug-21 09:23N 31°56' E 120°11'4435867.2
2016-Aug-21 09:19N 39°05' E 117°51'4863672.6
2016-Aug-21 09:11N 31°31' E 121°23'664110.9
2016-Aug-21 09:10N 31°56' E 120°11'5183.5
2016-Aug-21 08:33N 31°43' E 121°08'66091323.9
2016-Aug-21 08:33N 23°06' E 113°27'658182277.2
2016-Aug-21 08:33N 31°28' E 121°25'693571.3
2016-Aug-21 08:32N 31°56' E 120°11'76137564.1
2016-Aug-21 08:32N 31°21' E 121°31'671603784.1
2016-Aug-21 08:32N 22°19' E 114°09'66670507.4
2016-Aug-21 08:31N 31°15' E 121°31'793367.4
2016-Aug-21 08:30N 31°56' E 120°12'732190.6
2016-Aug-21 08:28N 31°22' E 121°28'45080975.8
2016-Aug-21 08:27N 24°22' E 118°25'45744431.3
2016-Aug-21 08:27N 31°30' E 121°23'1108.0
2016-Aug-21 08:26N 31°31' E 121°22'139.9
2016-Aug-21 08:25N 31°30' E 121°23'1585.6
2016-Aug-21 08:14N 31°18' E 121°33'443650.9
2016-Aug-21 07:33N 24°25' E 118°31'44750268.4
2016-Aug-21 07:33N 31°23' E 121°30'749892.4
2016-Aug-21 07:32N 31°56' E 120°12'754509.4
2016-Aug-21 07:31N 31°21' E 121°30'4148.4
2016-Aug-21 07:29N 31°18' E 121°33'1658242.8
2016-Aug-21 07:29N 31°31' E 121°22'4454.2
2016-Aug-21 07:29N 31°28' E 121°25'147185.1
2016-Aug-21 07:29N 31°15' E 121°31'66657076.6
2016-Aug-21 07:28N 22°19' E 114°09'66912955.9
2016-Aug-21 07:25N 31°60' E 120°22'10400.1
2016-Aug-21 07:23N 31°56' E 120°11'7318812.3
2016-Aug-21 07:23N 31°26' E 121°29'28101681.7
2016-Aug-21 07:23N 31°45' E 121°04'222104.2
2016-Aug-21 07:23N 31°30' E 121°23'65917569.0
2016-Aug-21 07:20N 23°06' E 113°27'98423160.0
2016-Aug-21 07:18N 39°05' E 117°46'5024019.1
2016-Aug-21 07:10N 31°18' E 121°33'466.2
2016-Aug-21 07:07N 31°21' E 121°31'72129.6
2016-Aug-21 06:33N 31°57' E 120°17'615657.8
2016-Aug-21 06:33N 31°31' E 121°22'485109180.3
2016-Aug-21 06:32N 39°04' E 117°50'443319281.8
2016-Aug-21 06:32N 31°56' E 120°12'7921898.3
2016-Aug-21 06:32N 31°18' E 121°33'656131114.5
2016-Aug-21 06:32N 23°06' E 113°27'659182447.4
2016-Aug-21 06:32N 31°30' E 121°23'17254.6
2016-Aug-21 06:28N 31°15' E 121°31'6373.0
2016-Aug-21 06:27N 31°21' E 121°31'014.1
2016-Aug-21 06:25N 31°21' E 121°31'671603684.6
2016-Aug-21 06:25N 22°19' E 114°09'67335123.5
2016-Aug-21 06:24N 31°26' E 121°29'42820.5
2016-Aug-21 06:24N 31°28' E 121°25'24503.3
2016-Aug-21 06:21N 31°45' E 121°04'37454.7
2016-Aug-21 06:16N 31°18' E 121°33'5024016.0
2016-Aug-21 06:09N 23°44' E 117°32'516854.6
2016-Aug-21 05:33N 31°45' E 121°04'295854.9
2016-Aug-21 05:32N 31°26' E 121°30'1151.9
2016-Aug-21 05:32N 31°26' E 121°29'67389759.5
2016-Aug-21 05:31N 22°19' E 114°09'6154896.8
2016-Aug-21 05:31N 23°06' E 113°27'659395136.9
2016-Aug-21 05:31N 31°24' E 121°31'49529205.8
2016-Aug-21 05:30N 39°04' E 117°48'486194332.7
2016-Aug-21 05:30N 31°31' E 121°22'1239.3
2016-Aug-21 05:30N 31°30' E 121°23'679256.9
2016-Aug-21 05:29N 31°55' E 120°10'6910391.6
2016-Aug-21 05:29N 31°28' E 121°25'121488.3
2016-Aug-21 05:28N 31°18' E 121°33'016.1
2016-Aug-21 05:28N 31°18' E 121°33'813085.8
2016-Aug-21 05:26N 31°56' E 120°09'529282479.7
2016-Aug-21 05:22N 47°28' W 126°60'52633157727.8
2016-Aug-21 05:22N 31°15' E 121°31'465569.0
2016-Aug-21 04:33N 24°08' E 118°03'47368121.5
2016-Aug-21 04:33N 31°24' E 121°31'73987.8
2016-Aug-21 04:33N 31°28' E 121°25'142010.2
2016-Aug-21 04:32N 31°15' E 121°31'7551.7
2016-Aug-21 04:32N 31°22' E 121°30'162020.3
2016-Aug-21 04:31N 31°35' E 121°18'13328.8
2016-Aug-21 04:29N 31°26' E 121°29'92588.5
2016-Aug-21 04:28N 31°18' E 121°33'826012.9
2016-Aug-21 04:28N 29°58' E 121°56'15425265.1
2016-Aug-21 04:27N 31°58' E 120°02'439112951.2
2016-Aug-21 04:27N 39°04' E 117°51'44393809.3
2016-Aug-21 04:27N 31°56' E 120°12'792591.1
2016-Aug-21 04:25N 31°18' E 121°33'15845.5
2016-Aug-21 04:24N 31°30' E 121°23'1253.5
2016-Aug-21 04:24N 31°31' E 121°22'6137.8
2016-Aug-21 04:21N 31°27' E 121°28'673846.1
2016-Aug-21 03:33N 22°19' E 114°09'30072094.3
2016-Aug-21 03:33N 24°46' E 118°54'41332311.8
2016-Aug-21 03:32N 31°15' E 121°31'194010.0
2016-Aug-21 03:32N 31°31' E 121°19'10713.5
2016-Aug-21 03:31N 31°26' E 121°29'4783.5
2016-Aug-21 03:31N 31°28' E 121°25'10015027.7
2016-Aug-21 03:30N 29°55' E 122°08'1026044.6
2016-Aug-21 03:29N 31°30' E 121°23'058.7
2016-Aug-21 03:29N 31°30' E 121°23'6592372107.6
2016-Aug-21 03:29N 23°06' E 113°27'6566146.3
2016-Aug-21 03:23N 31°18' E 121°33'220.9
2016-Aug-21 03:16N 31°16' E 121°33'409569.8
2016-Aug-21 02:33N 24°50' E 118°60'41621382.5
2016-Aug-21 02:32N 31°24' E 121°31'67356324.1
2016-Aug-21 02:31N 22°19' E 114°09'67433691.5
2016-Aug-21 02:30N 31°30' E 121°23'31354.9
2016-Aug-21 02:30N 31°28' E 121°25'41176.4
2016-Aug-21 02:30N 31°26' E 121°29'6585461.7
2016-Aug-21 02:22N 23°06' E 113°27'6566861.0
2016-Aug-21 02:17N 31°18' E 121°33'739.7
2016-Aug-21 02:07N 31°24' E 121°31'411745.1
2016-Aug-21 01:33N 24°55' E 119°04'31241645.5
2016-Aug-21 01:33N 22°19' E 114°09'67327234.1
2016-Aug-21 01:32N 31°24' E 121°31'278.5
2016-Aug-21 01:30N 31°26' E 121°29'7573.7
2016-Aug-21 01:29N 31°30' E 121°23'15140.5
2016-Aug-21 01:23N 31°18' E 121°33'65642912.8
2016-Aug-21 01:22N 23°06' E 113°27'65916136.2
2016-Aug-21 01:19N 31°27' E 121°27'5 6.1
2016-Aug-21 00:33N 31°30' E 121°23'658394965.0
2016-Aug-21 00:33N 23°06' E 113°27'65832471.1
2016-Aug-21 00:32N 31°26' E 121°29'272.4
2016-Aug-21 00:31N 31°27' E 121°28'11255.8
2016-Aug-21 00:28N 31°21' E 121°39'67536806.0
2016-Aug-21 00:27N 22°19' E 114°09'6743921.4
2016-Aug-21 00:17N 31°30' E 121°23'674925.4
2016-Aug-20 23:33N 22°19' E 114°09'674404414.1
2016-Aug-20 23:33N 31°32' E 121°21'11898.6
2016-Aug-20 23:32N 31°23' E 121°31'91584.4
2016-Aug-20 23:32N 31°30' E 121°23'19682.4
2016-Aug-20 23:30N 31°44' E 121°07'66011820.0
2016-Aug-20 23:27N 23°06' E 113°27'65839509.0
2016-Aug-20 23:26N 31°28' E 121°25'1013147.1
2016-Aug-20 23:24N 29°57' E 122°15'62635223.5
2016-Aug-20 23:23N 23°04' E 113°30'6584187.4
2016-Aug-20 23:13N 31°26' E 121°29'673999.0
2016-Aug-20 22:33N 22°19' E 114°09'6732423542.0
2016-Aug-20 22:33N 31°26' E 121°29'2340933.7
2016-Aug-20 22:33N 31°42' E 121°10'66966.9
2016-Aug-20 22:33N 31°38' E 121°15'113101694.0
2016-Aug-20 22:33N 29°57' E 122°15'94337093.3
2016-Aug-20 22:33N 31°24' E 121°33'101339.3
2016-Aug-20 22:32N 31°30' E 121°23'1555009.6
2016-Aug-20 22:32N 31°18' E 121°34'938165.6
2016-Aug-20 22:32N 29°49' E 122°05'933383.7
2016-Aug-20 22:30N 31°18' E 121°33'65518005.6
2016-Aug-20 22:28N 23°04' E 113°29'656786803.6
2016-Aug-20 22:28N 31°18' E 121°33'12811.9
2016-Aug-20 22:27N 31°28' E 121°25'65865848.3
2016-Aug-20 22:26N 23°06' E 113°27'6564260.3
2016-Aug-20 22:17N 31°18' E 121°33'1672.3
2016-Aug-20 22:04N 31°31' E 121°23'1223.5
2016-Aug-20 21:33N 31°40' E 121°13'2695026.6
2016-Aug-20 21:33N 31°20' E 121°33'41397.9
2016-Aug-20 21:33N 31°22' E 121°30'9210740.1
2016-Aug-20 21:33N 29°55' E 122°06'9610488.0
2016-Aug-20 21:32N 31°26' E 121°29'65891168.3
2016-Aug-20 21:32N 23°06' E 113°27'65971856.3
2016-Aug-20 21:31N 31°29' E 121°25'141962.9
2016-Aug-20 21:31N 31°17' E 121°34'161162.1
2016-Aug-20 21:30N 31°30' E 121°23'1569.9
2016-Aug-20 21:17N 31°18' E 121°33'16286.3
2016-Aug-20 21:14N 31°31' E 121°23'811.3
2016-Aug-20 20:33N 31°37' E 121°17'8475.4
2016-Aug-20 20:32N 31°30' E 121°23'16394.2
2016-Aug-20 20:30N 31°15' E 121°31'807057.5
2016-Aug-20 20:29N 29°57' E 121°53'972597.9
2016-Aug-20 20:27N 31°30' E 121°23'65922377.9
2016-Aug-20 20:25N 23°06' E 113°27'65819572.8
2016-Aug-20 20:23N 31°30' E 121°22'7552.1
2016-Aug-20 20:22N 31°26' E 121°29'67325245.4
2016-Aug-20 20:21N 22°19' E 114°09'6747705.8
2016-Aug-20 20:15N 31°31' E 121°23'710.6
2016-Aug-20 19:33N 31°26' E 121°29'7741.5
2016-Aug-20 19:33N 31°30' E 121°23'33991.9
2016-Aug-20 19:33N 31°33' E 121°21'366.6
2016-Aug-20 19:30N 31°30' E 121°23'67412703.7
2016-Aug-20 19:27N 22°19' E 114°09'67438530.6
2016-Aug-20 19:26N 31°31' E 121°22'65937648.0
2016-Aug-20 19:24N 23°06' E 113°27'6525407.2
2016-Aug-20 19:17N 31°15' E 121°31'1418.4
2016-Aug-20 18:31N 31°29' E 121°27'4440.0
2016-Aug-20 18:30N 31°26' E 121°29'658124756.6
2016-Aug-20 18:30N 23°06' E 113°27'65647203.5
2016-Aug-20 18:29N 31°18' E 121°33'162308.6
2016-Aug-20 18:29N 31°31' E 121°22'179.2
2016-Aug-20 18:28N 31°30' E 121°23'17300.5
2016-Aug-20 18:25N 31°15' E 121°31'17249.7
2016-Aug-20 18:21N 31°30' E 121°23'0 2.3
2016-Aug-20 18:18N 31°30' E 121°23'67410325.7
2016-Aug-20 18:15N 22°19' E 114°09'673981.6
2016-Aug-20 17:33N 31°26' E 121°29'114091.8
2016-Aug-20 17:33N 31°14' E 121°29'172904.6
2016-Aug-20 17:33N 31°30' E 121°23'10185.5
2016-Aug-20 17:30N 31°24' E 121°33'660475203.3
2016-Aug-20 17:29N 23°06' E 113°27'611426.8
2016-Aug-20 17:27N 22°19' E 114°09'6747538.6
2016-Aug-20 17:22N 31°31' E 121°22'173293.0
2016-Aug-20 17:21N 31°15' E 121°31'17409.9
2016-Aug-20 17:19N 31°30' E 121°23'1721.1
2016-Aug-20 16:32N 31°15' E 121°31'171215.3
2016-Aug-20 16:31N 31°30' E 121°23'151717.5
2016-Aug-20 16:30N 31°18' E 121°33'010.0
2016-Aug-20 16:29N 31°18' E 121°33'16812.6
2016-Aug-20 16:28N 31°31' E 121°22'6597412.1
2016-Aug-20 16:23N 23°06' E 113°27'6597748.2
2016-Aug-20 16:18N 31°30' E 121°23'7636.2
2016-Aug-20 16:17N 31°26' E 121°29'751.9
2016-Aug-20 16:09N 31°30' E 121°23'0 0.5
2016-Aug-20 15:33N 31°30' E 121°23'1244703.7
2016-Aug-20 15:33N 31°21' E 121°32'13370.3
2016-Aug-20 15:31N 31°30' E 121°23'145.8
2016-Aug-20 15:30N 31°31' E 121°23'162610.6
2016-Aug-20 15:29N 31°18' E 121°33'65635226.7
2016-Aug-20 15:28N 23°06' E 113°27'65987831.7
2016-Aug-20 15:28N 31°24' E 121°32'336.9
2016-Aug-20 15:23N 31°26' E 121°29'1073.4
2016-Aug-20 15:15N 31°17' E 121°34'7 9.9
2016-Aug-20 14:33N 31°23' E 121°30'2228.0
2016-Aug-20 14:33N 31°25' E 121°30'344.7
2016-Aug-20 14:28N 31°22' E 121°30'10145.9
2016-Aug-20 14:24N 31°30' E 121°23'65917314.5
2016-Aug-20 14:22N 23°06' E 113°27'6594704.8
2016-Aug-20 14:13N 31°30' E 121°23'16271.0
2016-Aug-20 14:10N 31°17' E 121°34'1625.2
2016-Aug-20 13:32N 31°30' E 121°23'0 7.4
2016-Aug-20 13:30N 31°30' E 121°23'91742.5
2016-Aug-20 13:30N 31°23' E 121°30'6731211787.8
2016-Aug-20 13:29N 22°18' E 114°07'601621.6
2016-Aug-20 13:27N 23°06' E 113°27'659724.4
2016-Aug-20 12:33N 31°29' E 121°24'658789937.4
2016-Aug-20 12:33N 23°05' E 113°28'591058.8
2016-Aug-20 12:29N 22°18' E 114°07'67450587.4
2016-Aug-20 12:29N 31°26' E 121°29'7538.7
2016-Aug-20 12:28N 31°30' E 121°23'0150.1
2016-Aug-20 12:28N 31°30' E 121°23'16363.6
2016-Aug-20 12:25N 31°17' E 121°34'637.8
2016-Aug-20 12:16N 31°23' E 121°35'4 6.0
2016-Aug-20 11:33N 31°22' E 121°30'657295699.0
2016-Aug-20 11:33N 23°02' E 113°31'6592373359.3
2016-Aug-20 11:33N 31°33' E 121°20'4103.8
2016-Aug-20 11:31N 31°30' E 121°23'67527617.5
2016-Aug-20 11:29N 22°18' E 114°07'65614679.0
2016-Aug-20 11:27N 31°16' E 121°09'21160.7
2016-Aug-20 11:19N 31°18' E 121°33'50323208.5
2016-Aug-20 11:17N 39°05' E 117°45'9921317.4
2016-Aug-20 10:32N 22°57' E 113°30'66016615.2
2016-Aug-20 10:30N 31°17' E 121°34'67061862.1
2016-Aug-20 10:29N 22°18' E 114°07'67112130.0
2016-Aug-20 10:26N 31°18' E 121°33'670746.5
2016-Aug-20 09:32N 22°19' E 114°07'505427.2
2016-Aug-20 09:32N 22°54' E 113°29'6663984.5
2016-Aug-20 09:21N 31°24' E 121°31'6146.6
2016-Aug-20 09:19N 31°18' E 121°33'6 7.5
2016-Aug-20 08:30N 31°22' E 121°28'7174.7
2016-Aug-20 08:27N 31°15' E 121°31'6611808.4
2016-Aug-20 08:05N 22°55' E 113°25'2 4.6
2016-Aug-20 07:33N 22°54' E 113°28'6605723.2
2016-Aug-20 07:26N 31°15' E 121°31'27586.4
2016-Aug-20 07:24N 31°38' E 121°15'335.4
2016-Aug-20 07:19N 31°36' E 121°17'738.7
2016-Aug-20 07:08N 31°31' E 121°22'3 4.6
2016-Aug-20 06:33N 31°33' E 121°21'481.6
2016-Aug-20 06:31N 31°30' E 121°23'10141.7
2016-Aug-20 06:27N 31°37' E 121°15'253099.1
2016-Aug-20 06:26N 31°18' E 121°33'162887.5
2016-Aug-20 06:26N 31°31' E 121°22'178941.0
2016-Aug-20 06:26N 31°15' E 121°31'17294.3
2016-Aug-20 06:22N 31°30' E 121°23'124.5
2016-Aug-20 06:20N 31°30' E 121°22'4895382.8
2016-Aug-20 06:15N 39°05' E 117°44'478684.5
2016-Aug-20 05:33N 31°39' E 121°14'111820.8
2016-Aug-20 05:33N 31°31' E 121°22'1174.8
2016-Aug-20 05:32N 31°30' E 121°23'4869355.9
2016-Aug-20 05:29N 39°04' E 117°50'50310769.2
2016-Aug-20 05:26N 31°15' E 121°31'16177.1
2016-Aug-20 05:21N 31°30' E 121°22'1417.3
2016-Aug-20 04:33N 31°40' E 121°12'47351598.3
2016-Aug-20 04:33N 39°04' E 117°51'50219644.9
2016-Aug-20 04:31N 31°15' E 121°31'171451.9
2016-Aug-20 04:31N 31°31' E 121°23'12471.6
2016-Aug-20 04:29N 31°21' E 121°31'11336.2
2016-Aug-20 04:27N 31°30' E 121°22'145140.4
2016-Aug-20 04:27N 31°19' E 121°33'1412763.8
2016-Aug-20 04:27N 31°30' E 121°23'4865643.8
2016-Aug-20 04:22N 39°04' E 117°49'50115949.6
2016-Aug-20 04:20N 31°18' E 121°33'1518.8
2016-Aug-20 03:32N 31°30' E 121°23'121340.4
2016-Aug-20 03:31N 31°23' E 121°34'2212.4
2016-Aug-20 03:31N 31°23' E 121°36'49628371.4
2016-Aug-20 03:30N 39°04' E 117°51'4854373.1
2016-Aug-20 03:23N 31°31' E 121°23'18271.4
2016-Aug-20 03:19N 31°14' E 121°30'506140034.7
2016-Aug-20 03:19N 39°05' E 117°44'503592.2
2016-Aug-20 02:28N 31°18' E 121°33'67015262.5
2016-Aug-20 02:25N 22°19' E 114°07'102310142.2
2016-Aug-20 02:19N 39°04' E 117°50'9023245494.6
2016-Aug-20 02:19N 24°02' E 118°02'9028569.9
2016-Aug-20 02:13N 39°05' E 117°46'584890.5
2016-Aug-20 01:33N 29°59' E 121°58'9615031.7
2016-Aug-20 01:33N 31°30' E 121°23'6742981.0
2016-Aug-20 01:20N 22°19' E 114°09'6692588.7
2016-Aug-20 01:04N 31°18' E 121°33'6691233.4
2016-Aug-20 00:31N 22°19' E 114°09'66911872.3
2016-Aug-20 00:28N 31°18' E 121°33'15752.2
2016-Aug-20 00:27N 31°30' E 121°23'1 2.7
2016-Aug-20 00:08N 31°31' E 121°23'1 1.4
2016-Aug-19 23:32N 31°30' E 121°23'15257.9
2016-Aug-19 23:28N 31°18' E 121°33'5207.2
2016-Aug-19 23:27N 31°21' E 121°38'16244.1
2016-Aug-19 23:23N 31°31' E 121°23'151457.2
2016-Aug-19 23:22N 31°22' E 121°37'6 7.5
2016-Aug-19 22:34N 31°23' E 121°30'  
Track history (hours):
 
Tides and Currents Weather Stations Pressure Air Temp Water Temp Dewpoint Dewpoint Depression Visibility Wind Speed Wind Dir Waves Ship Positions

Callsign 000000 (name unknown)

Last reported at 2016-Aug-29 22:33 UTC. Time now 2016-Aug-29 23:29 UTC.
Position N 31°24' E 121°31'.

Type: Fishing. MMSI: 200007452.

Date/timePositionNaut miles runAvg speedWind from/ knotsBaromVisibWave heightAir tempDewpointWater temp
2016-Aug-29 22:33N 31°24' E 121°31'979437.7
2016-Aug-29 22:33N 29°56' E 122°19'63463368.2
2016-Aug-29 22:32N 23°02' E 113°23'642135948.0
2016-Aug-29 22:32N 31°59' E 119°59'741655.3
2016-Aug-29 22:29N 31°32' E 121°20'5491.2
2016-Aug-29 22:29N 31°30' E 121°24'2129.6
2016-Aug-29 22:28N 31°31' E 121°23'31558.0
2016-Aug-29 22:28N 31°29' E 121°25'138.7
2016-Aug-29 22:26N 31°29' E 121°24'5344772.0
2016-Aug-29 22:19N 22°39' E 120°15'1646167.8
2016-Aug-29 22:18N 24°24' E 117°57'4634725.0
2016-Aug-29 22:12N 31°29' E 121°25'56435.4
2016-Aug-29 22:04N 32°02' E 120°31'6551270.9
2016-Aug-29 21:33N 23°05' E 113°28'653587693.6
2016-Aug-29 21:33N 32°02' E 120°27'15856904.8
2016-Aug-29 21:33N 29°56' E 122°19'10111000.2
2016-Aug-29 21:32N 31°27' E 121°28'41273.8
2016-Aug-29 21:32N 31°29' E 121°24'22124.4
2016-Aug-29 21:32N 31°31' E 121°23'2298.2
2016-Aug-29 21:32N 31°32' E 121°20'7940829.1
2016-Aug-29 21:32N 32°05' E 119°55'928924.2
2016-Aug-29 21:31N 31°22' E 121°30'14501.0
2016-Aug-29 21:29N 31°32' E 121°20'13115.9
2016-Aug-29 21:22N 31°42' E 121°10'18366.5
2016-Aug-29 21:20N 31°30' E 121°24'3 4.1
2016-Aug-29 20:33N 31°31' E 121°21'10715434.6
2016-Aug-29 20:33N 29°56' E 122°19'11511506.5
2016-Aug-29 20:32N 31°37' E 121°15'111777.0
2016-Aug-29 20:32N 31°29' E 121°24'10540.1
2016-Aug-29 20:31N 31°22' E 121°30'7011450.9
2016-Aug-29 20:31N 31°59' E 120°21'603637.5
2016-Aug-29 20:30N 31°31' E 121°23'6072270.2
2016-Aug-29 20:30N 31°60' E 120°20'625598.1
2016-Aug-29 20:29N 31°30' E 121°24'5463.9
2016-Aug-29 20:28N 31°32' E 121°20'4643663.9
2016-Aug-29 20:21N 24°24' E 117°57'467595.0
2016-Aug-29 19:34N 31°37' E 121°16'559860.0
2016-Aug-29 19:33N 31°56' E 120°16'160575954.9
2016-Aug-29 19:33N 29°56' E 122°19'1044133.4
2016-Aug-29 19:32N 31°30' E 121°24'9737.7
2016-Aug-29 19:31N 31°22' E 121°30'11552.5
2016-Aug-29 19:30N 31°31' E 121°23'17295.9
2016-Aug-29 19:26N 31°42' E 121°08'19911.0
2016-Aug-29 19:25N 31°29' E 121°24'17555.7
2016-Aug-29 19:23N 31°42' E 121°10'43911.5
2016-Aug-29 19:20N 32°03' E 120°25'4354.6
2016-Aug-29 18:33N 31°42' E 121°09'12110904.4
2016-Aug-29 18:33N 29°56' E 122°19'128459565.9
2016-Aug-29 18:33N 31°46' E 121°03'241214.8
2016-Aug-29 18:31N 31°29' E 121°24'242.6
2016-Aug-29 18:29N 31°31' E 121°23'665834.4
2016-Aug-29 18:28N 31°56' E 120°10'642671.0
2016-Aug-29 18:27N 31°32' E 121°20'14172.3
2016-Aug-29 18:22N 31°22' E 121°30'45821703.7
2016-Aug-29 18:21N 24°24' E 117°57'4639065.8
2016-Aug-29 18:18N 31°30' E 121°24'1881.2
2016-Aug-29 18:05N 31°41' E 121°09'121230.8
2016-Aug-29 17:33N 29°56' E 122°19'127152338.4
2016-Aug-29 17:33N 31°45' E 121°03'502355.2
2016-Aug-29 17:32N 31°57' E 120°06'731495.5
2016-Aug-29 17:29N 31°29' E 121°25'127.3
2016-Aug-29 17:28N 31°30' E 121°24'120.5
2016-Aug-29 17:25N 31°29' E 121°23'101564.8
2016-Aug-29 17:25N 31°22' E 121°30'14200.7
2016-Aug-29 17:21N 31°32' E 121°20'464167090.4
2016-Aug-29 17:21N 24°24' E 117°57'4699330.6
2016-Aug-29 17:18N 31°41' E 121°09'16122.6
2016-Aug-29 17:10N 31°31' E 121°23'106173.3
2016-Aug-29 16:33N 29°56' E 122°19'17040910.2
2016-Aug-29 16:33N 31°59' E 120°00'7511739.2
2016-Aug-29 16:33N 31°31' E 121°22'12418.5
2016-Aug-29 16:31N 31°22' E 121°30'62598.4
2016-Aug-29 16:31N 31°15' E 121°31'1614022.8
2016-Aug-29 16:31N 31°30' E 121°24'111.3
2016-Aug-29 16:26N 31°29' E 121°23'4600.5
2016-Aug-29 16:26N 31°32' E 121°20'5364.9
2016-Aug-29 16:25N 31°29' E 121°25'6754959.6
2016-Aug-29 16:17N 22°30' E 113°48'67612814.3
2016-Aug-29 16:14N 31°41' E 121°09'661987.0
2016-Aug-29 15:33N 23°04' E 113°25'660125089.3
2016-Aug-29 15:33N 31°29' E 121°23'1154.0
2016-Aug-29 15:33N 31°30' E 121°24'10534229.9
2016-Aug-29 15:33N 29°56' E 122°19'1064034.0
2016-Aug-29 15:31N 31°31' E 121°22'17488.3
2016-Aug-29 15:29N 31°15' E 121°31'6424.2
2016-Aug-29 15:28N 31°22' E 121°30'67142404.2
2016-Aug-29 15:27N 22°29' E 113°52'2521619.8
2016-Aug-29 15:18N 24°24' E 117°57'464620.2
2016-Aug-29 14:33N 31°31' E 121°22'2328.1
2016-Aug-29 14:32N 31°30' E 121°24'222350.9
2016-Aug-29 14:32N 31°45' E 121°06'367260.2
2016-Aug-29 14:31N 31°15' E 121°31'201560.2
2016-Aug-29 14:31N 31°32' E 121°20'41744.6
2016-Aug-29 14:31N 31°29' E 121°23'104187995.9
2016-Aug-29 14:31N 29°56' E 122°19'952136.9
2016-Aug-29 14:28N 31°22' E 121°30'1212.6
2016-Aug-29 13:33N 31°31' E 121°22'1068326.0
2016-Aug-29 13:32N 29°56' E 122°19'1046713.4
2016-Aug-29 13:31N 31°29' E 121°23'106924.7
2016-Aug-29 13:31N 31°22' E 121°30'144573.1
2016-Aug-29 13:31N 31°32' E 121°20'13258.5
2016-Aug-29 13:28N 31°41' E 121°09'32271.2
2016-Aug-29 13:28N 31°40' E 121°12'14212.0
2016-Aug-29 13:24N 31°30' E 121°24'017.1
2016-Aug-29 13:22N 31°29' E 121°25'15142.1
2016-Aug-29 13:15N 31°15' E 121°31'0 0.0
2016-Aug-29 12:33N 31°15' E 121°31'153084.1
2016-Aug-29 12:33N 31°29' E 121°23'9430.7
2016-Aug-29 12:32N 31°36' E 121°17'11327139.4
2016-Aug-29 12:32N 29°56' E 122°19'10638291.7
2016-Aug-29 12:31N 31°31' E 121°22'2288.6
2016-Aug-29 12:31N 31°29' E 121°25'932917.1
2016-Aug-29 12:31N 31°22' E 121°30'1011519.7
2016-Aug-29 12:31N 31°30' E 121°24'4255644.6
2016-Aug-29 12:26N 24°48' E 118°47'4329779.6
2016-Aug-29 12:24N 31°41' E 121°09'13130.3
2016-Aug-29 12:18N 31°32' E 121°20'108147.2
2016-Aug-29 11:33N 29°56' E 122°19'1045149.8
2016-Aug-29 11:32N 31°29' E 121°23'4335.3
2016-Aug-29 11:32N 31°32' E 121°22'14451.0
2016-Aug-29 11:30N 31°21' E 121°31'1513051.5
2016-Aug-29 11:30N 31°32' E 121°20'340.2
2016-Aug-29 11:26N 31°31' E 121°23'257.3
2016-Aug-29 11:24N 31°30' E 121°24'134.6
2016-Aug-29 11:23N 31°29' E 121°25'18545.7
2016-Aug-29 11:21N 31°41' E 121°09'412666.8
2016-Aug-29 11:20N 31°58' E 120°25'419.3
2016-Aug-29 11:06N 32°02' E 120°27'158287.9
2016-Aug-29 10:34N 29°56' E 122°19'15963570.5
2016-Aug-29 10:33N 32°00' E 120°23'6210546.8
2016-Aug-29 10:33N 31°30' E 121°26'181249.5
2016-Aug-29 10:32N 31°41' E 121°09'18729.4
2016-Aug-29 10:31N 31°29' E 121°25'119.0
2016-Aug-29 10:29N 31°30' E 121°24'138.4
2016-Aug-29 10:28N 31°29' E 121°23'4636532.7
2016-Aug-29 10:23N 24°24' E 117°57'46436323.4
2016-Aug-29 10:23N 31°32' E 121°20'15110.0
2016-Aug-29 10:15N 31°21' E 121°31'94136.2
2016-Aug-29 09:33N 29°56' E 122°19'59262661.4
2016-Aug-29 09:33N 39°04' E 117°48'880243750.6
2016-Aug-29 09:32N 24°24' E 117°57'47026834.5
2016-Aug-29 09:31N 31°57' E 120°17'477652.3
2016-Aug-29 09:31N 31°41' E 121°09'221099.0
2016-Aug-29 09:30N 31°27' E 121°29'5403.3
2016-Aug-29 09:29N 31°30' E 121°24'1131.0
2016-Aug-29 09:29N 31°29' E 121°25'0 7.8
2016-Aug-29 09:26N 31°29' E 121°25'1141.8
2016-Aug-29 09:25N 31°29' E 121°23'428.5
2016-Aug-29 09:17N 31°32' E 121°20'1317.3
2016-Aug-29 08:33N 31°25' E 121°32'9729186.9
2016-Aug-29 08:33N 29°56' E 122°19'10920685.9
2016-Aug-29 08:33N 31°33' E 121°20'636086.8
2016-Aug-29 08:32N 31°56' E 120°11'673238.2
2016-Aug-29 08:31N 31°30' E 121°24'180.2
2016-Aug-29 08:30N 31°29' E 121°23'5917840.5
2016-Aug-29 08:30N 31°58' E 120°22'6931091.2
2016-Aug-29 08:30N 31°21' E 121°31'14792.9
2016-Aug-29 08:29N 31°32' E 121°20'19438.3
2016-Aug-29 08:26N 31°45' E 121°03'38477.8
2016-Aug-29 08:21N 31°15' E 121°31'19257.7
2016-Aug-29 08:17N 31°31' E 121°17'108148.9
2016-Aug-29 07:33N 29°56' E 122°19'16624952.5
2016-Aug-29 07:33N 31°57' E 120°05'7814.8
2016-Aug-29 07:32N 31°56' E 120°13'653048.5
2016-Aug-29 07:31N 31°30' E 121°24'157.3
2016-Aug-29 07:30N 31°29' E 121°25'11681.6
2016-Aug-29 07:29N 31°21' E 121°32'6769362.2
2016-Aug-29 07:24N 22°33' E 113°38'6785999.7
2016-Aug-29 07:18N 31°32' E 121°20'42657.5
2016-Aug-29 07:18N 31°30' E 121°24'4894232.6
2016-Aug-29 07:11N 39°05' E 117°45'593945.7
2016-Aug-29 06:33N 29°56' E 122°19'1057134.9
2016-Aug-29 06:32N 31°30' E 121°24'486194445.8
2016-Aug-29 06:32N 39°04' E 117°51'48396571.4
2016-Aug-29 06:32N 31°32' E 121°20'5343.7
2016-Aug-29 06:31N 31°29' E 121°25'786862.7
2016-Aug-29 06:30N 31°59' E 119°60'7311996.0
2016-Aug-29 06:30N 31°32' E 121°20'64894.3
2016-Aug-29 06:25N 31°55' E 120°10'681473.7
2016-Aug-29 06:23N 31°30' E 121°24'67519586.3
2016-Aug-29 06:21N 22°19' E 114°07'636790.3
2016-Aug-29 05:32N 29°56' E 122°19'62872940.7
2016-Aug-29 05:32N 23°03' E 113°30'65912418.7
2016-Aug-29 05:29N 31°31' E 121°23'357.3
2016-Aug-29 05:26N 31°32' E 121°20'030.1
2016-Aug-29 05:25N 31°32' E 121°20'108126.3
2016-Aug-29 04:33N 29°56' E 122°19'12326106.6
2016-Aug-29 04:33N 31°43' E 121°08'502477.0
2016-Aug-29 04:32N 31°55' E 120°10'674410.3
2016-Aug-29 04:31N 31°30' E 121°24'662297833.7
2016-Aug-29 04:31N 23°03' E 113°25'66210541.9
2016-Aug-29 04:27N 31°31' E 121°23'254.6
2016-Aug-29 04:25N 31°30' E 121°24'4253.5
2016-Aug-29 04:24N 31°32' E 121°20'46466825.2
2016-Aug-29 04:23N 24°24' E 117°57'4717571.7
2016-Aug-29 04:20N 31°44' E 121°07'36244.2
2016-Aug-29 04:11N 31°15' E 121°31'15671.3
2016-Aug-29 04:09N 31°29' E 121°25'1525.4
2016-Aug-29 03:33N 31°15' E 121°31'8918874.8
2016-Aug-29 03:33N 29°56' E 122°19'1058010.6
2016-Aug-29 03:32N 31°30' E 121°24'664324.4
2016-Aug-29 03:31N 31°56' E 120°13'661789.1
2016-Aug-29 03:29N 31°30' E 121°24'4162.4
2016-Aug-29 03:28N 31°32' E 121°20'791532.0
2016-Aug-29 03:25N 32°05' E 119°56'81986.8
2016-Aug-29 03:20N 31°31' E 121°22'46411678.8
2016-Aug-29 03:17N 24°24' E 117°57'2441699.6
2016-Aug-29 03:09N 22°19' E 114°09'6611109.9
2016-Aug-29 02:33N 32°02' E 119°57'9347655.5
2016-Aug-29 02:33N 31°15' E 121°31'666171226.0
2016-Aug-29 02:33N 22°19' E 114°09'635457049.9
2016-Aug-29 02:33N 29°56' E 122°19'11411736.2
2016-Aug-29 02:32N 31°37' E 121°16'8206.7
2016-Aug-29 02:30N 31°31' E 121°22'275.5
2016-Aug-29 02:28N 31°32' E 121°20'4136.8
2016-Aug-29 02:26N 31°30' E 121°24'6615675.9
2016-Aug-29 02:19N 22°58' E 113°34'6619327.1
2016-Aug-29 02:15N 31°29' E 121°25'5 7.0
2016-Aug-29 01:33N 31°32' E 121°20'14970.7
2016-Aug-29 01:33N 31°32' E 121°21'107128960.5
2016-Aug-29 01:33N 29°56' E 122°19'635190458.8
2016-Aug-29 01:32N 22°19' E 114°09'24479862.5
2016-Aug-29 01:32N 24°24' E 117°57'45328579.9
2016-Aug-29 01:31N 31°15' E 121°31'17567.0
2016-Aug-29 01:29N 31°31' E 121°22'163.5
2016-Aug-29 01:28N 31°30' E 121°24'76621.4
2016-Aug-29 01:21N 31°59' E 120°01'17643.0
2016-Aug-29 01:19N 31°58' E 120°20'290.5
2016-Aug-29 01:18N 31°58' E 120°22'691968.3
2016-Aug-29 01:16N 31°21' E 121°31'7201.3
2016-Aug-29 01:14N 31°15' E 121°29'15178.3
2016-Aug-29 01:09N 31°29' E 121°25'0146.1
2016-Aug-29 01:09N 31°30' E 121°24'16207.2
2016-Aug-29 01:04N 31°14' E 121°29'85165.6
2016-Aug-29 00:33N 31°58' E 120°04'16821596.0
2016-Aug-29 00:33N 29°56' E 122°19'8914604.4
2016-Aug-29 00:32N 31°15' E 121°30'163330.3
2016-Aug-29 00:32N 31°29' E 121°23'165173.0
2016-Aug-29 00:32N 31°15' E 121°31'17748.9
2016-Aug-29 00:30N 31°31' E 121°23'2442.5
2016-Aug-29 00:30N 31°32' E 121°20'4123.5
2016-Aug-29 00:28N 31°30' E 121°24'46413679.4
2016-Aug-29 00:26N 24°24' E 117°57'463834096.0
2016-Aug-29 00:26N 31°30' E 121°24'10495.1
2016-Aug-29 00:25N 31°21' E 121°31'373.5
2016-Aug-29 00:22N 31°24' E 121°31'67318086.8
2016-Aug-29 00:20N 22°19' E 114°09'67423112.5
2016-Aug-29 00:18N 31°29' E 121°25'24117.0
2016-Aug-29 00:06N 31°45' E 121°03'4888.3
2016-Aug-28 23:33N 31°57' E 120°08'665518.7
2016-Aug-28 23:32N 31°32' E 121°20'10855687.9
2016-Aug-28 23:32N 29°56' E 122°19'1063788.4
2016-Aug-28 23:31N 31°31' E 121°23'1459.9
2016-Aug-28 23:30N 31°30' E 121°24'67469343.5
2016-Aug-28 23:30N 22°19' E 114°09'67497075.8
2016-Aug-28 23:29N 31°30' E 121°24'46387805.6
2016-Aug-28 23:29N 24°24' E 117°57'46824753.3
2016-Aug-28 23:28N 31°58' E 120°04'8232956.8
2016-Aug-28 23:28N 31°21' E 121°31'335.9
2016-Aug-28 23:23N 31°20' E 121°33'578.7
2016-Aug-28 23:19N 31°15' E 121°31'165690.3
2016-Aug-28 23:19N 31°29' E 121°23'12515.3
2016-Aug-28 23:18N 31°20' E 121°33'2 2.8
2016-Aug-28 22:33N 31°21' E 121°31'7920230.3
2016-Aug-28 22:33N 31°57' E 120°08'16549388.4
2016-Aug-28 22:33N 29°56' E 122°19'10426743.6
2016-Aug-28 22:33N 31°29' E 121°25'916951.4
2016-Aug-28 22:33N 31°21' E 121°31'7589933.8
2016-Aug-28 22:33N 31°56' E 120°13'672495.8
2016-Aug-28 22:31N 31°30' E 121°24'180.6
2016-Aug-28 22:30N 31°29' E 121°23'102632.6
2016-Aug-28 22:30N 31°22' E 121°30'671100641.5
2016-Aug-28 22:30N 22°19' E 114°09'24428339.7
2016-Aug-28 22:29N 24°24' E 117°57'46622347.9
2016-Aug-28 22:28N 31°34' E 121°18'1767.4
2016-Aug-28 22:13N 31°21' E 121°31'94143.3
2016-Aug-28 21:33N 29°56' E 122°19'10519894.9
2016-Aug-28 21:33N 31°30' E 121°24'1459.5
2016-Aug-28 21:33N 31°29' E 121°23'89520.1
2016-Aug-28 21:33N 31°25' E 121°31'7365852.5
2016-Aug-28 21:33N 31°57' E 120°13'6724064.6
2016-Aug-28 21:33N 31°29' E 121°25'89291.2
2016-Aug-28 21:33N 31°24' E 121°31'899.2
2016-Aug-28 21:28N 31°29' E 121°24'13422.4
2016-Aug-28 21:26N 31°39' E 121°14'23342.4
2016-Aug-28 21:22N 31°21' E 121°31'61201296058.6
2016-Aug-28 21:22N 33°28' W 117°42'611952576.8
2016-Aug-28 21:15N 31°27' E 121°28'64474.6
2016-Aug-28 21:06N 32°01' E 120°24'159286.7
2016-Aug-28 20:33N 29°56' E 122°19'10527004.4
2016-Aug-28 20:33N 31°30' E 121°24'6131265.1
2016-Aug-28 20:33N 31°60' E 120°22'6512980.4
2016-Aug-28 20:33N 31°27' E 121°28'67442561.6
2016-Aug-28 20:32N 22°19' E 114°09'674101136.6
2016-Aug-28 20:31N 31°33' E 121°20'598427.6
2016-Aug-28 20:31N 31°58' E 120°18'6222339.5
2016-Aug-28 20:31N 31°30' E 121°23'6010340.5
2016-Aug-28 20:30N 31°59' E 120°21'611538.0
2016-Aug-28 20:28N 31°29' E 121°23'117723.4
2016-Aug-28 20:28N 31°21' E 121°31'10251.3
2016-Aug-28 20:26N 31°29' E 121°25'516.7
2016-Aug-28 20:07N 31°32' E 121°20'60107.1
2016-Aug-28 19:34N 31°56' E 120°15'7742.7
2016-Aug-28 19:33N 32°00' E 120°22'59211620.2
2016-Aug-28 19:33N 31°31' E 121°22'10724008.1
2016-Aug-28 19:33N 29°56' E 122°19'11516568.6
2016-Aug-28 19:32N 31°37' E 121°15'10454.6
2016-Aug-28 19:31N 31°30' E 121°24'1119319.4
2016-Aug-28 19:31N 31°21' E 121°31'201039.8
2016-Aug-28 19:30N 31°37' E 121°16'9331.5
2016-Aug-28 19:28N 31°29' E 121°23'592831.7
2016-Aug-28 19:27N 32°04' E 120°26'60241.2
2016-Aug-28 19:12N 31°29' E 121°25'104162.5
2016-Aug-28 18:33N 29°56' E 122°19'10848648.7
2016-Aug-28 18:33N 31°31' E 121°19'45247.4
2016-Aug-28 18:33N 31°30' E 121°24'5625180.5
2016-Aug-28 18:33N 32°04' E 120°32'5725675.2
2016-Aug-28 18:33N 31°29' E 121°25'10284.0
2016-Aug-28 18:31N 31°21' E 121°31'1916901.9
2016-Aug-28 18:31N 31°36' E 121°17'91186.1
2016-Aug-28 18:30N 31°42' E 121°09'171030.8
2016-Aug-28 18:29N 31°29' E 121°23'681004.4
2016-Aug-28 18:25N 31°56' E 120°09'49148.2
2016-Aug-28 18:05N 31°44' E 121°06'125229.0
2016-Aug-28 17:33N 29°56' E 122°19'16619960.0
2016-Aug-28 17:32N 31°57' E 120°05'594421.3
2016-Aug-28 17:31N 31°40' E 121°12'253321.4
2016-Aug-28 17:31N 31°21' E 121°31'11702.8
2016-Aug-28 17:30N 31°30' E 121°24'9385.7
2016-Aug-28 17:29N 31°36' E 121°17'962.0
2016-Aug-28 17:20N 31°29' E 121°23'1 1.1
2016-Aug-28 16:33N 31°30' E 121°24'1058221.7
2016-Aug-28 16:33N 29°56' E 122°19'1194078.0
2016-Aug-28 16:31N 31°40' E 121°12'2590518.2
2016-Aug-28 16:31N 31°21' E 121°31'10683.1
2016-Aug-28 16:30N 31°29' E 121°25'1593.2
2016-Aug-28 16:20N 31°15' E 121°31'71918.1
2016-Aug-28 16:16N 32°01' E 120°27'157222.9
2016-Aug-28 15:33N 29°56' E 122°19'1066837.3
2016-Aug-28 15:32N 31°31' E 121°23'183.2
2016-Aug-28 15:31N 31°30' E 121°24'1198.6
2016-Aug-28 15:25N 31°21' E 121°31'63578.9
2016-Aug-28 15:25N 31°15' E 121°31'16126.8
2016-Aug-28 15:17N 31°30' E 121°23'123.0
2016-Aug-28 15:14N 31°29' E 121°25'104152.5
2016-Aug-28 14:33N 29°56' E 122°19'1052124.7
2016-Aug-28 14:30N 31°30' E 121°24'236.5
2016-Aug-28 14:28N 31°31' E 121°22'171647.0
2016-Aug-28 14:27N 31°15' E 121°31'644.5
2016-Aug-28 14:19N 31°21' E 121°31'1178.2
2016-Aug-28 14:11N 31°30' E 121°23'105166.7
2016-Aug-28 13:33N 29°56' E 122°19'8953478.5
2016-Aug-28 13:33N 31°15' E 121°31'16648.7
2016-Aug-28 13:31N 31°30' E 121°24'216.6
2016-Aug-28 13:26N 31°31' E 121°22'12184.3
2016-Aug-28 13:22N 31°21' E 121°31'35310.2
2016-Aug-28 13:15N 31°46' E 121°02'2434.9
2016-Aug-28 12:33N 31°30' E 121°23'1058203.9
2016-Aug-28 12:32N 29°56' E 122°19'1065985.2
2016-Aug-28 12:31N 31°31' E 121°22'482.0
2016-Aug-28 12:29N 31°29' E 121°26'67593454.4
2016-Aug-28 12:28N 22°19' E 114°09'677187440.6
2016-Aug-28 12:28N 31°43' E 121°08'3013342.5
2016-Aug-28 12:28N 31°21' E 121°31'112144.6
2016-Aug-28 12:28N 31°30' E 121°24'164123.8
2016-Aug-28 12:27N 31°15' E 121°31'41353.8
2016-Aug-28 12:20N 31°47' E 121°00'4152.3
2016-Aug-28 11:33N 31°15' E 121°31'156819.3
2016-Aug-28 11:33N 31°29' E 121°25'104124910.5
2016-Aug-28 11:33N 29°56' E 122°19'1261271.9
2016-Aug-28 11:27N 31°45' E 121°05'22894.9
2016-Aug-28 11:26N 31°30' E 121°24'122.4
2016-Aug-28 11:22N 31°31' E 121°22'239.2
2016-Aug-28 11:19N 31°29' E 121°23'67312758.0
2016-Aug-28 11:16N 22°19' E 114°09'6704372.8
2016-Aug-28 11:07N 31°21' E 121°31'138.9
2016-Aug-28 11:05N 31°22' E 121°30'611.9
2016-Aug-28 10:33N 31°28' E 121°28'10213599.0
2016-Aug-28 10:33N 29°56' E 122°19'11221276.5
2016-Aug-28 10:33N 31°36' E 121°18'6129.4
2016-Aug-28 10:30N 31°31' E 121°23'48641656.7
2016-Aug-28 10:29N 39°04' E 117°48'880264090.9
2016-Aug-28 10:29N 24°24' E 117°57'24580223.1
2016-Aug-28 10:29N 22°18' E 114°08'67244777.3
2016-Aug-28 10:28N 31°21' E 121°31'10329.2
2016-Aug-28 10:26N 31°29' E 121°25'1142.2
2016-Aug-28 10:26N 31°30' E 121°24'13652.3
2016-Aug-28 10:24N 31°20' E 121°33'1315.5
2016-Aug-28 09:33N 31°30' E 121°23'1425510.1
2016-Aug-28 09:33N 31°40' E 121°12'119106843.7
2016-Aug-28 09:33N 29°56' E 122°19'107386243.0
2016-Aug-28 09:33N 31°31' E 121°22'48024317.2
2016-Aug-28 09:32N 24°06' E 118°01'46718699.7
2016-Aug-28 09:30N 31°15' E 121°31'104355.4
2016-Aug-28 09:30N 31°25' E 121°32'67526995.1
2016-Aug-28 09:29N 22°18' E 114°08'67246498.2
2016-Aug-28 09:28N 31°21' E 121°31'9125126.0
2016-Aug-28 09:28N 32°04' E 119°57'806265.7
2016-Aug-28 09:27N 31°31' E 121°23'106119.1
2016-Aug-28 08:33N 29°56' E 122°19'42127088.8
2016-Aug-28 08:32N 24°03' E 118°02'48564614.0
2016-Aug-28 08:32N 31°35' E 121°17'525187.5
2016-Aug-28 08:31N 32°01' E 120°25'47595083.4
2016-Aug-28 08:31N 24°24' E 117°57'458149868.3
2016-Aug-28 08:31N 31°21' E 121°31'86155561.6
2016-Aug-28 08:31N 31°60' E 120°00'7712013.2
2016-Aug-28 08:30N 31°30' E 121°23'2184.1
2016-Aug-28 08:30N 31°29' E 121°25'67531979.8
2016-Aug-28 08:29N 22°18' E 114°08'67812330.7
2016-Aug-28 08:25N 31°41' E 121°13'66033483.6
2016-Aug-28 08:24N 23°04' E 113°30'65987886.6
2016-Aug-28 08:24N 31°39' E 121°13'12363.5
2016-Aug-28 08:22N 31°31' E 121°23'17731.1
2016-Aug-28 08:20N 31°15' E 121°31'843.8
2016-Aug-28 08:09N 31°22' E 121°36'2948.6
2016-Aug-28 07:33N 31°41' E 121°10'466941.9
2016-Aug-28 07:33N 31°58' E 120°19'7444610.8
2016-Aug-28 07:33N 31°15' E 121°31'89160425.9
2016-Aug-28 07:33N 29°56' E 122°19'11719216.3
2016-Aug-28 07:32N 31°39' E 121°13'45741.0
2016-Aug-28 07:29N 32°02' E 120°27'675121411.7
2016-Aug-28 07:28N 22°18' E 114°08'67518694.3
2016-Aug-28 07:26N 31°22' E 121°36'121709.5
2016-Aug-28 07:26N 31°29' E 121°25'721569.6
2016-Aug-28 07:23N 31°58' E 120°06'7114161.8
2016-Aug-28 07:23N 31°30' E 121°23'158.2
2016-Aug-28 07:21N 31°31' E 121°23'12263.0
2016-Aug-28 07:19N 31°21' E 121°31'4584737.6
2016-Aug-28 07:13N 24°24' E 117°57'406615.1
2016-Aug-28 06:33N 29°56' E 122°19'16224347.5
2016-Aug-28 06:33N 31°57' E 120°12'681996.9
2016-Aug-28 06:31N 31°29' E 121°25'14564.3
2016-Aug-28 06:29N 31°39' E 121°13'4857377.3
2016-Aug-28 06:29N 31°60' E 120°22'67020980.5
2016-Aug-28 06:27N 22°18' E 114°08'581565.7
2016-Aug-28 06:25N 23°04' E 113°30'658131627.8
2016-Aug-28 06:25N 31°47' E 121°00'36236.4
2016-Aug-28 06:16N 31°21' E 121°31'25903.1
2016-Aug-28 06:14N 31°41' E 121°13'5985.7
2016-Aug-28 05:33N 31°57' E 120°06'7014915.4
2016-Aug-28 05:33N 31°30' E 121°23'10594577.9
2016-Aug-28 05:33N 29°56' E 122°19'62852563.7
2016-Aug-28 05:32N 23°04' E 113°30'659339062.8
2016-Aug-28 05:32N 31°39' E 121°13'518318.6
2016-Aug-28 05:31N 31°57' E 120°17'47046960.8
2016-Aug-28 05:31N 24°24' E 117°57'88036431.2
2016-Aug-28 05:29N 39°04' E 117°48'4431595554.4
2016-Aug-28 05:29N 31°59' E 120°19'637614.8
2016-Aug-28 05:29N 31°29' E 121°25'156786.1
2016-Aug-28 05:29N 31°15' E 121°31'66727915.4
2016-Aug-28 05:27N 22°18' E 114°08'67854215.7
2016-Aug-28 05:27N 31°40' E 121°13'24296.4
2016-Aug-28 05:22N 31°21' E 121°31'94117.2
2016-Aug-28 04:33N 29°56' E 122°19'105189126.8
2016-Aug-28 04:33N 31°30' E 121°23'118186.5
2016-Aug-28 04:33N 31°21' E 121°31'7634239.6
2016-Aug-28 04:33N 31°56' E 120°12'48845011.9
2016-Aug-28 04:32N 24°03' E 117°58'4896928.4
2016-Aug-28 04:28N 31°40' E 121°12'678271024.1
2016-Aug-28 04:28N 22°18' E 114°08'67293002.3
2016-Aug-28 04:28N 31°21' E 121°31'499112214.1
2016-Aug-28 04:27N 39°05' E 117°46'50426699.7
2016-Aug-28 04:26N 31°15' E 121°31'893734.2
2016-Aug-28 04:25N 31°59' E 119°60'192303.5
2016-Aug-28 04:24N 31°60' E 120°22'64928482.1
2016-Aug-28 04:23N 23°04' E 113°30'98529311.6
2016-Aug-28 04:21N 39°04' E 117°48'4885993.2
2016-Aug-28 04:16N 31°29' E 121°25'362.9
2016-Aug-28 04:14N 31°31' E 121°23'1218.1
2016-Aug-28 03:33N 31°40' E 121°13'118141723.8
2016-Aug-28 03:33N 29°56' E 122°19'16659735.7
2016-Aug-28 03:33N 31°57' E 120°06'8118173.9
2016-Aug-28 03:33N 31°21' E 121°31'111191.9
2016-Aug-28 03:32N 31°30' E 121°23'65898674.9
2016-Aug-28 03:32N 23°04' E 113°30'64416222.8
2016-Aug-28 03:30N 31°57' E 120°18'66624471.7
2016-Aug-28 03:28N 22°18' E 114°08'245126113.6
2016-Aug-28 03:28N 24°24' E 117°57'458183159.2
2016-Aug-28 03:28N 31°21' E 121°31'10217.0
2016-Aug-28 03:25N 31°29' E 121°25'4818161.3
2016-Aug-28 03:21N 24°04' E 118°01'47024149.6
2016-Aug-28 03:20N 31°15' E 121°31'9452.1
2016-Aug-28 03:19N 31°22' E 121°36'4976251.1
2016-Aug-28 03:14N 39°04' E 117°51'051.4
2016-Aug-28 03:14N 39°04' E 117°51'47447438.8
2016-Aug-28 03:14N 31°39' E 121°13'47610854.6
2016-Aug-28 03:11N 39°05' E 117°46'504803.4
2016-Aug-28 02:33N 31°15' E 121°31'50447769.8
2016-Aug-28 02:33N 39°05' E 117°46'496162480.2
2016-Aug-28 02:33N 31°23' E 121°30'9634739.7
2016-Aug-28 02:32N 29°56' E 122°19'16258248.2
2016-Aug-28 02:32N 31°56' E 120°12'7553711.5
2016-Aug-28 02:32N 31°22' E 121°30'157.9
2016-Aug-28 02:31N 31°21' E 121°31'8711170.9
2016-Aug-28 02:30N 31°59' E 119°59'877279.8
2016-Aug-28 02:29N 31°21' E 121°31'67215912.7
2016-Aug-28 02:27N 22°18' E 114°08'6772436785.6
2016-Aug-28 02:27N 31°39' E 121°13'131348.6
2016-Aug-28 02:26N 31°30' E 121°23'3288868.2
2016-Aug-28 02:24N 36°53' E 122°26'3283130.4
2016-Aug-28 02:18N 31°29' E 121°25'4876494.4
2016-Aug-28 02:13N 39°04' E 117°51'9005497.8
2016-Aug-28 02:03N 24°05' E 118°02'420835.8
2016-Aug-28 01:33N 29°56' E 122°19'167602155.5
2016-Aug-28 01:33N 31°57' E 120°04'6521394.1
2016-Aug-28 01:33N 31°36' E 121°17'221768.6
2016-Aug-28 01:32N 31°20' E 121°33'46689.6
2016-Aug-28 01:32N 31°22' E 121°30'894659.9
2016-Aug-28 01:31N 32°03' E 119°57'815587.1
2016-Aug-28 01:30N 31°30' E 121°23'11248.9
2016-Aug-28 01:28N 31°21' E 121°31'6732.5
2016-Aug-28 01:27N 31°15' E 121°31'17403.6
2016-Aug-28 01:25N 31°31' E 121°23'65930791.1
2016-Aug-28 01:23N 23°04' E 113°29'65621668.4
2016-Aug-28 01:22N 31°21' E 121°31'10176.2
2016-Aug-28 01:18N 31°29' E 121°25'6754774.7
2016-Aug-28 01:10N 22°18' E 114°08'2454903.2
2016-Aug-28 01:07N 24°24' E 117°57'465831.0
2016-Aug-28 00:33N 31°32' E 121°22'7616059.7
2016-Aug-28 00:33N 32°00' E 119°59'6961848.7
2016-Aug-28 00:33N 31°38' E 121°15'11525966.5
2016-Aug-28 00:33N 29°56' E 122°19'1057879.1
2016-Aug-28 00:32N 31°30' E 121°23'658215354.5
2016-Aug-28 00:32N 23°04' E 113°29'659790299.6
2016-Aug-28 00:32N 31°31' E 121°23'121897.6
2016-Aug-28 00:31N 31°21' E 121°31'1114.6
2016-Aug-28 00:30N 31°22' E 121°30'67214229.0
2016-Aug-28 00:28N 22°18' E 114°08'672402997.5
2016-Aug-28 00:28N 31°21' E 121°31'6107.1
2016-Aug-28 00:24N 31°15' E 121°31'52420277.1
2016-Aug-28 00:23N 22°36' E 120°15'53748355.5
2016-Aug-28 00:22N 31°29' E 121°25'487438405.6
2016-Aug-28 00:22N 39°04' E 117°50'880287963.1
2016-Aug-28 00:22N 24°24' E 117°57'4702593.3
2016-Aug-28 00:11N 31°41' E 121°13'4754372.5
2016-Aug-28 00:04N 39°05' E 117°46'10241994.5
2016-Aug-27 23:34N 22°18' E 114°08'676810830.5
2016-Aug-27 23:34N 31°29' E 121°27'91442.3
2016-Aug-27 23:33N 31°35' E 121°19'11157078.8
2016-Aug-27 23:33N 29°56' E 122°19'9081058.3
2016-Aug-27 23:33N 31°18' E 121°34'4534.5
2016-Aug-27 23:32N 31°21' E 121°31'657337985.5
2016-Aug-27 23:32N 23°02' E 113°31'65721698.0
2016-Aug-27 23:31N 31°21' E 121°31'11305.3
2016-Aug-27 23:28N 31°30' E 121°23'4638593.1
2016-Aug-27 23:25N 24°24' E 117°57'4686764.1
2016-Aug-27 23:21N 31°59' E 120°02'8717487.2
2016-Aug-27 23:21N 31°15' E 121°31'667844.7
2016-Aug-27 22:33N 22°18' E 114°08'673269251.3
2016-Aug-27 22:33N 31°23' E 121°30'21104.6
2016-Aug-27 22:33N 31°21' E 121°31'8148874.3
2016-Aug-27 22:33N 31°58' E 120°06'2289.4
2016-Aug-27 22:33N 31°57' E 120°08'7970924.2
2016-Aug-27 22:32N 31°25' E 121°33'91355.1
2016-Aug-27 22:32N 31°30' E 121°23'163337.1
2016-Aug-27 22:32N 31°15' E 121°31'18862.8
2016-Aug-27 22:31N 31°32' E 121°23'13267.7
2016-Aug-27 22:28N 31°21' E 121°32'114.9
2016-Aug-27 22:22N 31°22' E 121°30'952051.0
2016-Aug-27 22:19N 29°56' E 122°19'106757.7
2016-Aug-27 22:11N 31°31' E 121°23'393.9
2016-Aug-27 22:09N 31°29' E 121°25'6751137.3
2016-Aug-27 21:33N 22°18' E 114°08'6362289357.1
2016-Aug-27 21:33N 29°56' E 122°19'969352.5
2016-Aug-27 21:33N 31°23' E 121°30'103087.7
2016-Aug-27 21:32N 31°31' E 121°23'31805.5
2016-Aug-27 21:32N 31°29' E 121°25'1311.3
2016-Aug-27 21:32N 31°30' E 121°24'1220724.1
2016-Aug-27 21:32N 31°24' E 121°35'4425.5
2016-Aug-27 21:32N 31°21' E 121°31'6271.3
2016-Aug-27 21:30N 31°15' E 121°31'6158.7
2016-Aug-27 21:28N 31°22' E 121°30'47335510.1
2016-Aug-27 21:27N 24°05' E 118°03'47942062.6
2016-Aug-27 21:26N 31°29' E 121°27'711427.5
2016-Aug-27 21:23N 31°57' E 120°10'163197.1
2016-Aug-27 20:34N 29°56' E 122°19'9758423.6
2016-Aug-27 20:33N 31°25' E 121°31'675142879.2
2016-Aug-27 20:33N 22°18' E 114°08'67641949.5
2016-Aug-27 20:32N 31°24' E 121°35'6828.4
2016-Aug-27 20:32N 31°27' E 121°29'61528.8
2016-Aug-27 20:32N 31°21' E 121°31'112785.5
2016-Aug-27 20:31N 31°30' E 121°24'101221.6
2016-Aug-27 20:31N 31°22' E 121°30'9134.1
2016-Aug-27 20:27N 31°29' E 121°25'695081.9
2016-Aug-27 20:26N 31°57' E 120°10'163186.3
2016-Aug-27 19:33N 29°56' E 122°19'16196458.2
2016-Aug-27 19:33N 31°57' E 120°15'769763.9
2016-Aug-27 19:33N 31°24' E 121°35'3976.0
2016-Aug-27 19:33N 31°25' E 121°32'7482.6
2016-Aug-27 19:32N 31°29' E 121°25'2199.9
2016-Aug-27 19:31N 31°28' E 121°26'71214.2
2016-Aug-27 19:31N 31°22' E 121°30'102817.6
2016-Aug-27 19:31N 31°30' E 121°24'11322.3
2016-Aug-27 19:29N 31°21' E 121°31'6722989.8
2016-Aug-27 19:15N 22°18' E 114°08'66775022.6
2016-Aug-27 19:15N 31°15' E 121°31'89129.8
2016-Aug-27 18:33N 29°56' E 122°19'160143788.6
2016-Aug-27 18:33N 31°60' E 120°20'669104766.4
2016-Aug-27 18:33N 22°18' E 114°08'676486648.2
2016-Aug-27 18:33N 31°24' E 121°35'5223.3
2016-Aug-27 18:32N 31°21' E 121°30'0332.3
2016-Aug-27 18:32N 31°21' E 121°31'11351.3
2016-Aug-27 18:30N 31°30' E 121°24'136.5
2016-Aug-27 18:28N 31°29' E 121°25'15100.0
2016-Aug-27 18:19N 31°17' E 121°34'66214985.2
2016-Aug-27 18:16N 22°53' E 113°31'66372368.9
2016-Aug-27 18:16N 31°22' E 121°30'134301.1
2016-Aug-27 18:16N 31°32' E 121°21'19578.2
2016-Aug-27 18:14N 31°15' E 121°31'73109.3
2016-Aug-27 17:33N 32°03' E 120°26'597367.7
2016-Aug-27 17:33N 31°30' E 121°24'1055253.9
2016-Aug-27 17:32N 29°56' E 122°19'9437741.6
2016-Aug-27 17:32N 31°21' E 121°31'153.9
2016-Aug-27 17:31N 31°21' E 121°30'0181.6
2016-Aug-27 17:31N 31°21' E 121°30'4204.6
2016-Aug-27 17:29N 31°22' E 121°35'12435.9
2016-Aug-27 17:28N 31°29' E 121°25'6755786.9
2016-Aug-27 17:21N 22°18' E 114°08'6707397.2
2016-Aug-27 17:15N 31°17' E 121°34'670942.4
2016-Aug-27 16:33N 22°18' E 114°08'6362289207.1
2016-Aug-27 16:33N 29°56' E 122°19'10511820.6
2016-Aug-27 16:32N 31°30' E 121°24'1142.1
2016-Aug-27 16:32N 31°29' E 121°25'9653.7
2016-Aug-27 16:31N 31°21' E 121°30'0240.6
2016-Aug-27 16:31N 31°21' E 121°30'1 4.8
2016-Aug-27 16:23N 31°21' E 121°31'1262.3
2016-Aug-27 16:11N 31°31' E 121°23'794018.7
2016-Aug-27 16:10N 32°02' E 119°57'175288.4
2016-Aug-27 15:33N 29°56' E 122°19'63654504.2
2016-Aug-27 15:33N 22°18' E 114°08'67711664.6
2016-Aug-27 15:29N 31°41' E 121°10'178800.8
2016-Aug-27 15:29N 31°29' E 121°25'141.9
2016-Aug-27 15:27N 31°30' E 121°24'1311418.5
2016-Aug-27 15:27N 31°22' E 121°35'4143.1
2016-Aug-27 15:26N 31°21' E 121°31'872833.1
2016-Aug-27 15:24N 31°60' E 119°60'862535.3
2016-Aug-27 15:22N 31°21' E 121°30'1012.6
2016-Aug-27 14:33N 31°30' E 121°24'10521014.5
2016-Aug-27 14:33N 29°56' E 122°19'9419944.4
2016-Aug-27 14:32N 31°23' E 121°37'866047.8
2016-Aug-27 14:32N 31°58' E 120°05'825987.8
2016-Aug-27 14:31N 31°21' E 121°30'8525553.3
2016-Aug-27 14:31N 31°59' E 120°01'3383.1
2016-Aug-27 14:30N 32°01' E 119°58'815287.0
2016-Aug-27 14:29N 31°29' E 121°25'15405.0
2016-Aug-27 14:27N 31°15' E 121°31'6278.1
2016-Aug-27 14:26N 31°21' E 121°31'94108.2
2016-Aug-27 13:33N 29°56' E 122°19'166597037.5
2016-Aug-27 13:33N 31°57' E 120°07'27248.7
2016-Aug-27 13:33N 31°56' E 120°08'689405.7
2016-Aug-27 13:33N 31°31' E 121°23'143041.1
2016-Aug-27 13:32N 31°23' E 121°37'676162349.6
2016-Aug-27 13:32N 22°18' E 114°08'675486117.9
2016-Aug-27 13:32N 31°30' E 121°24'762970.9
2016-Aug-27 13:31N 31°59' E 120°01'775036.5
2016-Aug-27 13:30N 31°29' E 121°25'10518.4
2016-Aug-27 13:29N 31°21' E 121°31'6134.1
2016-Aug-27 13:26N 31°15' E 121°31'693.8
2016-Aug-27 13:22N 31°22' E 121°30'345.2
2016-Aug-27 13:18N 31°23' E 121°33'995.9
2016-Aug-27 13:12N 31°29' E 121°24'1068.9
2016-Aug-27 13:04N 31°21' E 121°30'75146.8
2016-Aug-27 12:33N 31°57' E 120°13'7420466.1
2016-Aug-27 12:33N 31°23' E 121°30'2382280.1
2016-Aug-27 12:33N 31°41' E 121°13'139138.8
2016-Aug-27 12:33N 31°31' E 121°22'174802.2
2016-Aug-27 12:33N 31°15' E 121°31'66764883.9
2016-Aug-27 12:32N 22°18' E 114°08'636327025.0
2016-Aug-27 12:32N 29°56' E 122°19'10441729.4
2016-Aug-27 12:32N 31°30' E 121°24'199.6
2016-Aug-27 12:31N 31°30' E 121°24'6924924.4
2016-Aug-27 12:31N 31°56' E 120°08'7810014.8
2016-Aug-27 12:31N 31°21' E 121°30'0 2.3
2016-Aug-27 12:26N 31°21' E 121°30'5105.7
2016-Aug-27 12:23N 31°17' E 121°34'345.3
2016-Aug-27 12:19N 31°20' E 121°33'4220.4
2016-Aug-27 12:17N 31°23' E 121°36'94128.1
2016-Aug-27 11:33N 29°56' E 122°19'1046826.9
2016-Aug-27 11:32N 31°30' E 121°24'5317.4
2016-Aug-27 11:31N 31°26' E 121°29'71683.0
2016-Aug-27 11:31N 31°31' E 121°22'689842.1
2016-Aug-27 11:31N 31°57' E 120°08'7016736.4
2016-Aug-27 11:31N 31°30' E 121°24'6213999.2
2016-Aug-27 11:30N 31°59' E 120°19'753176.7
2016-Aug-27 11:29N 31°22' E 121°36'8849.2
2016-Aug-27 11:28N 31°15' E 121°31'66717652.2
2016-Aug-27 11:26N 22°18' E 114°08'6725559.6
2016-Aug-27 11:19N 31°21' E 121°30'24375.0
2016-Aug-27 11:15N 31°41' E 121°13'119170.4
2016-Aug-27 10:33N 29°56' E 122°19'63632703.6
2016-Aug-27 10:32N 22°18' E 114°08'67545011.3
2016-Aug-27 10:31N 31°31' E 121°22'6533614.9
2016-Aug-27 10:31N 31°57' E 120°12'7638848.7
2016-Aug-27 10:31N 31°22' E 121°30'532159468.5
2016-Aug-27 10:31N 22°34' E 120°17'53942208.0
2016-Aug-27 10:30N 31°30' E 121°24'17206.0
2016-Aug-27 10:25N 31°42' E 121°09'30964.5
2016-Aug-27 10:23N 31°22' E 121°36'723161.3
2016-Aug-27 10:22N 32°01' E 120°25'713451.0
2016-Aug-27 10:20N 31°20' E 121°33'723186.7
2016-Aug-27 10:19N 32°02' E 120°24'4407506.7
2016-Aug-27 10:15N 39°04' E 117°50'48717719.4
2016-Aug-27 10:14N 31°29' E 121°25'913.4
2016-Aug-27 09:33N 31°24' E 121°33'9610777.5
2016-Aug-27 09:33N 29°56' E 122°19'10676485.8
2016-Aug-27 09:33N 31°31' E 121°23'639442.1
2016-Aug-27 09:32N 31°57' E 120°15'732557.2
2016-Aug-27 09:31N 31°21' E 121°30'714925.9
2016-Aug-27 09:30N 31°57' E 120°18'626045.0
2016-Aug-27 09:29N 31°30' E 121°24'12619.7
2016-Aug-27 09:28N 31°39' E 121°14'132638.4
2016-Aug-27 09:28N 31°29' E 121°25'102056.8
2016-Aug-27 09:27N 31°21' E 121°32'939561.3
2016-Aug-27 09:27N 29°56' E 122°17'16215809.3
2016-Aug-27 09:26N 31°56' E 120°08'66167971.3
2016-Aug-27 09:26N 22°18' E 114°08'67514818.8
2016-Aug-27 09:23N 31°22' E 121°36'49710977.8
2016-Aug-27 09:20N 39°04' E 117°50'47310074.4
2016-Aug-27 09:17N 31°41' E 121°13'119161.5
2016-Aug-27 08:33N 29°56' E 122°19'1127095.1
2016-Aug-27 08:32N 31°36' E 121°18'82461.4
2016-Aug-27 08:32N 31°30' E 121°24'6301.1
2016-Aug-27 08:31N 31°34' E 121°18'8313.9
2016-Aug-27 08:29N 31°41' E 121°13'13203.9
2016-Aug-27 08:26N 31°31' E 121°23'675810254.5
2016-Aug-27 08:26N 22°18' E 114°08'67514819.9
2016-Aug-27 08:23N 31°29' E 121°25'989.1
2016-Aug-27 08:17N 31°22' E 121°30'4233.7
2016-Aug-27 08:16N 31°18' E 121°33'74524.8
2016-Aug-27 08:07N 31°58' E 120°20'12505.0
2016-Aug-27 08:06N 31°57' E 120°06'69129.2
2016-Aug-27 07:33N 31°32' E 121°22'10764471.2
2016-Aug-27 07:33N 29°56' E 122°19'16012236.7
2016-Aug-27 07:33N 31°57' E 120°16'627191.2
2016-Aug-27 07:32N 31°31' E 121°23'111065.7
2016-Aug-27 07:31N 31°38' E 121°14'677609246.3
2016-Aug-27 07:31N 22°18' E 114°08'675202552.1
2016-Aug-27 07:31N 31°30' E 121°24'6124357.1
2016-Aug-27 07:31N 32°00' E 120°22'711117.9
2016-Aug-27 07:27N 31°21' E 121°32'10450.7
2016-Aug-27 07:26N 31°29' E 121°25'53713917.1
2016-Aug-27 07:24N 22°36' E 120°15'5306514.9
2016-Aug-27 07:19N 31°22' E 121°30'241244.5
2016-Aug-27 07:18N 31°41' E 121°13'57616.0
2016-Aug-27 07:12N 31°56' E 120°08'82606.4
2016-Aug-27 07:04N 31°19' E 121°33'91176.4
2016-Aug-27 06:33N 29°56' E 122°19'918603.5
2016-Aug-27 06:32N 31°18' E 121°33'5982.4
2016-Aug-27 06:32N 31°24' E 121°32'3157.6
2016-Aug-27 06:31N 31°21' E 121°32'1440.8
2016-Aug-27 06:31N 31°22' E 121°30'932597.0
2016-Aug-27 06:31N 31°29' E 121°25'148.5
2016-Aug-27 06:29N 31°30' E 121°24'6927672.1
2016-Aug-27 06:29N 31°56' E 120°08'16927.9
2016-Aug-27 06:28N 32°03' E 120°25'581802.0
2016-Aug-27 06:26N 31°31' E 121°22'1481.5
2016-Aug-27 06:15N 31°22' E 121°36'69430.7
2016-Aug-27 06:06N 32°02' E 120°29'157101.5
2016-Aug-27 04:33N 29°56' E 122°19'11610676.3
2016-Aug-27 04:32N 31°38' E 121°15'1303.7
2016-Aug-27 04:32N 31°37' E 121°16'235096.7
2016-Aug-27 04:32N 31°22' E 121°36'74132935.6
2016-Aug-27 04:32N 31°59' E 120°20'1138456.7
2016-Aug-27 04:32N 31°56' E 120°08'44369296.9
2016-Aug-27 04:31N 39°04' E 117°50'48543670.7
2016-Aug-27 04:31N 31°31' E 121°23'31500.0
2016-Aug-27 04:31N 31°29' E 121°25'3219.4
2016-Aug-27 04:30N 31°31' E 121°22'296.9
2016-Aug-27 04:29N 31°30' E 121°24'161054.1
2016-Aug-27 04:28N 31°15' E 121°31'6933.3
2016-Aug-27 04:28N 31°22' E 121°30'5305766.4
2016-Aug-27 04:22N 22°36' E 120°15'99611530.6
2016-Aug-27 04:17N 39°04' E 117°51'591814.2
2016-Aug-27 03:33N 29°56' E 122°19'111199203.0
2016-Aug-27 03:33N 31°34' E 121°19'81914.1
2016-Aug-27 03:33N 31°28' E 121°25'53715581.2
2016-Aug-27 03:31N 22°35' E 120°14'86828409.5
2016-Aug-27 03:29N 36°56' E 122°28'335134168.1
2016-Aug-27 03:29N 31°23' E 121°34'9810.1
2016-Aug-27 03:28N 31°15' E 121°31'16950.4
2016-Aug-27 03:27N 31°30' E 121°24'10222.7
2016-Aug-27 03:25N 31°22' E 121°30'995.9
2016-Aug-27 03:19N 31°29' E 121°25'489586861.3
2016-Aug-27 03:19N 39°05' E 117°46'4993199.0
2016-Aug-27 03:10N 31°23' E 121°38'131071.7
2016-Aug-27 03:09N 31°29' E 121°25'2 2.8
2016-Aug-27 02:33N 31°31' E 121°24'106126997.3
2016-Aug-27 02:33N 29°56' E 122°19'10361768.3
2016-Aug-27 02:33N 31°28' E 121°25'12423.5
2016-Aug-27 02:32N 31°22' E 121°37'4739.1
2016-Aug-27 02:31N 31°21' E 121°32'2191.8
2016-Aug-27 02:31N 31°22' E 121°30'49854338.1
2016-Aug-27 02:30N 39°05' E 117°46'48843934.8
2016-Aug-27 02:29N 31°30' E 121°24'33074220.4
2016-Aug-27 02:29N 36°56' E 122°28'33610693.4
2016-Aug-27 02:27N 31°23' E 121°38'10151.6
2016-Aug-27 02:23N 31°15' E 121°31'15343.6
2016-Aug-27 02:21N 31°29' E 121°25'13373.0
2016-Aug-27 02:19N 31°18' E 121°33'1419.0
2016-Aug-27 01:33N 31°30' E 121°24'152158.1
2016-Aug-27 01:33N 31°21' E 121°38'1346741.5
2016-Aug-27 01:33N 31°28' E 121°25'10311581.5
2016-Aug-27 01:32N 29°56' E 122°19'964678.5
2016-Aug-27 01:31N 31°23' E 121°30'53862.3
2016-Aug-27 01:31N 31°18' E 121°33'4599.0
2016-Aug-27 01:31N 31°22' E 121°30'33713205.9
2016-Aug-27 01:29N 36°56' E 122°28'34461895.5
2016-Aug-27 01:29N 31°15' E 121°31'5024016.8
2016-Aug-27 01:21N 39°04' E 117°51'8999432.7
2016-Aug-27 01:16N 24°05' E 117°59'477677.1
2016-Aug-27 00:33N 31°24' E 121°31'979931.2
2016-Aug-27 00:33N 29°56' E 122°19'41922532.9
2016-Aug-27 00:32N 36°56' E 122°28'34428781.7
2016-Aug-27 00:31N 31°15' E 121°31'10296.1
2016-Aug-27 00:29N 31°25' E 121°33'6666.5
2016-Aug-27 00:28N 31°18' E 121°34'14234.3
2016-Aug-27 00:25N 31°30' E 121°24'1012309.7
2016-Aug-27 00:25N 31°21' E 121°30'4145.8
2016-Aug-27 00:23N 31°18' E 121°33'6146.4
2016-Aug-27 00:20N 31°23' E 121°38'12926.3
2016-Aug-27 00:20N 31°28' E 121°25'1215.8
2016-Aug-26 23:33N 31°18' E 121°33'41384.4
2016-Aug-26 23:33N 31°15' E 121°31'8980155.5
2016-Aug-26 23:33N 29°56' E 122°19'928096.1
2016-Aug-26 23:32N 31°20' E 121°33'132156.8
2016-Aug-26 23:32N 31°30' E 121°24'10449.5
2016-Aug-26 23:31N 31°21' E 121°30'8126.1
2016-Aug-26 23:27N 31°21' E 121°40'14611.1
2016-Aug-26 23:26N 31°28' E 121°25'121201.9
2016-Aug-26 23:25N 31°23' E 121°38'553.5
2016-Aug-26 23:19N 31°19' E 121°33'47630568.6
2016-Aug-26 23:18N 24°04' E 117°57'23619330.8
2016-Aug-26 23:17N 22°18' E 114°07'6354523.4
2016-Aug-26 23:09N 29°57' E 122°16'1176676.3
2016-Aug-26 23:08N 31°40' E 121°12'15988.6
2016-Aug-26 23:07N 31°29' E 121°25'813.7
2016-Aug-26 22:33N 31°23' E 121°30'201724.1
2016-Aug-26 22:33N 31°38' E 121°15'162741.6
2016-Aug-26 22:32N 31°30' E 121°31'102122591.9
2016-Aug-26 22:32N 29°56' E 122°19'1055910.6
2016-Aug-26 22:31N 31°30' E 121°24'1091.7
2016-Aug-26 22:25N 31°22' E 121°30'53701.4
2016-Aug-26 22:25N 31°17' E 121°34'6187.8
2016-Aug-26 22:23N 31°23' E 121°38'10210.4
2016-Aug-26 22:20N 31°15' E 121°31'15186.0
2016-Aug-26 22:15N 31°29' E 121°25'112.8
2016-Aug-26 22:10N 31°28' E 121°25'813.0
2016-Aug-26 21:33N 31°22' E 121°30'151975.6
2016-Aug-26 21:33N 31°34' E 121°20'5277.4
2016-Aug-26 21:32N 31°30' E 121°24'10669.5
2016-Aug-26 21:31N 31°22' E 121°30'8183.2
2016-Aug-26 21:28N 31°21' E 121°39'15154.0
2016-Aug-26 21:22N 31°29' E 121°25'1138.9
2016-Aug-26 21:22N 31°28' E 121°25'4826267.3
2016-Aug-26 21:17N 24°02' E 117°58'4813695.0
2016-Aug-26 21:10N 31°23' E 121°38'1525.1
2016-Aug-26 20:33N 31°30' E 121°23'121768.2
2016-Aug-26 20:33N 31°21' E 121°32'111799.0
2016-Aug-26 20:33N 31°30' E 121°25'14443.2
2016-Aug-26 20:31N 31°23' E 121°38'712028.6
2016-Aug-26 20:31N 31°22' E 121°30'47722905.0
2016-Aug-26 20:29N 24°03' E 117°58'47111626.0
2016-Aug-26 20:27N 31°15' E 121°31'14274.5
2016-Aug-26 20:24N 31°28' E 121°25'160.2
2016-Aug-26 20:23N 31°29' E 121°25'360.0
2016-Aug-26 20:20N 31°31' E 121°23'810.1
2016-Aug-26 19:33N 31°37' E 121°16'19422.5
2016-Aug-26 19:31N 31°22' E 121°30'8269.6
2016-Aug-26 19:29N 31°28' E 121°25'121235.3
2016-Aug-26 19:28N 31°23' E 121°38'13150.3
2016-Aug-26 19:23N 31°29' E 121°25'840.3
2016-Aug-26 19:11N 31°22' E 121°30'1 1.4
2016-Aug-26 18:33N 31°23' E 121°30'133.4
2016-Aug-26 18:31N 31°22' E 121°30'956330.6
2016-Aug-26 18:30N 29°56' E 122°19'1045425.7
2016-Aug-26 18:29N 31°29' E 121°25'135.6
2016-Aug-26 18:27N 31°28' E 121°25'8222.6
2016-Aug-26 18:25N 31°21' E 121°30'743.0
2016-Aug-26 18:15N 31°23' E 121°38'536.7
2016-Aug-26 18:07N 31°19' E 121°33'92159.5
2016-Aug-26 17:32N 29°56' E 122°19'9333468.2
2016-Aug-26 17:32N 31°20' E 121°33'101476.4
2016-Aug-26 17:32N 31°28' E 121°25'8407.1
2016-Aug-26 17:31N 31°22' E 121°30'9142.5
2016-Aug-26 17:27N 31°29' E 121°25'13607.2
2016-Aug-26 17:25N 31°23' E 121°38'7 7.8
2016-Aug-26 16:33N 31°21' E 121°30'2675.8
2016-Aug-26 16:33N 31°24' E 121°31'971810.6
2016-Aug-26 16:30N 29°56' E 122°19'933604.2
2016-Aug-26 16:28N 31°23' E 121°38'29344.4
2016-Aug-26 16:23N 31°41' E 121°11'25969.5
2016-Aug-26 16:22N 31°22' E 121°30'9119.1
2016-Aug-26 16:17N 31°29' E 121°25'1 0.8
2016-Aug-26 15:33N 31°29' E 121°24'10411043.9
2016-Aug-26 15:33N 29°56' E 122°19'11752556.7
2016-Aug-26 15:33N 31°39' E 121°14'22265.5
2016-Aug-26 15:28N 31°22' E 121°30'353.2
2016-Aug-26 15:25N 31°24' E 121°32'5143.9
2016-Aug-26 15:22N 31°22' E 121°37'1399.7
2016-Aug-26 15:14N 31°29' E 121°25'13176.7
2016-Aug-26 15:10N 31°23' E 121°38'710.7
2016-Aug-26 14:33N 31°23' E 121°30'174399.8
2016-Aug-26 14:33N 31°36' E 121°17'11381435.1
2016-Aug-26 14:33N 29°56' E 122°19'104187144.8
2016-Aug-26 14:33N 31°29' E 121°25'1758.0
2016-Aug-26 14:33N 31°28' E 121°25'78015.3
2016-Aug-26 14:33N 31°23' E 121°31'3484.0
2016-Aug-26 14:32N 31°26' E 121°29'121094.8
2016-Aug-26 14:32N 31°15' E 121°31'690.7
2016-Aug-26 14:28N 31°22' E 121°30'744.1
2016-Aug-26 14:18N 31°23' E 121°38'7 8.9
2016-Aug-26 13:34N 31°22' E 121°30'61224.2
2016-Aug-26 13:33N 31°15' E 121°31'196378.8
2016-Aug-26 13:33N 31°33' E 121°21'5357.6
2016-Aug-26 13:32N 31°29' E 121°25'12573.5
2016-Aug-26 13:31N 31°19' E 121°34'5105.9
2016-Aug-26 13:28N 31°23' E 121°32'9381.6
2016-Aug-26 13:27N 31°29' E 121°25'1041230.1
2016-Aug-26 13:22N 29°56' E 122°19'1046686.0
2016-Aug-26 13:21N 31°29' E 121°25'13254.5
2016-Aug-26 13:18N 31°23' E 121°38'12254.8
2016-Aug-26 13:15N 31°28' E 121°25'31038.4
2016-Aug-26 13:15N 31°31' E 121°23'106153.4
2016-Aug-26 12:33N 29°56' E 122°19'1065875.3
2016-Aug-26 12:32N 31°30' E 121°22'33071.3
2016-Aug-26 12:32N 31°29' E 121°25'3134.7
2016-Aug-26 12:31N 31°31' E 121°22'124157.7
2016-Aug-26 12:31N 31°21' E 121°30'7252.2
2016-Aug-26 12:29N 31°23' E 121°38'5236.0
2016-Aug-26 12:28N 31°21' E 121°32'102491.1
2016-Aug-26 12:27N 31°29' E 121°25'69375608.8
2016-Aug-26 12:27N 22°11' E 113°44'69323972.8
2016-Aug-26 12:25N 31°29' E 121°23'1683.0
2016-Aug-26 12:14N 31°15' E 121°31'6861017.4
2016-Aug-26 11:33N 22°08' E 113°49'65662104.2
2016-Aug-26 11:33N 29°56' E 122°19'10525153.0
2016-Aug-26 11:32N 31°29' E 121°23'161421.1
2016-Aug-26 11:32N 31°15' E 121°31'176936.1
2016-Aug-26 11:32N 31°31' E 121°22'259.2
2016-Aug-26 11:29N 31°32' E 121°20'181167.1
2016-Aug-26 11:28N 31°23' E 121°38'7564.6
2016-Aug-26 11:28N 31°21' E 121°30'11115.5
2016-Aug-26 11:22N 31°30' E 121°22'1161.2
2016-Aug-26 11:11N 31°22' E 121°30'1116.9
2016-Aug-26 10:33N 31°31' E 121°22'177817.9
2016-Aug-26 10:33N 31°15' E 121°31'1513658.9
2016-Aug-26 10:33N 31°29' E 121°25'8277.2
2016-Aug-26 10:31N 31°22' E 121°30'7168.8
2016-Aug-26 10:28N 31°23' E 121°38'1712554.8
2016-Aug-26 10:28N 31°32' E 121°21'131101.3
2016-Aug-26 10:28N 31°22' E 121°30'10120.2
2016-Aug-26 10:22N 31°29' E 121°23'148.1
2016-Aug-26 10:21N 31°30' E 121°24'674831.6
2016-Aug-26 09:32N 22°28' E 113°54'674115593.2
2016-Aug-26 09:32N 31°34' E 121°19'11012796.2
2016-Aug-26 09:31N 29°56' E 122°19'1046350.6
2016-Aug-26 09:30N 31°29' E 121°25'1157.2
2016-Aug-26 09:30N 31°29' E 121°23'290.6
2016-Aug-26 09:29N 31°31' E 121°22'17162.0
2016-Aug-26 09:22N 31°15' E 121°31'7216.9
2016-Aug-26 09:20N 31°22' E 121°30'7105.9
2016-Aug-26 09:16N 31°23' E 121°38'7289.3
2016-Aug-26 09:15N 31°21' E 121°30'28142.5
2016-Aug-26 09:03N 31°43' E 121°08'1836.7
2016-Aug-26 08:33N 31°29' E 121°23'9404.7
2016-Aug-26 08:32N 31°23' E 121°30'18991.5
2016-Aug-26 08:31N 31°37' E 121°16'8432.2
2016-Aug-26 08:30N 31°31' E 121°22'2217.9
2016-Aug-26 08:29N 31°29' E 121°25'9113.8
2016-Aug-26 08:24N 31°21' E 121°30'235.8
2016-Aug-26 08:20N 31°20' E 121°33'287.7
2016-Aug-26 08:19N 31°18' E 121°33'113.6
2016-Aug-26 08:14N 31°17' E 121°34'901568.9
2016-Aug-26 08:11N 29°56' E 122°19'16397789.7
2016-Aug-26 08:11N 31°57' E 120°11'115.8
2016-Aug-26 08:06N 31°57' E 120°09'4 7.8
2016-Aug-26 07:33N 31°57' E 120°14'16123162.3
2016-Aug-26 07:33N 29°56' E 122°19'1154860.7
2016-Aug-26 07:32N 31°38' E 121°16'725756.8
2016-Aug-26 07:31N 32°03' E 119°57'65965938.2
2016-Aug-26 07:30N 22°28' E 113°54'675110432.3
2016-Aug-26 07:30N 31°33' E 121°20'6577414.8
2016-Aug-26 07:30N 31°57' E 120°09'7035917.0
2016-Aug-26 07:30N 31°29' E 121°25'263.8
2016-Aug-26 07:28N 31°29' E 121°23'15446.7
2016-Aug-26 07:26N 31°41' E 121°11'67870.6
2016-Aug-26 07:22N 32°03' E 119°56'81100.7
2016-Aug-26 06:33N 31°29' E 121°23'61031.9
2016-Aug-26 06:33N 31°34' E 121°19'11113260.1
2016-Aug-26 06:32N 29°56' E 122°19'1594755.6
2016-Aug-26 06:30N 31°58' E 120°20'607246.8
2016-Aug-26 06:30N 31°30' E 121°23'961199.6
2016-Aug-26 06:25N 29°59' E 121°59'1581883.9
2016-Aug-26 06:20N 31°60' E 119°60'9498.8
2016-Aug-26 06:19N 31°57' E 120°09'13106.5
2016-Aug-26 06:12N 32°03' E 119°56'174105.7
2016-Aug-26 04:33N 29°49' E 122°06'132171.3
2016-Aug-26 04:33N 29°56' E 122°19'16429581.1
2016-Aug-26 04:33N 31°57' E 120°09'11823.6
2016-Aug-26 04:33N 31°57' E 120°09'775758.1
2016-Aug-26 04:32N 31°25' E 121°32'8461.3
2016-Aug-26 04:31N 31°30' E 121°24'132.5
2016-Aug-26 04:30N 31°30' E 121°24'198.7
2016-Aug-26 04:29N 31°29' E 121°25'1323657.7
2016-Aug-26 04:29N 31°23' E 121°38'784.4
2016-Aug-26 04:24N 31°22' E 121°30'4967564.7
2016-Aug-26 04:20N 39°04' E 117°50'49711395.5
2016-Aug-26 04:17N 31°22' E 121°36'5114811.8
2016-Aug-26 04:11N 23°06' E 119°23'440700.3
2016-Aug-26 03:33N 29°56' E 122°19'1055252.5
2016-Aug-26 03:32N 31°30' E 121°24'67242352.0
2016-Aug-26 03:32N 31°56' E 120°10'1161.6
2016-Aug-26 03:32N 31°57' E 120°09'1651860.3
2016-Aug-26 03:26N 29°43' E 122°02'1122248.9
2016-Aug-26 03:23N 31°30' E 121°24'69672.5
2016-Aug-26 03:17N 31°57' E 120°10'691655.8
2016-Aug-26 03:15N 31°29' E 121°25'51428441.4
2016-Aug-26 03:14N 23°08' E 119°21'438654.0
2016-Aug-26 02:33N 29°56' E 122°19'16316816.9
2016-Aug-26 02:33N 31°57' E 120°10'6849104.8
2016-Aug-26 02:33N 31°30' E 121°24'182.3
2016-Aug-26 02:32N 31°30' E 121°24'672660.3
2016-Aug-26 02:31N 31°55' E 120°11'6817438.0
2016-Aug-26 02:30N 31°29' E 121°25'7014805.2
2016-Aug-26 02:30N 31°57' E 120°09'68601.5
2016-Aug-26 02:23N 31°31' E 121°23'106127.2
2016-Aug-26 01:33N 29°56' E 122°19'1044403.6
2016-Aug-26 01:32N 31°29' E 121°25'683643.9
2016-Aug-26 01:31N 31°55' E 120°11'2257.7
2016-Aug-26 01:30N 31°57' E 120°09'699149.8
2016-Aug-26 01:30N 31°30' E 121°24'687015.2
2016-Aug-26 01:29N 31°57' E 120°10'692194.4
2016-Aug-26 01:27N 31°30' E 121°24'1031.6
2016-Aug-26 01:09N 31°22' E 121°30'6327.4
2016-Aug-26 01:08N 31°15' E 121°31'1627.6
2016-Aug-26 00:33N 31°30' E 121°24'105126059.4
2016-Aug-26 00:33N 29°56' E 122°19'16432703.0
2016-Aug-26 00:32N 31°57' E 120°10'8236866.7
2016-Aug-26 00:32N 31°17' E 121°34'33763.3
2016-Aug-26 00:32N 31°15' E 121°31'813550.4
2016-Aug-26 00:31N 31°57' E 120°09'775069.1
2016-Aug-26 00:30N 31°21' E 121°30'753930.4
2016-Aug-26 00:29N 31°55' E 120°11'811500.1
2016-Aug-26 00:26N 31°23' E 121°38'16383.9
2016-Aug-26 00:23N 31°31' E 121°23'266.1
2016-Aug-26 00:21N 31°30' E 121°24'105130.2
2016-Aug-25 23:33N 29°56' E 122°19'89320535.3
2016-Aug-25 23:33N 31°15' E 121°31'841516.1
2016-Aug-25 23:30N 31°58' E 120°05'9563.9
2016-Aug-25 23:29N 32°03' E 119°56'13484.2
2016-Aug-25 23:27N 31°57' E 120°09'8210227.5
2016-Aug-25 23:27N 31°17' E 121°34'82147562.9
2016-Aug-25 23:27N 31°57' E 120°10'673218.7
2016-Aug-25 23:26N 31°31' E 121°23'16611.1
2016-Aug-25 23:24N 31°23' E 121°38'765.3
2016-Aug-25 23:18N 31°21' E 121°30'754844.3
2016-Aug-25 23:17N 31°55' E 120°11'80782.3
2016-Aug-25 23:11N 31°17' E 121°34'018.5
2016-Aug-25 23:11N 31°17' E 121°34'6 9.0
2016-Aug-25 22:33N 31°22' E 121°30'61936.5
2016-Aug-25 22:33N 31°15' E 121°31'1656935.6
2016-Aug-25 22:33N 31°30' E 121°24'696363.4
2016-Aug-25 22:32N 31°57' E 120°09'6711031.7
2016-Aug-25 22:32N 31°31' E 121°23'10621259.5
2016-Aug-25 22:31N 29°56' E 122°19'16211188.4
2016-Aug-25 22:31N 31°55' E 120°11'1242852.6
2016-Aug-25 22:30N 32°01' E 120°24'12461.0
2016-Aug-25 22:29N 31°57' E 120°10'027.3
2016-Aug-25 22:28N 31°57' E 120°10'821219.6
2016-Aug-25 22:24N 31°17' E 121°34'7561.1
2016-Aug-25 22:23N 31°23' E 121°38'7165.2
2016-Aug-25 22:21N 31°17' E 121°34'152411.5
2016-Aug-25 22:20N 31°30' E 121°24'151068.5
2016-Aug-25 22:19N 31°17' E 121°34'95670.4
2016-Aug-25 22:11N 32°03' E 119°56'17179.4
2016-Aug-25 22:05N 31°57' E 120°15'0 0.9
2016-Aug-25 21:33N 31°57' E 120°14'3341.3
2016-Aug-25 21:33N 31°57' E 120°18'775208.6
2016-Aug-25 21:32N 31°23' E 121°38'9313972.2
2016-Aug-25 21:31N 29°56' E 122°19'8912328.3
2016-Aug-25 21:31N 31°15' E 121°31'815598.9
2016-Aug-25 21:30N 31°57' E 120°09'7730995.0
2016-Aug-25 21:30N 31°21' E 121°30'775235.3
2016-Aug-25 21:29N 31°57' E 120°10'8221060.6
2016-Aug-25 21:29N 31°17' E 121°34'8018034.1
2016-Aug-25 21:29N 31°55' E 120°11'684401.1
2016-Aug-25 21:28N 31°28' E 121°25'296.0
2016-Aug-25 21:27N 31°30' E 121°24'611374.4
2016-Aug-25 21:24N 31°59' E 120°21'5411205040.8
2016-Aug-25 21:22N 49°18' W 123°02'5388188317.9
2016-Aug-25 21:21N 31°31' E 121°23'286.9
2016-Aug-25 21:19N 31°29' E 121°25'12474.7
2016-Aug-25 21:17N 31°20' E 121°33'934539.9
2016-Aug-25 21:16N 32°03' E 119°56'27152.2
2016-Aug-25 21:05N 32°02' E 120°28'47736535.6
2016-Aug-25 21:04N 24°24' E 117°57'590311363.7
2016-Aug-25 20:33N 49°18' W 123°06'54214879235.5
2016-Aug-25 20:33N 29°56' E 122°19'163586134.1
2016-Aug-25 20:33N 31°56' E 120°10'7668389.8
2016-Aug-25 20:33N 31°22' E 121°30'12483.0
2016-Aug-25 20:33N 31°23' E 121°30'7010139.4
2016-Aug-25 20:33N 31°59' E 120°19'469105627.0
2016-Aug-25 20:32N 24°25' E 118°01'45649749.9
2016-Aug-25 20:32N 31°22' E 121°30'772609.6
2016-Aug-25 20:30N 31°57' E 120°09'7719925.3
2016-Aug-25 20:30N 31°21' E 121°30'122599.6
2016-Aug-25 20:30N 31°31' E 121°23'16416.8
2016-Aug-25 20:27N 31°23' E 121°38'714118.7
2016-Aug-25 20:26N 31°58' E 120°26'7050420.9
2016-Aug-25 20:26N 31°15' E 121°31'7917705.6
2016-Aug-25 20:26N 31°55' E 120°11'671140.8
2016-Aug-25 20:22N 31°30' E 121°24'226.3
2016-Aug-25 20:19N 31°28' E 121°25'120.8
2016-Aug-25 20:15N 31°29' E 121°24'0126.9
2016-Aug-25 20:15N 31°29' E 121°25'53777824.6
2016-Aug-25 19:34N 49°20' W 123°15'58892650124.3
2016-Aug-25 19:33N 24°22' E 118°08'402241194.5
2016-Aug-25 19:33N 29°56' E 122°19'9210296.7
2016-Aug-25 19:33N 31°21' E 121°39'9110869.5
2016-Aug-25 19:32N 31°58' E 120°02'8731212.9
2016-Aug-25 19:32N 31°15' E 121°31'8113864.6
2016-Aug-25 19:32N 31°57' E 120°09'70125705.0
2016-Aug-25 19:32N 31°29' E 121°25'1110.4
2016-Aug-25 19:31N 31°30' E 121°24'10389.6
2016-Aug-25 19:30N 31°22' E 121°30'8406.2
2016-Aug-25 19:29N 31°28' E 121°25'12267.1
2016-Aug-25 19:26N 31°23' E 121°38'81740.3
2016-Aug-25 19:19N 31°55' E 120°11'65364.7
2016-Aug-25 19:09N 31°31' E 121°23'68115.1
2016-Aug-25 18:33N 31°57' E 120°09'164589889.7
2016-Aug-25 18:33N 29°56' E 122°19'408209899.7
2016-Aug-25 18:33N 24°15' E 118°08'58932121634.3
2016-Aug-25 18:33N 49°17' W 123°19'53781613416.5
2016-Aug-25 18:33N 31°22' E 121°30'81117.0
2016-Aug-25 18:32N 31°28' E 121°25'8349728.0
2016-Aug-25 18:32N 32°03' E 119°56'933995.2
2016-Aug-25 18:31N 31°15' E 121°31'797263.8
2016-Aug-25 18:30N 31°55' E 120°11'13243.1
2016-Aug-25 18:27N 31°58' E 120°26'552009.1
2016-Aug-25 18:25N 31°31' E 121°23'285.7
2016-Aug-25 18:24N 31°30' E 121°24'14836.1
2016-Aug-25 18:23N 31°23' E 121°38'13584.0
2016-Aug-25 18:22N 31°29' E 121°25'536665.7
2016-Aug-25 17:33N 22°37' E 120°15'5873960996.0
2016-Aug-25 17:33N 49°12' W 123°26'54051769012.9
2016-Aug-25 17:33N 31°55' E 120°11'6716145.8
2016-Aug-25 17:33N 31°30' E 121°24'114.3
2016-Aug-25 17:30N 31°29' E 121°25'155433.0
2016-Aug-25 17:30N 31°15' E 121°31'63888.8
2016-Aug-25 17:30N 31°22' E 121°30'7105.1
2016-Aug-25 17:26N 31°23' E 121°38'12413.0
2016-Aug-25 17:24N 31°28' E 121°25'713790.8
2016-Aug-25 17:23N 31°57' E 120°09'4834016.6
2016-Aug-25 17:16N 24°07' E 117°60'48822827.6
2016-Aug-25 17:15N 31°58' E 120°26'5781.7
2016-Aug-25 16:33N 31°30' E 121°24'665217623.3
2016-Aug-25 16:33N 23°02' E 113°21'61721169475.0
2016-Aug-25 16:32N 49°06' W 123°32'54071946580.9
2016-Aug-25 16:32N 29°56' E 122°19'892225.5
2016-Aug-25 16:30N 31°15' E 121°31'141033.5
2016-Aug-25 16:29N 31°28' E 121°25'8248.2
2016-Aug-25 16:27N 31°22' E 121°30'771266.9
2016-Aug-25 16:23N 31°57' E 120°09'265.7
2016-Aug-25 16:21N 31°55' E 120°11'642808.8
2016-Aug-25 15:33N 23°04' E 113°25'631252499.0
2016-Aug-25 15:33N 29°56' E 122°19'16439329.4
2016-Aug-25 15:33N 31°57' E 120°09'703266.8
2016-Aug-25 15:32N 31°29' E 121°25'6815254.6
2016-Aug-25 15:32N 31°55' E 120°11'753757.7
2016-Aug-25 15:30N 31°22' E 121°30'10248.5
2016-Aug-25 15:28N 31°30' E 121°24'257.9
2016-Aug-25 15:26N 31°28' E 121°25'1446.9
2016-Aug-25 15:08N 31°15' E 121°31'1017.5
2016-Aug-25 14:33N 31°25' E 121°30'53678.1
2016-Aug-25 14:33N 31°28' E 121°25'103185333.6
2016-Aug-25 14:33N 29°56' E 122°19'628125638.0
2016-Aug-25 14:33N 23°03' E 113°30'65934381.4
2016-Aug-25 14:32N 31°29' E 121°25'184.3
2016-Aug-25 14:31N 31°30' E 121°24'6916644.0
2016-Aug-25 14:31N 31°57' E 120°09'791917.3
2016-Aug-25 14:29N 31°23' E 121°34'493.1
2016-Aug-25 14:26N 31°23' E 121°38'81641.9
2016-Aug-25 14:19N 31°55' E 120°11'721256.8
2016-Aug-25 14:15N 31°20' E 121°25'1013.8
2016-Aug-25 13:33N 31°30' E 121°23'10523686.4
2016-Aug-25 13:33N 29°56' E 122°19'9426141.3
2016-Aug-25 13:33N 31°21' E 121°31'63142.3
2016-Aug-25 13:33N 31°15' E 121°31'141688.7
2016-Aug-25 13:32N 31°28' E 121°25'7299.1
2016-Aug-25 13:31N 31°22' E 121°29'814541.5
2016-Aug-25 13:31N 31°29' E 121°25'1121.3
2016-Aug-25 13:30N 31°30' E 121°24'671180.7
2016-Aug-25 13:27N 31°55' E 120°11'266.3
2016-Aug-25 13:25N 31°57' E 120°09'5094405.8
2016-Aug-25 13:18N 23°45' E 117°39'5043117.9
2016-Aug-25 13:08N 31°23' E 121°38'2136.8
2016-Aug-25 12:33N 31°35' E 121°17'5395058.2
2016-Aug-25 12:33N 32°00' E 120°23'15928598.0
2016-Aug-25 12:33N 29°56' E 122°19'939317.9
2016-Aug-25 12:32N 31°23' E 121°38'696626438.1
2016-Aug-25 12:32N 22°13' E 113°40'69431640.0
2016-Aug-25 12:31N 31°30' E 121°24'1326.8
2016-Aug-25 12:31N 31°29' E 121°25'2163.8
2016-Aug-25 12:30N 31°31' E 121°23'683116.0
2016-Aug-25 12:29N 31°57' E 120°09'711814.0
2016-Aug-25 12:26N 31°28' E 121°25'14538.7
2016-Aug-25 12:25N 31°15' E 121°31'79679.4
2016-Aug-25 12:18N 31°55' E 120°11'810.6
2016-Aug-25 11:33N 31°58' E 120°20'6035965.0
2016-Aug-25 11:33N 31°31' E 121°23'2148.5
2016-Aug-25 11:32N 31°29' E 121°25'1527327.9
2016-Aug-25 11:32N 31°15' E 121°31'8980133.8
2016-Aug-25 11:32N 29°56' E 122°19'16927626.5
2016-Aug-25 11:31N 31°58' E 120°03'767232.3
2016-Aug-25 11:31N 31°28' E 121°25'162602.5
2016-Aug-25 11:30N 31°40' E 121°12'56921.4
2016-Aug-25 11:27N 31°57' E 120°09'229.1
2016-Aug-25 11:22N 31°55' E 120°11'67275.1
2016-Aug-25 11:07N 31°30' E 121°24'5397351.7
2016-Aug-25 11:03N 22°34' E 120°16'5391064.0
2016-Aug-25 10:33N 31°30' E 121°24'7128488.5
2016-Aug-25 10:32N 31°57' E 120°06'8342749.3
2016-Aug-25 10:32N 31°15' E 121°31'8918855.0
2016-Aug-25 10:32N 29°56' E 122°19'16484281.8
2016-Aug-25 10:32N 31°57' E 120°09'6715164.4
2016-Aug-25 10:32N 31°31' E 121°23'782608.2
2016-Aug-25 10:30N 32°02' E 119°58'813408.1
2016-Aug-25 10:28N 31°28' E 121°25'45458405.2
2016-Aug-25 10:28N 24°28' E 118°11'45591012.0
2016-Aug-25 10:28N 31°29' E 121°25'652769.7
2016-Aug-25 10:26N 31°56' E 120°14'10355.5
2016-Aug-25 10:25N 31°58' E 120°26'13417.2
2016-Aug-25 10:23N 31°55' E 120°11'15576.3
2016-Aug-25 10:21N 32°03' E 119°56'5276256.8
2016-Aug-25 10:16N 23°17' E 119°20'1036420.9
2016-Aug-25 10:15N 23°45' E 117°31'50321038.9
2016-Aug-25 10:14N 31°19' E 121°33'22732.1
2016-Aug-25 10:12N 31°09' E 121°11'26199.3
2016-Aug-25 10:04N 31°21' E 121°38'2040.4
2016-Aug-25 09:33N 31°33' E 121°19'11039557.7
2016-Aug-25 09:33N 29°56' E 122°19'12248903.0
2016-Aug-25 09:33N 31°43' E 121°09'456102686.5
2016-Aug-25 09:33N 24°34' E 118°10'438197237.8
2016-Aug-25 09:33N 31°15' E 121°31'87483.1
2016-Aug-25 09:33N 31°22' E 121°35'47728.2
2016-Aug-25 09:33N 31°23' E 121°30'7326439.8
2016-Aug-25 09:33N 31°57' E 120°13'6712614.2
2016-Aug-25 09:32N 31°10' E 121°09'23911.4
2016-Aug-25 09:31N 31°29' E 121°25'2739.3
2016-Aug-25 09:30N 31°31' E 121°23'17182.8
2016-Aug-25 09:25N 31°15' E 121°30'14277.8
2016-Aug-25 09:22N 31°28' E 121°25'81733.9
2016-Aug-25 09:21N 31°21' E 121°26'731283.8
2016-Aug-25 09:18N 31°56' E 120°11'825541.6
2016-Aug-25 09:17N 31°21' E 121°38'711238.1
2016-Aug-25 09:14N 31°58' E 120°26'156229.6
2016-Aug-25 08:33N 29°56' E 122°19'8920032.3
2016-Aug-25 08:33N 31°15' E 121°31'104394.3
2016-Aug-25 08:33N 31°23' E 121°38'677348131.8
2016-Aug-25 08:33N 22°28' E 113°52'655168301.1
2016-Aug-25 08:32N 31°14' E 121°09'205175.9
2016-Aug-25 08:32N 31°29' E 121°24'81154.2
2016-Aug-25 08:32N 31°23' E 121°31'81377.0
2016-Aug-25 08:31N 31°30' E 121°24'11486.5
2016-Aug-25 08:30N 31°38' E 121°15'10495.8
2016-Aug-25 08:29N 31°31' E 121°23'621582.5
2016-Aug-25 08:26N 31°57' E 120°16'743876.1
2016-Aug-25 08:25N 31°23' E 121°33'20355.3
2016-Aug-25 08:22N 31°37' E 121°16'1156.5
2016-Aug-25 08:10N 31°29' E 121°25'8135.1
2016-Aug-25 08:07N 31°22' E 121°29'915.8
2016-Aug-25 07:33N 31°30' E 121°24'133974.7
2016-Aug-25 07:33N 31°39' E 121°13'2545180.3
2016-Aug-25 07:33N 31°20' E 121°33'61467.4
2016-Aug-25 07:33N 31°15' E 121°31'78472.7
2016-Aug-25 07:33N 31°22' E 121°30'672134443.8
2016-Aug-25 07:33N 22°28' E 113°52'67511740.7
2016-Aug-25 07:29N 31°31' E 121°23'113610.8
2016-Aug-25 07:29N 31°22' E 121°30'7194.0
2016-Aug-25 07:27N 31°23' E 121°38'15143.7
2016-Aug-25 07:21N 31°30' E 121°23'226.0
2016-Aug-25 07:17N 31°32' E 121°23'20111.9
2016-Aug-25 07:06N 31°17' E 121°08'1934.9
2016-Aug-25 06:33N 31°30' E 121°24'2152.0
2016-Aug-25 06:32N 31°29' E 121°27'5435.6
2016-Aug-25 06:32N 31°26' E 121°30'23608.6
2016-Aug-25 06:29N 31°17' E 121°05'2277849.2
2016-Aug-25 06:29N 31°15' E 121°31'273633.4
2016-Aug-25 06:29N 31°38' E 121°14'111153.4
2016-Aug-25 06:28N 31°30' E 121°23'342.4
2016-Aug-25 06:24N 31°31' E 121°20'674101077.8
2016-Aug-25 06:23N 22°28' E 113°52'67512032.1
2016-Aug-25 06:20N 31°31' E 121°23'10800.6
2016-Aug-25 06:19N 31°23' E 121°30'4425426.3
2016-Aug-25 06:14N 24°38' E 118°11'4464747.4
2016-Aug-25 06:09N 31°29' E 121°25'489307.7
2016-Aug-25 04:33N 39°05' E 117°46'499448826.2
2016-Aug-25 04:33N 31°21' E 121°31'6562362708.4
2016-Aug-25 04:33N 23°03' E 113°30'65925789.5
2016-Aug-25 04:32N 31°30' E 121°24'1176.5
2016-Aug-25 04:31N 31°30' E 121°23'1053836.0
2016-Aug-25 04:30N 29°56' E 122°19'89325.4
2016-Aug-25 04:13N 31°15' E 121°31'15303.5
2016-Aug-25 04:10N 31°29' E 121°25'13156.2
2016-Aug-25 04:05N 31°23' E 121°38'1528.1
2016-Aug-25 03:34N 31°30' E 121°23'10542189.8
2016-Aug-25 03:33N 29°56' E 122°19'10522144.2
2016-Aug-25 03:33N 31°30' E 121°24'663113641.7
2016-Aug-25 03:33N 23°02' E 113°24'277199643.4
2016-Aug-25 03:33N 24°36' E 118°10'43727097.7
2016-Aug-25 03:32N 31°15' E 121°31'152172.4
2016-Aug-25 03:31N 31°29' E 121°25'15195.0
2016-Aug-25 03:27N 31°15' E 121°30'8997.8
2016-Aug-25 02:32N 29°56' E 122°19'1048911.7
2016-Aug-25 02:31N 31°29' E 121°25'2164.3
2016-Aug-25 02:31N 31°30' E 121°23'119.7
2016-Aug-25 02:27N 31°30' E 121°24'45419221.2
2016-Aug-25 02:26N 24°29' E 118°12'2674246.1
2016-Aug-25 02:22N 22°27' E 113°54'101728831.1
2016-Aug-25 02:20N 39°05' E 117°45'5008219.3
2016-Aug-25 02:16N 31°23' E 121°38'711518.8
2016-Aug-25 02:13N 31°58' E 120°26'54118009.8
2016-Aug-25 01:33N 48°44' W 123°17'5427407050.7
2016-Aug-25 01:32N 29°56' E 122°19'4008832.4
2016-Aug-25 01:29N 24°25' E 118°06'46945674.1
2016-Aug-25 01:29N 31°58' E 120°26'563413.0
2016-Aug-25 01:28N 31°30' E 121°23'143.6
2016-Aug-25 01:26N 31°30' E 121°24'15125.3
2016-Aug-25 01:19N 31°17' E 121°34'1458.7
2016-Aug-25 01:04N 31°29' E 121°25'1019.9
2016-Aug-25 00:33N 31°21' E 121°31'9419866.3
2016-Aug-25 00:32N 29°56' E 122°19'1053760.1
2016-Aug-25 00:31N 31°30' E 121°23'16189.5
2016-Aug-25 00:26N 31°17' E 121°34'15157.4
2016-Aug-25 00:20N 31°30' E 121°24'1 9.5
2016-Aug-25 00:16N 31°29' E 121°25'131884.1
2016-Aug-25 00:15N 31°23' E 121°38'5393808967.3
2016-Aug-25 00:15N 48°35' W 123°14'539778350.7
2016-Aug-25 00:11N 31°29' E 121°25'15225.6
2016-Aug-25 00:07N 31°15' E 121°31'1017.6
2016-Aug-24 23:33N 31°23' E 121°38'53954855636.2
2016-Aug-24 23:33N 48°31' W 123°14'54203902071.7
2016-Aug-24 23:33N 31°58' E 120°26'5522073.2
2016-Aug-24 23:33N 31°31' E 121°23'12167.6
2016-Aug-24 23:29N 31°21' E 121°30'105945.5
2016-Aug-24 23:29N 31°30' E 121°24'1145.0
2016-Aug-24 23:28N 31°30' E 121°23'10629216.3
2016-Aug-24 23:28N 29°56' E 122°19'106116.8
2016-Aug-24 22:33N 31°31' E 121°23'53992429741.2
2016-Aug-24 22:33N 48°27' W 123°17'54192167651.6
2016-Aug-24 22:33N 31°58' E 120°26'6523222.1
2016-Aug-24 22:33N 31°22' E 121°29'966277.6
2016-Aug-24 22:32N 29°56' E 122°19'10520930.0
2016-Aug-24 22:32N 31°30' E 121°24'1176.5
2016-Aug-24 22:31N 31°30' E 121°23'176623.8
2016-Aug-24 22:31N 31°15' E 121°31'10199.6
2016-Aug-24 22:28N 31°23' E 121°38'8 8.3
2016-Aug-24 21:33N 31°22' E 121°29'725625.6
2016-Aug-24 21:33N 31°15' E 121°31'8914572.9
2016-Aug-24 21:32N 29°56' E 122°19'5434310510.3
2016-Aug-24 21:31N 48°27' W 123°18'53982776185.0
2016-Aug-24 21:31N 31°30' E 121°24'242.6
2016-Aug-24 21:29N 31°31' E 121°23'1 9.6
2016-Aug-24 21:24N 31°30' E 121°23'274.8
2016-Aug-24 21:22N 31°29' E 121°25'13932.4
2016-Aug-24 21:21N 31°23' E 121°38'331074.9
2016-Aug-24 21:20N 31°43' E 121°08'3442.8
2016-Aug-24 20:32N 31°15' E 121°31'171068.1
2016-Aug-24 20:31N 31°30' E 121°23'120.3
2016-Aug-24 20:29N 31°31' E 121°23'2322.9
2016-Aug-24 20:29N 31°30' E 121°24'136470.7
2016-Aug-24 20:29N 31°39' E 121°14'1171338.7
2016-Aug-24 20:23N 29°56' E 122°19'1043638.5
2016-Aug-24 20:22N 31°29' E 121°25'13129.6
2016-Aug-24 20:16N 31°23' E 121°38'1419.5
2016-Aug-24 19:33N 31°30' E 121°24'6728.3
2016-Aug-24 19:33N 31°34' E 121°19'76507.0
2016-Aug-24 19:33N 31°39' E 121°14'284397.0
2016-Aug-24 19:32N 31°21' E 121°39'10409.5
2016-Aug-24 19:31N 31°15' E 121°31'173286.0
2016-Aug-24 19:30N 31°31' E 121°23'155.6
2016-Aug-24 19:30N 31°30' E 121°23'10584.0
2016-Aug-24 19:29N 31°22' E 121°29'852.6
2016-Aug-24 19:19N 31°29' E 121°25'701287.8
2016-Aug-24 19:16N 31°57' E 120°09'16423654.7
2016-Aug-24 19:16N 29°56' E 122°19'1762815.5
2016-Aug-24 19:12N 32°03' E 119°56'13386.5
2016-Aug-24 19:10N 31°56' E 120°10'237.9
2016-Aug-24 19:07N 31°55' E 120°11'162285.8
2016-Aug-24 18:33N 29°56' E 122°19'9612779.9
2016-Aug-24 18:33N 31°22' E 121°29'72072.6
2016-Aug-24 18:33N 31°29' E 121°25'84078.7
2016-Aug-24 18:33N 31°35' E 121°19'6487.3
2016-Aug-24 18:32N 31°30' E 121°23'1196.9
2016-Aug-24 18:32N 31°31' E 121°23'2167.1
2016-Aug-24 18:31N 31°29' E 121°25'706312.2
2016-Aug-24 18:30N 31°57' E 120°09'128.8
2016-Aug-24 18:28N 31°56' E 120°10'802807.8
2016-Aug-24 18:26N 31°15' E 121°31'942323.5
2016-Aug-24 18:24N 32°03' E 119°56'8919.7
2016-Aug-24 18:23N 31°58' E 120°04'747863.1
2016-Aug-24 18:23N 31°30' E 121°24'105127.5
2016-Aug-24 17:34N 29°56' E 122°19'106190834.8
2016-Aug-24 17:34N 31°31' E 121°24'6913834.7
2016-Aug-24 17:33N 31°57' E 120°08'726132.3
2016-Aug-24 17:33N 31°28' E 121°25'2257.6
2016-Aug-24 17:32N 31°30' E 121°24'931302.4
2016-Aug-24 17:32N 31°22' E 121°29'10754.0
2016-Aug-24 17:31N 31°30' E 121°23'685800.1
2016-Aug-24 17:31N 31°56' E 120°10'131540.0
2016-Aug-24 17:30N 32°03' E 119°56'121435.2
2016-Aug-24 17:30N 31°57' E 120°09'70987.7
2016-Aug-24 17:25N 31°29' E 121°25'153018.3
2016-Aug-24 17:25N 31°15' E 121°31'90345.3
2016-Aug-24 17:09N 31°60' E 119°60'77125.6
2016-Aug-24 16:33N 31°30' E 121°23'104949.5
2016-Aug-24 16:33N 31°22' E 121°29'7213711.4
2016-Aug-24 16:32N 31°57' E 120°14'5523.6
2016-Aug-24 16:32N 31°57' E 120°09'7380.3
2016-Aug-24 16:31N 31°59' E 120°02'774499.6
2016-Aug-24 16:30N 31°28' E 121°25'2187.3
2016-Aug-24 16:29N 31°30' E 121°24'6679268.9
2016-Aug-24 16:25N 22°54' E 113°30'667342875.9
2016-Aug-24 16:25N 31°29' E 121°25'682351.2
2016-Aug-24 16:23N 31°55' E 120°11'1 1.7
2016-Aug-24 15:33N 31°56' E 120°12'6621588.0
2016-Aug-24 15:33N 31°30' E 121°23'10519986.7
2016-Aug-24 15:32N 29°56' E 122°19'1676398.5
2016-Aug-24 15:31N 31°58' E 120°05'816073.9
2016-Aug-24 15:30N 31°25' E 121°32'71197.2
2016-Aug-24 15:30N 31°28' E 121°25'71196.2
2016-Aug-24 15:29N 31°22' E 121°29'8477.4
2016-Aug-24 15:28N 31°29' E 121°25'15603.7
2016-Aug-24 15:27N 31°15' E 121°31'801774.3
2016-Aug-24 15:24N 31°56' E 120°10'693022.4
2016-Aug-24 15:23N 31°30' E 121°24'70606.2
2016-Aug-24 15:16N 31°57' E 120°09'1 1.4
2016-Aug-24 14:33N 31°56' E 120°10'1638164.8
2016-Aug-24 14:32N 29°56' E 122°19'16428086.5
2016-Aug-24 14:32N 31°57' E 120°10'686804.1
2016-Aug-24 14:31N 31°30' E 121°23'3265.3
2016-Aug-24 14:31N 31°28' E 121°25'2228.9
2016-Aug-24 14:30N 31°30' E 121°24'674387.0
2016-Aug-24 14:29N 31°56' E 120°12'328.7
2016-Aug-24 14:24N 31°57' E 120°09'776265.0
2016-Aug-24 14:23N 31°22' E 121°29'8219.0
2016-Aug-24 14:21N 31°29' E 121°25'15238.3
2016-Aug-24 14:17N 31°15' E 121°31'89122.4
2016-Aug-24 13:33N 29°56' E 122°19'1562999.2
2016-Aug-24 13:30N 31°58' E 120°26'704419.4
2016-Aug-24 13:29N 31°15' E 121°30'8016986.2
2016-Aug-24 13:29N 31°56' E 120°10'696571.6
2016-Aug-24 13:28N 31°29' E 121°25'1554329.7
2016-Aug-24 13:28N 31°15' E 121°31'7712066.9
2016-Aug-24 13:28N 31°57' E 120°14'723516.3
2016-Aug-24 13:27N 31°22' E 121°29'10433.3
2016-Aug-24 13:25N 31°30' E 121°23'661267.6
2016-Aug-24 13:22N 31°56' E 120°12'522049.9
2016-Aug-24 13:21N 31°41' E 121°11'16399.9
2016-Aug-24 13:18N 31°30' E 121°24'6591185650.3
2016-Aug-24 13:18N 23°04' E 113°30'65815483.9
2016-Aug-24 13:16N 31°28' E 121°25'0 0.0
2016-Aug-24 12:33N 31°28' E 121°25'10361718.1
2016-Aug-24 12:33N 29°56' E 122°19'10614165.3
2016-Aug-24 12:32N 31°31' E 121°23'673657.8
2016-Aug-24 12:31N 31°56' E 120°10'81004.5
2016-Aug-24 12:31N 31°59' E 120°19'753649.7
2016-Aug-24 12:29N 31°15' E 121°31'65180856.4
2016-Aug-24 12:29N 23°04' E 113°30'65969726.5
2016-Aug-24 12:28N 31°29' E 121°25'267.0
2016-Aug-24 12:27N 31°30' E 121°23'10825.4
2016-Aug-24 12:26N 31°22' E 121°29'21570.0
2016-Aug-24 12:24N 31°39' E 121°15'12679.3
2016-Aug-24 12:23N 31°30' E 121°24'67709.0
2016-Aug-24 12:17N 31°56' E 120°12'464635.5
2016-Aug-24 11:33N 24°26' E 118°05'400110764.9
2016-Aug-24 11:33N 29°56' E 122°19'10317634.7
2016-Aug-24 11:33N 31°28' E 121°25'7185235.3
2016-Aug-24 11:33N 31°57' E 120°09'3316.7
2016-Aug-24 11:32N 31°56' E 120°12'7912310.9
2016-Aug-24 11:32N 31°15' E 121°31'8236694.0
2016-Aug-24 11:32N 31°56' E 120°08'6915519.5
2016-Aug-24 11:31N 31°30' E 121°23'10343.0
2016-Aug-24 11:30N 31°22' E 121°29'10937.2
2016-Aug-24 11:29N 31°31' E 121°23'315.5
2016-Aug-24 11:19N 31°29' E 121°25'1808.6
2016-Aug-24 11:19N 31°30' E 121°24'6597272.7
2016-Aug-24 11:14N 23°04' E 113°30'651952.0
2016-Aug-24 10:33N 31°15' E 121°31'1513623.2
2016-Aug-24 10:33N 31°29' E 121°25'1049603.4
2016-Aug-24 10:32N 29°56' E 122°19'10612757.6
2016-Aug-24 10:32N 31°31' E 121°23'2338.4
2016-Aug-24 10:31N 31°30' E 121°24'1162.9
2016-Aug-24 10:31N 31°30' E 121°23'111947.0
2016-Aug-24 10:30N 31°21' E 121°31'9184.8
2016-Aug-24 10:28N 31°28' E 121°25'7261.7
2016-Aug-24 10:26N 31°22' E 121°29'103235.8
2016-Aug-24 10:26N 31°31' E 121°24'1091897.2
2016-Aug-24 10:22N 29°47' E 122°04'1251659.8
2016-Aug-24 10:18N 31°43' E 121°08'501748.1
2016-Aug-24 10:16N 31°56' E 120°12'4607880.6
2016-Aug-24 10:13N 24°29' E 118°13'46012632.9
2016-Aug-24 10:11N 31°57' E 120°09'1299.1
2016-Aug-24 10:03N 32°02' E 119°56'172345.1
2016-Aug-24 09:33N 29°54' E 122°09'91046.2
2016-Aug-24 09:33N 29°56' E 122°19'117211436.0
2016-Aug-24 09:33N 31°39' E 121°13'66040255.9
2016-Aug-24 09:32N 23°04' E 113°30'6592372663.7
2016-Aug-24 09:32N 31°26' E 121°30'7785.1
2016-Aug-24 09:31N 31°30' E 121°23'663429.4
2016-Aug-24 09:30N 31°56' E 120°12'45549637.9
2016-Aug-24 09:30N 24°34' E 118°10'45678242.8
2016-Aug-24 09:29N 31°44' E 121°05'191594.7
2016-Aug-24 09:29N 31°31' E 121°23'278.2
2016-Aug-24 09:27N 31°30' E 121°24'16414.0
2016-Aug-24 09:25N 31°15' E 121°31'864624.2
2016-Aug-24 09:24N 29°58' E 122°15'944819.1
2016-Aug-24 09:23N 31°23' E 121°30'71175.0
2016-Aug-24 09:22N 31°28' E 121°25'9574.0
2016-Aug-24 09:21N 31°21' E 121°31'78417.9
2016-Aug-24 09:10N 31°57' E 120°09'1633260.2
2016-Aug-24 09:07N 29°56' E 122°17'862677.2
2016-Aug-24 09:05N 31°13' E 121°30'171089.4
2016-Aug-24 09:04N 31°29' E 121°25'612.3
2016-Aug-24 08:33N 31°34' E 121°19'101343.1
2016-Aug-24 08:33N 31°41' E 121°12'11925283.8
2016-Aug-24 08:33N 29°56' E 122°19'16227775.3
2016-Aug-24 08:32N 31°56' E 120°12'64176919.6
2016-Aug-24 08:32N 23°04' E 113°30'650106427.7
2016-Aug-24 08:32N 31°15' E 121°29'7663.4
2016-Aug-24 08:31N 31°21' E 121°31'62491.5
2016-Aug-24 08:31N 31°15' E 121°31'864839.7
2016-Aug-24 08:30N 29°58' E 122°15'1038458.3
2016-Aug-24 08:29N 31°31' E 121°23'2136.9
2016-Aug-24 08:28N 31°30' E 121°24'2221.1
2016-Aug-24 08:28N 31°28' E 121°25'9442327.0
2016-Aug-24 08:28N 29°59' E 122°01'9715129.4
2016-Aug-24 08:27N 31°30' E 121°23'17418.1
2016-Aug-24 08:25N 31°21' E 121°40'851224.1
2016-Aug-24 08:20N 31°57' E 120°09'44518.7
2016-Aug-24 08:15N 31°47' E 120°59'381689.6
2016-Aug-24 08:14N 31°21' E 121°31'4708090.2
2016-Aug-24 08:11N 24°08' E 118°05'415665.5
2016-Aug-24 07:33N 29°56' E 122°19'1264487.7
2016-Aug-24 07:32N 31°45' E 121°05'2014698.3
2016-Aug-24 07:31N 31°31' E 121°23'173.1
2016-Aug-24 07:31N 31°30' E 121°23'123956.8
2016-Aug-24 07:31N 31°21' E 121°32'7479.2
2016-Aug-24 07:30N 31°21' E 121°40'10623.4
2016-Aug-24 07:29N 31°15' E 121°31'103354.2
2016-Aug-24 07:29N 31°25' E 121°31'7414840.5
2016-Aug-24 07:28N 31°56' E 120°12'7624829.9
2016-Aug-24 07:28N 31°21' E 121°31'101253.5
2016-Aug-24 07:28N 31°29' E 121°24'702946.4
2016-Aug-24 07:26N 31°57' E 120°09'715324.3
2016-Aug-24 07:25N 31°28' E 121°25'6586385.0
2016-Aug-24 07:19N 23°04' E 113°30'65917824.3
2016-Aug-24 07:17N 31°29' E 121°25'12227.7
2016-Aug-24 07:14N 31°22' E 121°36'911615.5
2016-Aug-24 07:11N 29°58' E 122°15'1723608.0
2016-Aug-24 07:08N 32°03' E 119°56'762539.1
2016-Aug-24 07:06N 31°35' E 121°19'3 5.9
2016-Aug-24 06:33N 31°32' E 121°22'10838823.1
2016-Aug-24 06:33N 29°56' E 122°19'11961357.1
2016-Aug-24 06:33N 31°41' E 121°12'66291638.9
2016-Aug-24 06:33N 23°04' E 113°26'6611189009.5
2016-Aug-24 06:33N 31°30' E 121°23'132380.9
2016-Aug-24 06:32N 31°20' E 121°33'27089.5
2016-Aug-24 06:32N 31°21' E 121°31'10860.7
2016-Aug-24 06:32N 31°29' E 121°25'115063.8
2016-Aug-24 06:32N 31°38' E 121°16'9838.9
2016-Aug-24 06:31N 31°31' E 121°23'545130900.2
2016-Aug-24 06:31N 23°21' E 116°51'54441670.0
2016-Aug-24 06:30N 31°21' E 121°40'8511779.1
2016-Aug-24 06:29N 31°57' E 120°09'712808.4
2016-Aug-24 06:28N 31°28' E 121°25'12702.2
2016-Aug-24 06:27N 31°22' E 121°38'6581.5
2016-Aug-24 06:26N 31°25' E 121°32'95835.0
2016-Aug-24 06:19N 29°58' E 122°15'1593299.2
2016-Aug-24 06:16N 31°56' E 120°12'542142.8
2016-Aug-24 06:15N 31°39' E 121°13'222418.1
2016-Aug-24 06:14N 31°22' E 121°29'3 1.7
2016-Aug-24 04:33N 31°24' E 121°32'235845.3
2016-Aug-24 04:33N 31°40' E 121°13'232456.8
2016-Aug-24 04:32N 31°23' E 121°30'133587.3
2016-Aug-24 04:32N 31°33' E 121°21'20869.1
2016-Aug-24 04:31N 31°15' E 121°31'161974.6
2016-Aug-24 04:30N 31°30' E 121°23'65730731.1
2016-Aug-24 04:29N 23°04' E 113°32'658592329.5
2016-Aug-24 04:29N 31°25' E 121°32'7393.9
2016-Aug-24 04:28N 31°29' E 121°25'70601.6
2016-Aug-24 04:21N 31°57' E 120°09'772317.0
2016-Aug-24 04:19N 31°25' E 121°32'98128.6
2016-Aug-24 03:33N 29°56' E 122°19'10426729.4
2016-Aug-24 03:33N 31°29' E 121°25'144493.0
2016-Aug-24 03:33N 31°21' E 121°38'7544767.2
2016-Aug-24 03:33N 32°00' E 120°23'70252178.0
2016-Aug-24 03:33N 31°21' E 121°31'4431595060.5
2016-Aug-24 03:33N 24°35' E 118°10'449107735.0
2016-Aug-24 03:32N 31°30' E 121°23'6917646.3
2016-Aug-24 03:32N 31°57' E 120°09'7028191.5
2016-Aug-24 03:32N 31°30' E 121°26'660792408.3
2016-Aug-24 03:32N 23°03' E 113°30'65731518.3
2016-Aug-24 03:31N 31°21' E 121°31'924019.9
2016-Aug-24 03:29N 29°58' E 122°15'10314773.7
2016-Aug-24 03:29N 31°30' E 121°23'343.3
2016-Aug-24 03:25N 31°28' E 121°25'68640.9
2016-Aug-24 03:19N 31°56' E 120°12'76801.0
2016-Aug-24 03:13N 31°21' E 121°31'2 2.5
2016-Aug-24 02:34N 31°23' E 121°30'7119613.6
2016-Aug-24 02:33N 31°57' E 120°17'159574120.0
2016-Aug-24 02:33N 29°56' E 122°19'896927.7
2016-Aug-24 02:33N 31°15' E 121°32'15562.5
2016-Aug-24 02:31N 31°29' E 121°25'5815.9
2016-Aug-24 02:31N 31°27' E 121°29'6201.2
2016-Aug-24 02:29N 31°30' E 121°23'3204.8
2016-Aug-24 02:28N 31°28' E 121°25'10357.1
2016-Aug-24 02:26N 31°21' E 121°32'12470.9
2016-Aug-24 02:25N 31°30' E 121°23'659124895.7
2016-Aug-24 02:24N 23°03' E 113°30'65732389.3
2016-Aug-24 02:23N 31°21' E 121°31'733.1
2016-Aug-24 02:10N 31°20' E 121°39'742004.7
2016-Aug-24 02:08N 31°58' E 120°26'6501133.6
2016-Aug-24 01:34N 23°04' E 113°29'18159271.2
2016-Aug-24 01:33N 23°20' E 116°45'548246621.0
2016-Aug-24 01:33N 31°24' E 121°33'4284.8
2016-Aug-24 01:32N 31°21' E 121°31'454148421.0
2016-Aug-24 01:32N 24°25' E 118°06'456821147.1
2016-Aug-24 01:32N 31°23' E 121°34'121789.4
2016-Aug-24 01:32N 31°30' E 121°23'10514606.4
2016-Aug-24 01:31N 29°56' E 122°19'1031146.2
2016-Aug-24 01:26N 31°28' E 121°25'321.0
2016-Aug-24 01:18N 31°30' E 121°23'13229.9
2016-Aug-24 01:15N 31°40' E 121°13'25745.0
2016-Aug-24 01:13N 31°21' E 121°32'3 4.6
2016-Aug-24 00:33N 31°24' E 121°31'9610216.4
2016-Aug-24 00:33N 29°56' E 122°19'93167536.8
2016-Aug-24 00:33N 31°20' E 121°33'547218883.8
2016-Aug-24 00:33N 23°22' E 116°35'55220269.9
2016-Aug-24 00:31N 31°30' E 121°23'15820.3
2016-Aug-24 00:30N 31°22' E 121°38'15939.1
2016-Aug-24 00:29N 31°30' E 121°23'66412929.9
2016-Aug-24 00:26N 23°02' E 113°22'66423214.0
2016-Aug-24 00:24N 31°28' E 121°25'1 8.1
2016-Aug-24 00:16N 31°29' E 121°25'104365.3
2016-Aug-24 00:16N 31°21' E 121°31'111.2
2016-Aug-24 00:10N 31°21' E 121°32'11156.4
2016-Aug-24 00:06N 31°30' E 121°25'331105.2
2016-Aug-24 00:04N 31°06' E 120°57'94186.7
2016-Aug-23 23:34N 29°55' E 122°09'10120101.8
2016-Aug-23 23:33N 31°28' E 121°25'385.2
2016-Aug-23 23:31N 31°30' E 121°23'1518168.0
2016-Aug-23 23:31N 31°18' E 121°34'019.2
2016-Aug-23 23:31N 31°18' E 121°33'13614.1
2016-Aug-23 23:29N 31°29' E 121°25'10326.4
2016-Aug-23 23:27N 31°21' E 121°31'792.3
2016-Aug-23 23:23N 31°21' E 121°39'16293.7
2016-Aug-23 23:20N 31°30' E 121°23'1 6.4
2016-Aug-23 23:11N 31°31' E 121°23'13103.7
2016-Aug-23 23:04N 31°21' E 121°32'1120.6
2016-Aug-23 22:33N 31°29' E 121°25'2563.1
2016-Aug-23 22:33N 31°30' E 121°23'26966.4
2016-Aug-23 22:33N 31°30' E 121°25'967364.1
2016-Aug-23 22:32N 29°57' E 121°55'833927.2
2016-Aug-23 22:31N 31°18' E 121°33'12687.7
2016-Aug-23 22:30N 31°28' E 121°25'390.3
2016-Aug-23 22:28N 31°30' E 121°23'12429.4
2016-Aug-23 22:26N 31°21' E 121°32'6123.8
2016-Aug-23 22:23N 31°15' E 121°31'62443.9
2016-Aug-23 22:23N 31°21' E 121°31'121979.6
2016-Aug-23 22:23N 31°31' E 121°23'4808478.6
2016-Aug-23 22:19N 24°05' E 118°01'482625.9
2016-Aug-23 21:33N 31°33' E 121°19'17874.9
2016-Aug-23 21:32N 31°21' E 121°32'121473.1
2016-Aug-23 21:32N 31°30' E 121°23'151069.3
2016-Aug-23 21:31N 31°18' E 121°33'12461.2
2016-Aug-23 21:29N 31°28' E 121°25'9970.3
2016-Aug-23 21:29N 31°21' E 121°31'12368.9
2016-Aug-23 21:27N 31°31' E 121°23'17243.0
2016-Aug-23 21:22N 31°15' E 121°31'1580.4
2016-Aug-23 21:11N 31°29' E 121°25'1524.3
2016-Aug-23 20:33N 31°15' E 121°31'237026.9
2016-Aug-23 20:33N 31°35' E 121°17'7103.2
2016-Aug-23 20:29N 31°30' E 121°23'11717.4
2016-Aug-23 20:28N 31°21' E 121°31'30994.8
2016-Aug-23 20:26N 31°43' E 121°08'18678.9
2016-Aug-23 20:25N 31°31' E 121°23'16166.1
2016-Aug-23 20:19N 31°18' E 121°33'14436.2
2016-Aug-23 20:17N 31°29' E 121°25'118.9
2016-Aug-23 20:13N 31°28' E 121°25'15153.2
2016-Aug-23 20:07N 31°14' E 121°30'30698.0
2016-Aug-23 20:04N 31°40' E 121°13'2446.3
2016-Aug-23 19:33N 31°21' E 121°31'62197.4
2016-Aug-23 19:33N 31°15' E 121°31'151708.6
2016-Aug-23 19:33N 31°29' E 121°25'145039.2
2016-Aug-23 19:33N 31°39' E 121°13'14686.6
2016-Aug-23 19:31N 31°29' E 121°25'191392.0
2016-Aug-23 19:30N 31°42' E 121°09'171420.0
2016-Aug-23 19:30N 31°31' E 121°23'16437.0
2016-Aug-23 19:28N 31°18' E 121°34'61141.4
2016-Aug-23 19:27N 31°12' E 121°30'281673.4
2016-Aug-23 19:26N 31°37' E 121°15'25759.0
2016-Aug-23 19:24N 31°18' E 121°33'22299.0
2016-Aug-23 19:20N 31°35' E 121°18'23704.3
2016-Aug-23 19:18N 31°17' E 121°34'31207.9
2016-Aug-23 19:09N 31°41' E 121°10'48229405.0
2016-Aug-23 19:08N 24°07' E 118°08'414124141.0
2016-Aug-23 19:08N 29°47' E 122°32'1034090.9
2016-Aug-23 19:06N 31°18' E 121°34'826724.1
2016-Aug-23 19:05N 31°57' E 120°09'79148.0
2016-Aug-23 18:34N 31°21' E 121°31'2320625.4
2016-Aug-23 18:33N 31°39' E 121°15'131316.2
2016-Aug-23 18:33N 31°29' E 121°25'166208.5
2016-Aug-23 18:33N 31°15' E 121°31'2850696.5
2016-Aug-23 18:33N 31°39' E 121°13'47959465.5
2016-Aug-23 18:32N 24°09' E 118°06'477171698.8
2016-Aug-23 18:32N 31°35' E 121°19'221731.5
2016-Aug-23 18:31N 31°15' E 121°31'276448.0
2016-Aug-23 18:31N 31°38' E 121°15'2610308.1
2016-Aug-23 18:31N 31°18' E 121°33'6495.7
2016-Aug-23 18:30N 31°24' E 121°32'271522.5
2016-Aug-23 18:29N 31°42' E 121°09'1093230.1
2016-Aug-23 18:27N 29°57' E 121°42'8516086.0
2016-Aug-23 18:27N 31°21' E 121°31'121688.6
2016-Aug-23 18:26N 31°31' E 121°23'131749.2
2016-Aug-23 18:26N 31°21' E 121°32'2152.2
2016-Aug-23 18:25N 31°20' E 121°33'811152.4
2016-Aug-23 18:21N 31°57' E 120°09'70314.5
2016-Aug-23 18:08N 31°29' E 121°25'16745.5
2016-Aug-23 18:06N 31°14' E 121°29'17369.6
2016-Aug-23 18:04N 31°30' E 121°23'510.3
2016-Aug-23 17:34N 31°34' E 121°19'72860.4
2016-Aug-23 17:33N 31°39' E 121°13'713200.6
2016-Aug-23 17:33N 31°34' E 121°19'161520.7
2016-Aug-23 17:33N 31°21' E 121°30'7818645.0
2016-Aug-23 17:32N 31°57' E 120°09'5338234.3
2016-Aug-23 17:32N 31°42' E 121°09'272134.3
2016-Aug-23 17:32N 31°21' E 121°30'43745.4
2016-Aug-23 17:32N 31°18' E 121°33'3294.0
2016-Aug-23 17:31N 31°21' E 121°32'4185.6
2016-Aug-23 17:30N 31°22' E 121°37'1655953.7
2016-Aug-23 17:30N 31°31' E 121°23'123438.9
2016-Aug-23 17:29N 31°23' E 121°34'9211449.2
2016-Aug-23 17:29N 32°03' E 119°56'812331.7
2016-Aug-23 17:27N 31°30' E 121°23'16490.5
2016-Aug-23 17:25N 31°15' E 121°31'46519937.2
2016-Aug-23 17:23N 24°07' E 118°05'47621135.3
2016-Aug-23 17:22N 31°28' E 121°25'8412058.7
2016-Aug-23 17:22N 32°04' E 119°56'837848.1
2016-Aug-23 17:21N 31°29' E 121°25'0 0.8
2016-Aug-23 17:17N 31°29' E 121°25'5 7.5
2016-Aug-23 16:33N 31°32' E 121°19'5953.5
2016-Aug-23 16:33N 31°36' E 121°17'201701.7
2016-Aug-23 16:32N 31°21' E 121°31'1210722.9
2016-Aug-23 16:32N 31°31' E 121°24'8013100.3
2016-Aug-23 16:32N 32°02' E 119°57'9120410.7
2016-Aug-23 16:32N 31°21' E 121°32'8422.5
2016-Aug-23 16:31N 31°28' E 121°28'5233.2
2016-Aug-23 16:30N 31°24' E 121°31'91974.4
2016-Aug-23 16:29N 31°15' E 121°31'46725104.8
2016-Aug-23 16:28N 24°06' E 118°03'47613292.4
2016-Aug-23 16:26N 31°25' E 121°30'8116.4
2016-Aug-23 16:22N 31°30' E 121°23'125.3
2016-Aug-23 16:18N 31°29' E 121°25'116.4
2016-Aug-23 16:14N 31°28' E 121°25'120.1
2016-Aug-23 16:11N 31°29' E 121°25'6 9.0
2016-Aug-23 15:34N 31°32' E 121°19'1201.0
2016-Aug-23 15:33N 31°33' E 121°20'121342.3
2016-Aug-23 15:33N 31°26' E 121°31'813676.8
2016-Aug-23 15:33N 31°21' E 121°38'11560.3
2016-Aug-23 15:31N 31°28' E 121°28'823728.6
2016-Aug-23 15:30N 32°00' E 119°59'7919000.0
2016-Aug-23 15:30N 31°29' E 121°25'8266.4
2016-Aug-23 15:28N 31°23' E 121°30'9422.1
2016-Aug-23 15:27N 31°30' E 121°23'69925.2
2016-Aug-23 15:22N 31°57' E 120°09'701519.9
2016-Aug-23 15:20N 31°29' E 121°25'480123438.8
2016-Aug-23 15:19N 24°05' E 117°59'46914189.1
2016-Aug-23 15:17N 31°15' E 121°31'15142.2
2016-Aug-23 15:11N 31°29' E 121°25'6 9.0
2016-Aug-23 14:34N 31°32' E 121°19'5584.7
2016-Aug-23 14:33N 31°30' E 121°25'762515.6
2016-Aug-23 14:31N 31°58' E 120°02'834276.8
2016-Aug-23 14:30N 31°22' E 121°30'3301.3
2016-Aug-23 14:29N 31°26' E 121°30'3172.8
2016-Aug-23 14:28N 31°24' E 121°32'3282.8
2016-Aug-23 14:28N 31°25' E 121°30'10589.5
2016-Aug-23 14:27N 31°31' E 121°21'1128.5
2016-Aug-23 14:26N 31°32' E 121°21'14126.2
2016-Aug-23 14:20N 31°21' E 121°31'4446.0
2016-Aug-23 14:19N 31°18' E 121°33'14240.9
2016-Aug-23 14:16N 31°29' E 121°25'704954.4
2016-Aug-23 14:15N 31°57' E 120°09'69464.3
2016-Aug-23 14:06N 31°30' E 121°23'1659297.7
2016-Aug-23 14:06N 31°15' E 121°31'5 9.9
2016-Aug-23 13:33N 31°20' E 121°33'1715411.8
2016-Aug-23 13:33N 31°32' E 121°19'6860843.7
2016-Aug-23 13:33N 31°58' E 120°06'816204.8
2016-Aug-23 13:33N 31°21' E 121°31'61920.0
2016-Aug-23 13:32N 31°27' E 121°28'4201.0
2016-Aug-23 13:31N 31°29' E 121°25'11649.4
2016-Aug-23 13:30N 31°21' E 121°33'80143934.2
2016-Aug-23 13:30N 31°57' E 120°09'6911764.2
2016-Aug-23 13:30N 31°30' E 121°23'2306.5
2016-Aug-23 13:30N 31°29' E 121°25'0 2.7
2016-Aug-23 13:27N 31°29' E 121°25'11643.2
2016-Aug-23 13:26N 31°37' E 121°16'20140.0
2016-Aug-23 13:18N 31°21' E 121°31'1216.1
2016-Aug-23 12:34N 31°31' E 121°23'31934.2
2016-Aug-23 12:33N 31°32' E 121°19'6244763.9
2016-Aug-23 12:33N 31°56' E 120°12'639422.9
2016-Aug-23 12:33N 31°32' E 121°20'9442.4
2016-Aug-23 12:32N 31°39' E 121°13'277575.0
2016-Aug-23 12:32N 31°18' E 121°33'151152.7
2016-Aug-23 12:31N 31°30' E 121°23'814863.1
2016-Aug-23 12:30N 32°03' E 119°56'924557.2
2016-Aug-23 12:29N 31°21' E 121°33'3159.4
2016-Aug-23 12:27N 31°24' E 121°31'781766.2
2016-Aug-23 12:25N 31°57' E 120°09'781453.7
2016-Aug-23 12:21N 31°21' E 121°30'747.0
2016-Aug-23 12:13N 31°15' E 121°31'15238.9
2016-Aug-23 12:09N 31°29' E 121°25'195289.7
2016-Aug-23 12:09N 31°42' E 121°08'4576.5
2016-Aug-23 11:33N 31°58' E 120°18'5852107.8
2016-Aug-23 11:33N 31°32' E 121°19'1913612.6
2016-Aug-23 11:33N 31°22' E 121°38'91466.8
2016-Aug-23 11:33N 31°21' E 121°27'71924.4
2016-Aug-23 11:33N 31°15' E 121°31'169886.3
2016-Aug-23 11:33N 31°30' E 121°23'131328.1
2016-Aug-23 11:32N 31°21' E 121°33'7815553.3
2016-Aug-23 11:32N 30°40' E 122°50'8129030.7
2016-Aug-23 11:32N 31°25' E 121°32'273830.1
2016-Aug-23 11:31N 31°42' E 121°08'5510332.7
2016-Aug-23 11:31N 31°57' E 120°06'626569.0
2016-Aug-23 11:30N 31°37' E 121°15'11102.9
2016-Aug-23 11:24N 31°29' E 121°25'2119.7
2016-Aug-23 11:23N 31°31' E 121°23'12577.4
2016-Aug-23 11:21N 31°21' E 121°30'91079.5
2016-Aug-23 11:21N 31°29' E 121°25'5 6.9
2016-Aug-23 10:33N 31°32' E 121°19'106283.3
2016-Aug-23 10:33N 31°40' E 121°11'241304.7
2016-Aug-23 10:32N 31°22' E 121°30'2413.1
2016-Aug-23 10:32N 31°21' E 121°27'3244.3
2016-Aug-23 10:31N 31°21' E 121°30'11143.5
2016-Aug-23 10:27N 31°30' E 121°23'251.6
2016-Aug-23 10:25N 31°29' E 121°25'152595.9
2016-Aug-23 10:25N 31°15' E 121°31'672.0
2016-Aug-23 10:20N 31°21' E 121°31'434.8
2016-Aug-23 10:14N 31°18' E 121°33'1483.1
2016-Aug-23 10:04N 31°29' E 121°25'816.1
2016-Aug-23 09:33N 31°21' E 121°27'1322911.1
2016-Aug-23 09:33N 31°32' E 121°19'2010086.0
2016-Aug-23 09:33N 31°15' E 121°31'3496.3
2016-Aug-23 09:33N 31°17' E 121°34'0 0.2
2016-Aug-23 09:31N 31°17' E 121°34'4193.3
2016-Aug-23 09:29N 31°21' E 121°33'111242.6
2016-Aug-23 09:29N 31°29' E 121°25'481346033.4
2016-Aug-23 09:29N 24°05' E 117°58'48113966.6
2016-Aug-23 09:27N 31°30' E 121°23'1207.0
2016-Aug-23 09:26N 31°31' E 121°22'161310.9
2016-Aug-23 09:26N 31°18' E 121°33'6133.0
2016-Aug-23 09:23N 31°21' E 121°27'7969.1
2016-Aug-23 09:22N 31°22' E 121°36'589.3
2016-Aug-23 09:19N 31°21' E 121°30'19138.6
2016-Aug-23 09:11N 31°36' E 121°16'5 7.8
2016-Aug-23 08:33N 31°32' E 121°19'201088.5
2016-Aug-23 08:32N 31°15' E 121°31'6277.4
2016-Aug-23 08:31N 31°21' E 121°33'31000.8
2016-Aug-23 08:31N 31°23' E 121°34'11222.5
2016-Aug-23 08:28N 31°29' E 121°25'9197.9
2016-Aug-23 08:25N 31°21' E 121°30'122343.1
2016-Aug-23 08:25N 31°31' E 121°23'16310.5
2016-Aug-23 08:22N 31°42' E 121°09'261309.2
2016-Aug-23 08:21N 31°21' E 121°27'6567470.3
2016-Aug-23 08:15N 23°01' E 113°31'65667463.3
2016-Aug-23 08:15N 31°17' E 121°34'710.5
2016-Aug-23 07:34N 31°21' E 121°27'137655.0
2016-Aug-23 07:33N 31°32' E 121°19'1410340.3
2016-Aug-23 07:33N 31°21' E 121°30'622945.9
2016-Aug-23 07:33N 31°15' E 121°31'255713.1
2016-Aug-23 07:33N 31°37' E 121°16'11264.5
2016-Aug-23 07:31N 31°29' E 121°25'65929280.0
2016-Aug-23 07:29N 23°04' E 113°29'657337812.3
2016-Aug-23 07:29N 31°21' E 121°33'13408.6
2016-Aug-23 07:27N 31°30' E 121°23'1 9.7
2016-Aug-23 07:22N 31°31' E 121°23'18180.7
2016-Aug-23 07:16N 31°43' E 121°08'1927.1
2016-Aug-23 06:33N 31°31' E 121°25'660339456.8
2016-Aug-23 06:33N 23°04' E 113°29'656472373.4
2016-Aug-23 06:33N 31°22' E 121°30'247835.6
2016-Aug-23 06:33N 31°40' E 121°12'24792.3
2016-Aug-23 06:31N 31°21' E 121°31'4101.0
2016-Aug-23 06:29N 31°18' E 121°33'161002.4
2016-Aug-23 06:28N 31°31' E 121°23'10291.2
2016-Aug-23 06:26N 31°21' E 121°27'6236.7
2016-Aug-23 06:24N 31°23' E 121°34'61727.0
2016-Aug-23 06:24N 31°17' E 121°34'1571.6
2016-Aug-23 06:12N 31°29' E 121°25'0 1.2
2016-Aug-23 06:07N 31°29' E 121°25'7251.9
2016-Aug-23 06:05N 31°34' E 121°19'1427.2
2016-Aug-23 05:33N 31°23' E 121°30'177742.6
2016-Aug-23 05:33N 31°36' E 121°17'178931.9
2016-Aug-23 05:33N 31°23' E 121°30'1140777.8
2016-Aug-23 05:33N 31°32' E 121°22'264.5
2016-Aug-23 05:31N 31°30' E 121°23'1107.5
2016-Aug-23 05:30N 31°29' E 121°25'119543.9
2016-Aug-23 05:30N 31°23' E 121°34'13164.1
2016-Aug-23 05:25N 31°31' E 121°23'121493.7
2016-Aug-23 05:25N 31°21' E 121°30'2235.1
2016-Aug-23 05:24N 31°21' E 121°33'65716421.4
2016-Aug-23 05:22N 23°04' E 113°29'6581185198.8
2016-Aug-23 05:22N 31°29' E 121°25'1 0.9
2016-Aug-23 04:33N 31°29' E 121°25'6875.3
2016-Aug-23 04:33N 31°33' E 121°19'1046930.7
2016-Aug-23 04:32N 29°56' E 122°03'8826447.9
2016-Aug-23 04:32N 31°21' E 121°39'161385.6
2016-Aug-23 04:31N 31°30' E 121°23'65969749.9
2016-Aug-23 04:31N 23°04' E 113°29'657118228.0
2016-Aug-23 04:30N 31°21' E 121°33'31130.5
2016-Aug-23 04:30N 31°23' E 121°34'8353.0
2016-Aug-23 04:29N 31°15' E 121°31'101341.1
2016-Aug-23 04:28N 31°21' E 121°39'81011.2
2016-Aug-23 04:28N 31°21' E 121°30'9262.7
2016-Aug-23 04:26N 31°29' E 121°25'83278.9
2016-Aug-23 04:26N 31°21' E 121°27'4962259.9
2016-Aug-23 04:12N 39°04' E 117°49'594912.9
2016-Aug-23 03:33N 29°49' E 122°06'10373981.7
2016-Aug-23 03:33N 31°27' E 121°30'5635.2
2016-Aug-23 03:33N 31°29' E 121°25'11351.9
2016-Aug-23 03:31N 31°21' E 121°33'112631.4
2016-Aug-23 03:31N 31°29' E 121°25'65928573.6
2016-Aug-23 03:29N 23°04' E 113°29'656295270.9
2016-Aug-23 03:29N 31°21' E 121°30'81175.1
2016-Aug-23 03:29N 31°21' E 121°40'10812.5
2016-Aug-23 03:28N 31°21' E 121°27'634.5
2016-Aug-23 03:18N 31°23' E 121°34'69411147.0
2016-Aug-23 03:14N 22°07' E 113°49'1 2.0
2016-Aug-23 02:32N 22°09' E 113°49'69342987.6
2016-Aug-23 02:31N 31°25' E 121°32'168.0
2016-Aug-23 02:30N 31°24' E 121°31'827784.1
2016-Aug-23 02:30N 31°29' E 121°25'83283.5
2016-Aug-23 02:30N 31°21' E 121°27'4765051.3
2016-Aug-23 02:24N 24°04' E 117°57'90034849.5
2016-Aug-23 02:22N 39°04' E 117°51'497223852.8
2016-Aug-23 02:22N 31°21' E 121°33'111991.6
2016-Aug-23 02:22N 31°29' E 121°25'4576233.0
2016-Aug-23 02:18N 24°28' E 118°04'45452769.2
2016-Aug-23 02:17N 31°23' E 121°34'65914561.2
2016-Aug-23 02:14N 23°04' E 113°29'656214741.0
2016-Aug-23 02:14N 31°21' E 121°30'7212.8
2016-Aug-23 02:12N 31°21' E 121°39'531.0
2016-Aug-23 02:03N 31°23' E 121°34'4 7.1
2016-Aug-23 01:33N 31°23' E 121°30'31435.4
2016-Aug-23 01:33N 31°23' E 121°33'659395467.7
2016-Aug-23 01:33N 23°04' E 113°29'65822788.2
2016-Aug-23 01:31N 31°32' E 121°21'143049.2
2016-Aug-23 01:31N 31°23' E 121°34'113151.3
2016-Aug-23 01:31N 31°29' E 121°25'98346.5
2016-Aug-23 01:31N 31°21' E 121°30'11268.8
2016-Aug-23 01:28N 31°30' E 121°23'1288.6
2016-Aug-23 01:20N 31°21' E 121°33'436.9
2016-Aug-23 01:13N 31°21' E 121°27'1725.5
2016-Aug-23 00:32N 31°36' E 121°17'193939.5
2016-Aug-23 00:32N 31°21' E 121°30'3141.9
2016-Aug-23 00:31N 31°21' E 121°27'64029.1
2016-Aug-23 00:31N 31°19' E 121°34'14360.0
2016-Aug-23 00:29N 31°30' E 121°23'45810837.0
2016-Aug-23 00:26N 24°28' E 118°04'26510841.5
2016-Aug-23 00:25N 23°04' E 113°29'65653694.3
2016-Aug-23 00:24N 31°21' E 121°31'1003304.7
2016-Aug-23 00:22N 29°45' E 122°03'1011931.1
2016-Aug-23 00:19N 31°23' E 121°34'4308.8
2016-Aug-23 00:18N 31°22' E 121°30'8145.3
2016-Aug-23 00:15N 31°29' E 121°25'1622.1
2016-Aug-22 23:32N 31°40' E 121°11'222856.3
2016-Aug-22 23:32N 31°25' E 121°30'277.0
2016-Aug-22 23:30N 31°26' E 121°28'6233.7
2016-Aug-22 23:29N 31°30' E 121°23'153374.2
2016-Aug-22 23:28N 31°18' E 121°33'9036171.2
2016-Aug-22 23:28N 29°53' E 122°09'391117286.0
2016-Aug-22 23:28N 24°28' E 118°04'45136062.1
2016-Aug-22 23:27N 31°21' E 121°27'357.4
2016-Aug-22 23:24N 31°21' E 121°31'65620724.1
2016-Aug-22 23:22N 23°04' E 113°29'65916817.8
2016-Aug-22 23:20N 31°31' E 121°23'1 0.9
2016-Aug-22 22:33N 31°31' E 121°22'1579.8
2016-Aug-22 22:33N 31°32' E 121°21'10012835.5
2016-Aug-22 22:33N 29°57' E 121°59'616100726.8
2016-Aug-22 22:32N 23°04' E 113°29'656168725.1
2016-Aug-22 22:32N 31°21' E 121°30'111832.2
2016-Aug-22 22:32N 31°30' E 121°23'11229.8
2016-Aug-22 22:29N 31°21' E 121°31'12563.7
2016-Aug-22 22:28N 31°31' E 121°23'16893.8
2016-Aug-22 22:26N 31°18' E 121°33'1485.8
2016-Aug-22 22:17N 31°29' E 121°25'8551.2
2016-Aug-22 22:16N 31°21' E 121°27'1926.3
2016-Aug-22 21:33N 31°37' E 121°16'195.0
2016-Aug-22 21:33N 31°38' E 121°15'211307.1
2016-Aug-22 21:32N 31°21' E 121°31'3909.8
2016-Aug-22 21:31N 31°21' E 121°27'82976.7
2016-Aug-22 21:31N 31°29' E 121°25'133.8
2016-Aug-22 21:29N 31°30' E 121°23'161887.8
2016-Aug-22 21:28N 31°17' E 121°34'17702.5
2016-Aug-22 21:27N 31°31' E 121°23'1762235.7
2016-Aug-22 21:27N 31°15' E 121°31'494.7
2016-Aug-22 21:24N 31°18' E 121°33'4739246.4
2016-Aug-22 21:21N 24°04' E 118°02'47522786.9
2016-Aug-22 21:20N 31°21' E 121°30'662.4
2016-Aug-22 21:15N 31°17' E 121°34'3246.8
2016-Aug-22 20:33N 31°41' E 121°09'184242.5
2016-Aug-22 20:33N 31°29' E 121°25'153914.3
2016-Aug-22 20:33N 31°15' E 121°31'172053.0
2016-Aug-22 20:32N 31°30' E 121°23'171265.6
2016-Aug-22 20:31N 31°42' E 121°09'5400525401.9
2016-Aug-22 20:31N 48°27' W 123°18'5399396630.2
2016-Aug-22 20:30N 31°31' E 121°23'171219.6
2016-Aug-22 20:29N 31°17' E 121°34'113.8
2016-Aug-22 20:27N 31°18' E 121°33'65511621.9
2016-Aug-22 20:23N 23°04' E 113°29'6554070.5
2016-Aug-22 20:14N 31°17' E 121°34'5128.3
2016-Aug-22 20:11N 31°21' E 121°31'54008564.5
2016-Aug-22 19:33N 48°27' W 123°18'53992776485.6
2016-Aug-22 19:33N 31°31' E 121°23'101411.9
2016-Aug-22 19:33N 31°24' E 121°31'828138.7
2016-Aug-22 19:33N 31°29' E 121°25'1438.3
2016-Aug-22 19:33N 31°30' E 121°23'2717.9
2016-Aug-22 19:32N 31°30' E 121°25'65926658.5
2016-Aug-22 19:31N 23°04' E 113°29'65229322.6
2016-Aug-22 19:30N 31°15' E 121°31'28140.3
2016-Aug-22 19:18N 31°39' E 121°13'27187.3
2016-Aug-22 19:09N 31°18' E 121°33'224.8
2016-Aug-22 19:04N 31°20' E 121°33'539710594.8
2016-Aug-22 18:33N 48°24' W 123°22'53979714864.2
2016-Aug-22 18:33N 31°23' E 121°30'8676.5
2016-Aug-22 18:33N 31°15' E 121°31'17801.7
2016-Aug-22 18:31N 31°31' E 121°23'2100.2
2016-Aug-22 18:30N 31°29' E 121°25'1412313.6
2016-Aug-22 18:30N 31°18' E 121°33'65524835.6
2016-Aug-22 18:28N 23°04' E 113°29'66014656.8
2016-Aug-22 18:26N 31°35' E 121°18'681.2
2016-Aug-22 18:21N 31°30' E 121°23'1060.4
2016-Aug-22 18:11N 31°21' E 121°27'331.7
2016-Aug-22 18:06N 31°21' E 121°30'4106.6
2016-Aug-22 18:04N 31°18' E 121°34'4 7.2
2016-Aug-22 17:33N 31°21' E 121°31'4703.3
2016-Aug-22 17:32N 31°18' E 121°33'145472.7
2016-Aug-22 17:32N 31°29' E 121°25'152383.5
2016-Aug-22 17:32N 31°15' E 121°31'17975.2
2016-Aug-22 17:31N 31°31' E 121°23'127.3
2016-Aug-22 17:29N 31°30' E 121°23'10112.1
2016-Aug-22 17:24N 31°21' E 121°27'7 8.9
2016-Aug-22 16:34N 31°22' E 121°36'142732.0
2016-Aug-22 16:33N 31°31' E 121°23'10476.6
2016-Aug-22 16:32N 31°21' E 121°27'19877.3
2016-Aug-22 16:31N 31°37' E 121°16'10290.8
2016-Aug-22 16:29N 31°30' E 121°23'6127.7
2016-Aug-22 16:26N 31°27' E 121°29'445.8
2016-Aug-22 16:20N 31°29' E 121°25'6597774.7
2016-Aug-22 16:15N 23°04' E 113°29'6566768.6
2016-Aug-22 16:09N 31°21' E 121°30'0 0.1
2016-Aug-22 15:33N 31°21' E 121°30'65643742.6
2016-Aug-22 15:32N 23°04' E 113°29'65911401.3
2016-Aug-22 15:29N 31°30' E 121°23'10111.1
2016-Aug-22 15:24N 31°21' E 121°27'814883.4
2016-Aug-22 15:24N 31°29' E 121°25'892.7
2016-Aug-22 15:18N 31°35' E 121°18'151120.0
2016-Aug-22 15:18N 31°25' E 121°32'7166.6
2016-Aug-22 15:15N 31°18' E 121°33'694.3
2016-Aug-22 15:11N 31°24' E 121°32'1422.7
2016-Aug-22 14:33N 31°34' E 121°20'11502.3
2016-Aug-22 14:32N 31°27' E 121°29'4744148.3
2016-Aug-22 14:25N 24°09' E 118°05'4817941.7
2016-Aug-22 14:22N 31°56' E 120°11'744158.7
2016-Aug-22 14:21N 31°21' E 121°27'3153.7
2016-Aug-22 14:20N 31°21' E 121°30'712052.1
2016-Aug-22 14:17N 31°58' E 120°19'860.2
2016-Aug-22 14:10N 31°57' E 120°10'674188.9
2016-Aug-22 14:09N 31°30' E 121°23'0 0.8
2016-Aug-22 13:34N 31°30' E 121°23'66118782.7
2016-Aug-22 13:34N 31°56' E 120°12'64092216.3
2016-Aug-22 13:33N 23°04' E 113°29'660593692.7
2016-Aug-22 13:33N 31°25' E 121°32'76271930.4
2016-Aug-22 13:33N 31°56' E 120°11'63227862.2
2016-Aug-22 13:33N 31°31' E 121°19'627385.6
2016-Aug-22 13:33N 31°57' E 120°13'48434133.3
2016-Aug-22 13:32N 24°07' E 118°03'47222345.4
2016-Aug-22 13:30N 31°21' E 121°31'11878.5
2016-Aug-22 13:30N 31°30' E 121°23'1127.6
2016-Aug-22 13:29N 31°29' E 121°25'8396.5
2016-Aug-22 13:28N 31°21' E 121°27'761879.1
2016-Aug-22 13:25N 31°57' E 120°09'813052.0
2016-Aug-22 13:24N 31°23' E 121°35'4193.0
2016-Aug-22 13:23N 31°21' E 121°30'6139.2
2016-Aug-22 13:20N 31°15' E 121°31'871023.5
2016-Aug-22 13:15N 29°57' E 122°16'92134.5
2016-Aug-22 12:33N 31°21' E 121°31'415189.3
2016-Aug-22 12:33N 31°25' E 121°32'715412.9
2016-Aug-22 12:33N 31°58' E 120°18'828810.6
2016-Aug-22 12:33N 32°02' E 120°27'512986.1
2016-Aug-22 12:32N 31°35' E 121°18'81141.8
2016-Aug-22 12:31N 31°29' E 121°25'117.4
2016-Aug-22 12:26N 31°30' E 121°23'6910313.4
2016-Aug-22 12:26N 31°57' E 120°09'82841.7
2016-Aug-22 12:20N 31°18' E 121°33'6264.5
2016-Aug-22 12:19N 31°21' E 121°27'7293.1
2016-Aug-22 12:17N 31°15' E 121°31'65213404.4
2016-Aug-22 12:14N 23°04' E 113°29'65645425.7
2016-Aug-22 12:13N 31°21' E 121°30'1282.6
2016-Aug-22 12:05N 31°31' E 121°23'1222.6
2016-Aug-22 11:33N 31°39' E 121°13'4810061.3
2016-Aug-22 11:33N 32°02' E 120°23'601446.1
2016-Aug-22 11:31N 31°30' E 121°23'6035777.6
2016-Aug-22 11:31N 31°60' E 120°23'702682.6
2016-Aug-22 11:29N 31°21' E 121°31'4453.3
2016-Aug-22 11:29N 31°25' E 121°32'7388.0
2016-Aug-22 11:27N 31°18' E 121°33'51705.8
2016-Aug-22 11:27N 31°22' E 121°36'66043991.7
2016-Aug-22 11:26N 23°04' E 113°29'65239096.3
2016-Aug-22 11:25N 31°15' E 121°31'7251.6
2016-Aug-22 11:24N 31°21' E 121°27'681050.2
2016-Aug-22 11:20N 32°00' E 120°21'11253.6
2016-Aug-22 11:17N 31°57' E 120°09'781246.9
2016-Aug-22 11:13N 31°21' E 121°30'9134.5
2016-Aug-22 11:09N 31°29' E 121°25'78128.2
2016-Aug-22 10:33N 31°60' E 120°00'833452.1
2016-Aug-22 10:31N 31°26' E 121°30'4770.1
2016-Aug-22 10:31N 31°22' E 121°30'7815542.7
2016-Aug-22 10:31N 31°57' E 120°09'91140.9
2016-Aug-22 10:30N 31°58' E 120°20'6173120.6
2016-Aug-22 10:30N 31°30' E 121°23'9930.5
2016-Aug-22 10:30N 31°25' E 121°32'10313.5
2016-Aug-22 10:28N 31°31' E 121°23'659474282.7
2016-Aug-22 10:28N 23°04' E 113°29'659139622.3
2016-Aug-22 10:27N 31°43' E 121°07'34122529.5
2016-Aug-22 10:27N 31°18' E 121°33'711834.8
2016-Aug-22 10:25N 32°04' E 120°31'652099.1
2016-Aug-22 10:23N 31°21' E 121°27'8377.1
2016-Aug-22 10:22N 31°29' E 121°25'15341.2
2016-Aug-22 10:19N 31°15' E 121°31'652.2
2016-Aug-22 10:12N 31°21' E 121°30'856.6
2016-Aug-22 10:04N 31°21' E 121°39'611.1
2016-Aug-22 09:33N 31°18' E 121°33'65578652.8
2016-Aug-22 09:33N 23°03' E 113°30'640575873.6
2016-Aug-22 09:33N 31°57' E 120°08'713289.0
2016-Aug-22 09:32N 31°29' E 121°25'6415318.6
2016-Aug-22 09:31N 31°57' E 120°17'6211660.7
2016-Aug-22 09:31N 31°31' E 121°23'12613.2
2016-Aug-22 09:30N 31°21' E 121°30'377.3
2016-Aug-22 09:27N 31°23' E 121°34'142339.5
2016-Aug-22 09:27N 31°31' E 121°21'182690.2
2016-Aug-22 09:26N 31°15' E 121°31'7444.8
2016-Aug-22 09:25N 31°21' E 121°27'10377.1
2016-Aug-22 09:24N 31°30' E 121°23'9434.4
2016-Aug-22 09:23N 31°25' E 121°32'4355.4
2016-Aug-22 09:22N 31°21' E 121°31'792209.8
2016-Aug-22 09:20N 31°57' E 120°09'543032309.3
2016-Aug-22 09:10N 48°25' W 123°22'5396413346.7
2016-Aug-22 09:09N 31°41' E 121°11'5539138.8
2016-Aug-22 09:05N 23°21' E 116°43'842232.2
2016-Aug-22 09:03N 24°05' E 118°02'484966.3
2016-Aug-22 08:33N 31°38' E 121°15'5625322.7
2016-Aug-22 08:33N 31°56' E 120°12'7846854.2
2016-Aug-22 08:33N 31°15' E 121°31'658197351.8
2016-Aug-22 08:33N 22°55' E 113°30'66520110.8
2016-Aug-22 08:31N 31°23' E 121°32'7814060.3
2016-Aug-22 08:30N 31°57' E 120°09'776772.6
2016-Aug-22 08:30N 31°22' E 121°30'10734.4
2016-Aug-22 08:29N 31°30' E 121°23'116.9
2016-Aug-22 08:26N 31°31' E 121°22'12667.8
2016-Aug-22 08:24N 31°21' E 121°30'775343.4
2016-Aug-22 08:24N 31°56' E 120°10'81600.7
2016-Aug-22 08:16N 31°18' E 121°33'6108.0
2016-Aug-22 08:12N 31°21' E 121°27'540049589.1
2016-Aug-22 08:06N 48°25' W 123°23'53959980.1
2016-Aug-22 07:33N 31°32' E 121°22'6634158.0
2016-Aug-22 07:33N 31°56' E 120°10'759966.5
2016-Aug-22 07:33N 31°21' E 121°27'71778.0
2016-Aug-22 07:32N 31°15' E 121°31'17673.0
2016-Aug-22 07:31N 31°31' E 121°22'122338.2
2016-Aug-22 07:30N 31°21' E 121°30'5397164653.6
2016-Aug-22 07:28N 48°25' W 123°23'62022232801.3
2016-Aug-22 07:28N 22°53' E 113°20'68227590.9
2016-Aug-22 07:27N 31°31' E 121°39'12182.4
2016-Aug-22 07:23N 31°21' E 121°31'4681653.1
2016-Aug-22 07:06N 24°09' E 118°06'96175.8
2016-Aug-22 06:33N 23°24' E 116°33'545140221.0
2016-Aug-22 06:33N 31°21' E 121°31'172314.6
2016-Aug-22 06:32N 31°35' E 121°19'5707.5
2016-Aug-22 06:32N 31°31' E 121°22'668218492.1
2016-Aug-22 06:32N 22°55' E 113°27'668200421.8
2016-Aug-22 06:32N 31°25' E 121°31'8595.9
2016-Aug-22 06:31N 31°18' E 121°33'46544041.5
2016-Aug-22 06:30N 24°11' E 118°07'47941040.5
2016-Aug-22 06:29N 31°58' E 120°02'6140.9
2016-Aug-22 06:27N 31°57' E 120°09'701774.9
2016-Aug-22 06:25N 31°29' E 121°25'539355153.5
2016-Aug-22 06:19N 48°19' W 123°30'53921294110.9
2016-Aug-22 06:18N 31°24' E 121°32'419.3
2016-Aug-22 06:05N 31°21' E 121°27'713.1
2016-Aug-22 05:33N 31°15' E 121°31'540114387.7
2016-Aug-22 05:33N 23°21' E 116°40'540486022.4
2016-Aug-22 05:33N 31°15' E 121°30'84215.4
2016-Aug-22 05:33N 31°23' E 121°30'46655973.7
2016-Aug-22 05:32N 24°12' E 118°09'46592925.7
2016-Aug-22 05:32N 31°21' E 121°31'121744.1
2016-Aug-22 05:32N 31°30' E 121°23'1311435.7
2016-Aug-22 05:32N 31°20' E 121°33'14326.0
2016-Aug-22 05:29N 31°31' E 121°23'6651197050.4
2016-Aug-22 05:29N 22°55' E 113°30'646775535.9
2016-Aug-22 05:29N 31°58' E 120°06'54254882300.1
2016-Aug-22 05:29N 48°17' W 123°36'5394462300.6
2016-Aug-22 05:28N 31°21' E 121°27'8909.9
2016-Aug-22 05:28N 31°29' E 121°25'10611.5
2016-Aug-22 05:27N 31°21' E 121°31'7814810.0
2016-Aug-22 05:26N 31°57' E 120°09'798076.2
2016-Aug-22 05:26N 31°21' E 121°31'7710240.5
2016-Aug-22 05:25N 31°56' E 120°11'7624939.8
2016-Aug-22 05:25N 31°21' E 121°30'371.8
2016-Aug-22 05:23N 31°20' E 121°33'49920418.3
2016-Aug-22 05:21N 39°04' E 117°50'9481195.2
2016-Aug-22 04:33N 23°18' E 116°47'181217460.0
2016-Aug-22 04:33N 22°60' E 113°31'26328743.5
2016-Aug-22 04:33N 24°11' E 118°08'47823572.6
2016-Aug-22 04:32N 31°57' E 120°09'809343.5
2016-Aug-22 04:31N 31°20' E 121°33'53871491694.3
2016-Aug-22 04:31N 48°16' W 123°41'5386745720.4
2016-Aug-22 04:31N 31°30' E 121°23'6450.5
2016-Aug-22 04:30N 31°31' E 121°17'6224703.6
2016-Aug-22 04:30N 31°56' E 120°11'7429587.4
2016-Aug-22 04:29N 31°21' E 121°27'7489.6
2016-Aug-22 04:29N 31°15' E 121°31'149.2
2016-Aug-22 04:28N 31°15' E 121°31'5031809407.5
2016-Aug-22 04:28N 39°04' E 117°49'497255576.6
2016-Aug-22 04:28N 31°23' E 121°36'5242.1
2016-Aug-22 04:26N 31°21' E 121°31'10416.6
2016-Aug-22 04:25N 31°29' E 121°25'151163.0
2016-Aug-22 04:24N 31°21' E 121°39'172756.8
2016-Aug-22 04:24N 31°31' E 121°23'1488.8
2016-Aug-22 04:14N 31°20' E 121°33'37369.8
2016-Aug-22 04:08N 31°46' E 121°04'4686576.1
2016-Aug-22 04:04N 39°05' E 117°45'445857.7
2016-Aug-22 03:33N 31°57' E 120°14'6422312493.2
2016-Aug-22 03:33N 23°04' E 113°29'26272542.5
2016-Aug-22 03:33N 24°10' E 118°06'47448714.6
2016-Aug-22 03:32N 31°29' E 121°25'8503.6
2016-Aug-22 03:31N 31°21' E 121°27'7371.8
2016-Aug-22 03:30N 31°15' E 121°31'197795.7
2016-Aug-22 03:30N 31°31' E 121°17'6179.4
2016-Aug-22 03:28N 31°30' E 121°23'141841.8
2016-Aug-22 03:27N 31°41' E 121°13'25715.2
2016-Aug-22 03:25N 31°21' E 121°31'49742628.9
2016-Aug-22 03:25N 39°04' E 117°49'498199014.5
2016-Aug-22 03:24N 31°21' E 121°31'5755115097.5
2016-Aug-22 03:21N 37°47' W 122°16'5798166983.7
2016-Aug-22 03:19N 31°56' E 120°11'57957583.3
2016-Aug-22 02:33N 37°48' W 122°19'57882976459.3
2016-Aug-22 02:33N 31°58' E 120°18'48587284.6
2016-Aug-22 02:33N 24°08' E 118°05'476171193.8
2016-Aug-22 02:33N 31°29' E 121°25'76176.7
2016-Aug-22 02:33N 31°31' E 121°17'147109.8
2016-Aug-22 02:33N 31°22' E 121°30'272671.7
2016-Aug-22 02:32N 31°42' E 121°09'47133883.7
2016-Aug-22 02:31N 39°04' E 117°51'44256800.6
2016-Aug-22 02:31N 31°57' E 120°09'6924733.5
2016-Aug-22 02:31N 31°30' E 121°23'6711484.8
2016-Aug-22 02:30N 31°56' E 120°11'7453259.3
2016-Aug-22 02:30N 31°21' E 121°27'66968834.1
2016-Aug-22 02:30N 22°19' E 114°09'61313.4
2016-Aug-22 02:18N 23°06' E 113°27'65628466.1
2016-Aug-22 02:17N 31°21' E 121°31'035.1
2016-Aug-22 02:16N 31°21' E 121°31'84976.7
2016-Aug-22 02:11N 31°58' E 120°02'483763.6
2016-Aug-22 01:33N 24°07' E 118°05'242290956.4
2016-Aug-22 01:33N 22°19' E 114°09'6711207933.4
2016-Aug-22 01:33N 31°31' E 121°17'575310355171.1
2016-Aug-22 01:33N 37°49' W 122°24'57501881973.1
2016-Aug-22 01:32N 31°40' E 121°12'243134.8
2016-Aug-22 01:32N 31°24' E 121°32'7083862.6
2016-Aug-22 01:32N 32°01' E 120°22'738493.4
2016-Aug-22 01:31N 31°23' E 121°35'1367.5
2016-Aug-22 01:31N 31°22' E 121°36'8211314.1
2016-Aug-22 01:31N 31°57' E 120°09'694756.4
2016-Aug-22 01:30N 31°30' E 121°23'65979072.7
2016-Aug-22 01:29N 23°06' E 113°27'65981801.6
2016-Aug-22 01:29N 31°29' E 121°25'683330.7
2016-Aug-22 01:28N 31°56' E 120°11'771590.2
2016-Aug-22 01:25N 31°21' E 121°31'375.6
2016-Aug-22 01:22N 31°21' E 121°27'373.5
2016-Aug-22 01:20N 31°21' E 121°30'80869.6
2016-Aug-22 01:15N 31°58' E 120°07'3 4.6
2016-Aug-22 00:34N 31°57' E 120°10'58105254.3
2016-Aug-22 00:33N 31°38' E 121°15'224852.7
2016-Aug-22 00:33N 31°21' E 121°31'11108.9
2016-Aug-22 00:33N 31°21' E 121°32'161554.0
2016-Aug-22 00:33N 31°31' E 121°17'477132180.8
2016-Aug-22 00:32N 24°05' E 118°03'62031395698.9
2016-Aug-22 00:32N 37°52' W 122°27'5746766163.2
2016-Aug-22 00:32N 31°21' E 121°27'101910.6
2016-Aug-22 00:31N 31°30' E 121°23'113305.3
2016-Aug-22 00:31N 31°21' E 121°31'2195.0
2016-Aug-22 00:31N 31°22' E 121°29'7520732.6
2016-Aug-22 00:30N 31°56' E 120°11'65232528.1
2016-Aug-22 00:30N 31°32' E 121°21'67410643.0
2016-Aug-22 00:27N 22°19' E 114°09'61972.8
2016-Aug-22 00:23N 23°06' E 113°27'65935943.1
2016-Aug-22 00:22N 31°29' E 121°25'9400.0
2016-Aug-22 00:20N 31°21' E 121°30'7817521.8
2016-Aug-22 00:20N 31°57' E 120°09'538726895.2
2016-Aug-22 00:08N 48°20' W 124°23'53539189.9
2016-Aug-21 23:33N 31°31' E 121°22'626788.7
2016-Aug-21 23:33N 31°57' E 120°16'5377339575.6
2016-Aug-21 23:32N 48°22' W 124°28'5347337728.3
2016-Aug-21 23:31N 31°35' E 121°19'5236.1
2016-Aug-21 23:30N 31°31' E 121°17'65533229.0
2016-Aug-21 23:28N 23°06' E 113°27'64026497.4
2016-Aug-21 23:27N 31°56' E 120°11'661113394.8
2016-Aug-21 23:27N 22°19' E 114°09'66943803.2
2016-Aug-21 23:26N 31°21' E 121°27'10324.4
2016-Aug-21 23:24N 31°30' E 121°23'124.1
2016-Aug-21 23:20N 31°29' E 121°25'10352.9
2016-Aug-21 23:18N 31°21' E 121°31'795542.9
2016-Aug-21 23:18N 31°57' E 120°09'78878.4
2016-Aug-21 23:12N 31°21' E 121°30'122.7
2016-Aug-21 23:09N 31°22' E 121°29'7120.4
2016-Aug-21 23:05N 31°15' E 121°31'713.6
2016-Aug-21 22:33N 31°22' E 121°29'53412403362.3
2016-Aug-21 22:33N 48°25' W 124°38'533919221953.6
2016-Aug-21 22:33N 31°34' E 121°18'41440.4
2016-Aug-21 22:33N 31°32' E 121°23'6010722.3
2016-Aug-21 22:33N 31°60' E 120°21'7529865.7
2016-Aug-21 22:32N 31°18' E 121°33'670803577.3
2016-Aug-21 22:32N 22°19' E 114°09'66924583.6
2016-Aug-21 22:31N 31°21' E 121°27'474569357.2
2016-Aug-21 22:31N 24°04' E 118°01'487159227.8
2016-Aug-21 22:31N 31°57' E 120°09'7011452.6
2016-Aug-21 22:30N 31°29' E 121°25'1385.4
2016-Aug-21 22:30N 31°30' E 121°23'679667.5
2016-Aug-21 22:30N 31°56' E 120°11'64021342.8
2016-Aug-21 22:28N 23°06' E 113°27'6127.3
2016-Aug-21 22:25N 23°02' E 113°22'6588079.0
2016-Aug-21 22:20N 31°15' E 121°31'6612.2
2016-Aug-21 22:20N 31°21' E 121°30'0 4.2
2016-Aug-21 22:17N 31°21' E 121°30'147.5
2016-Aug-21 22:16N 31°21' E 121°31'57457979.1
2016-Aug-21 21:33N 37°52' W 122°25'62431021651.7
2016-Aug-21 21:33N 23°43' E 117°35'514369809.8
2016-Aug-21 21:33N 31°38' E 121°15'122524.6
2016-Aug-21 21:32N 31°29' E 121°25'66020847.8
2016-Aug-21 21:31N 23°05' E 113°26'612760.4
2016-Aug-21 21:29N 22°19' E 114°09'67177909.8
2016-Aug-21 21:29N 31°21' E 121°31'693675.6
2016-Aug-21 21:28N 32°04' E 120°27'614901.1
2016-Aug-21 21:27N 31°28' E 121°25'1412563.8
2016-Aug-21 21:27N 31°15' E 121°31'17470.7
2016-Aug-21 21:25N 31°31' E 121°23'661864.5
2016-Aug-21 21:22N 31°56' E 120°11'676714.0
2016-Aug-21 21:22N 31°30' E 121°23'65959302.9
2016-Aug-21 21:21N 23°06' E 113°27'65616739.4
2016-Aug-21 21:19N 31°18' E 121°33'490.4
2016-Aug-21 21:16N 31°21' E 121°30'4724250.1
2016-Aug-21 21:09N 24°06' E 118°03'483799.8
2016-Aug-21 20:33N 31°40' E 121°12'482102023.2
2016-Aug-21 20:33N 24°08' E 118°04'6206797925.1
2016-Aug-21 20:32N 37°48' W 122°22'5750940918.1
2016-Aug-21 20:32N 31°31' E 121°22'46561.6
2016-Aug-21 20:32N 31°28' E 121°25'8856.3
2016-Aug-21 20:31N 31°21' E 121°30'91294.6
2016-Aug-21 20:31N 31°29' E 121°25'681892.9
2016-Aug-21 20:29N 31°56' E 120°11'64018895.1
2016-Aug-21 20:27N 23°06' E 113°27'6238.7
2016-Aug-21 20:25N 23°01' E 113°31'660108046.1
2016-Aug-21 20:25N 31°30' E 121°23'1576.8
2016-Aug-21 20:13N 31°18' E 121°33'439.7
2016-Aug-21 20:06N 31°21' E 121°30'119.7
2016-Aug-21 20:04N 31°21' E 121°31'79153.4
2016-Aug-21 19:33N 30°40' E 122°50'469241442.3
2016-Aug-21 19:33N 24°07' E 118°01'6210859887.2
2016-Aug-21 19:33N 37°48' W 122°21'5751197192.6
2016-Aug-21 19:31N 31°31' E 121°22'175.1
2016-Aug-21 19:30N 31°30' E 121°23'3138.5
2016-Aug-21 19:29N 31°28' E 121°25'11120.4
2016-Aug-21 19:24N 31°20' E 121°33'251.0
2016-Aug-21 19:21N 31°21' E 121°31'62418.7
2016-Aug-21 19:21N 31°15' E 121°31'66635780.1
2016-Aug-21 19:20N 22°19' E 114°09'6116914.7
2016-Aug-21 19:20N 23°06' E 113°27'64014683.7
2016-Aug-21 19:17N 31°56' E 120°11'6822354.3
2016-Aug-21 19:17N 31°29' E 121°25'14192.5
2016-Aug-21 19:13N 31°18' E 121°33'61308.3
2016-Aug-21 19:13N 31°21' E 121°27'25311.5
2016-Aug-21 19:08N 31°41' E 121°10'575810033.2
2016-Aug-21 18:33N 37°48' W 122°17'57581727495.4
2016-Aug-21 18:33N 31°41' E 121°09'322098.6
2016-Aug-21 18:32N 31°15' E 121°31'91023.4
2016-Aug-21 18:32N 31°23' E 121°34'10597.9
2016-Aug-21 18:31N 31°29' E 121°25'2583.9
2016-Aug-21 18:31N 31°31' E 121°22'12726.3
2016-Aug-21 18:30N 31°21' E 121°30'8510.8
2016-Aug-21 18:29N 31°28' E 121°25'692901.8
2016-Aug-21 18:27N 31°56' E 120°11'743096.4
2016-Aug-21 18:26N 31°21' E 121°27'368.1
2016-Aug-21 18:23N 31°21' E 121°31'7810447.3
2016-Aug-21 18:23N 31°57' E 120°09'64014673.4
2016-Aug-21 18:20N 23°06' E 113°27'65918388.2
2016-Aug-21 18:18N 31°30' E 121°23'3 3.7
2016-Aug-21 17:33N 31°28' E 121°25'219385.7
2016-Aug-21 17:33N 31°43' E 121°08'182701.5
2016-Aug-21 17:33N 31°30' E 121°23'111780.6
2016-Aug-21 17:33N 31°21' E 121°30'12638.5
2016-Aug-21 17:31N 31°31' E 121°22'162624.2
2016-Aug-21 17:31N 31°18' E 121°33'264011.2
2016-Aug-21 17:31N 31°38' E 121°15'221715.4
2016-Aug-21 17:30N 31°21' E 121°31'11302.1
2016-Aug-21 17:28N 31°30' E 121°23'671391.7
2016-Aug-21 17:25N 31°56' E 120°11'803254.1
2016-Aug-21 17:23N 31°15' E 121°31'15883.9
2016-Aug-21 17:22N 31°29' E 121°25'67418812.7
2016-Aug-21 17:20N 22°19' E 114°09'613012.2
2016-Aug-21 17:19N 23°06' E 113°27'236990.6
2016-Aug-21 17:05N 23°48' E 117°39'505966.7
2016-Aug-21 16:33N 31°34' E 121°20'6322658.7
2016-Aug-21 16:33N 31°56' E 120°11'797724.7
2016-Aug-21 16:32N 31°20' E 121°33'8111632.0
2016-Aug-21 16:32N 31°57' E 120°09'752009.5
2016-Aug-21 16:30N 31°21' E 121°27'6557251.5
2016-Aug-21 16:24N 23°06' E 113°27'61849419.0
2016-Aug-21 16:24N 30°03' E 121°56'8273472.4
2016-Aug-21 16:24N 31°21' E 121°30'023.1
2016-Aug-21 16:23N 31°21' E 121°30'156633.3
2016-Aug-21 16:23N 31°31' E 121°17'71736.2
2016-Aug-21 16:23N 31°29' E 121°25'188.5
2016-Aug-21 16:22N 31°28' E 121°25'4317.7
2016-Aug-21 16:22N 31°31' E 121°22'133.0
2016-Aug-21 16:20N 31°30' E 121°23'683327.4
2016-Aug-21 16:19N 31°57' E 120°09'7092.1
2016-Aug-21 15:33N 31°30' E 121°25'666251.0
2016-Aug-21 15:33N 31°57' E 120°14'7911804.4
2016-Aug-21 15:32N 31°22' E 121°37'3374.1
2016-Aug-21 15:32N 31°23' E 121°34'7828025.1
2016-Aug-21 15:32N 31°56' E 120°11'672460.9
2016-Aug-21 15:30N 31°30' E 121°23'659790726.7
2016-Aug-21 15:30N 23°06' E 113°27'65560493.8
2016-Aug-21 15:29N 31°31' E 121°17'1311582.2
2016-Aug-21 15:29N 31°21' E 121°27'83301.6
2016-Aug-21 15:29N 31°29' E 121°25'92074.9
2016-Aug-21 15:29N 31°21' E 121°30'1147.0
2016-Aug-21 15:29N 31°21' E 121°31'67115482.2
2016-Aug-21 15:26N 22°19' E 114°09'67053572.2
2016-Aug-21 15:25N 31°18' E 121°33'281451.2
2016-Aug-21 15:24N 31°40' E 121°13'16433.4
2016-Aug-21 15:22N 31°28' E 121°25'981957.3
2016-Aug-21 15:19N 29°56' E 122°04'842451.8
2016-Aug-21 15:17N 31°15' E 121°31'781461.0
2016-Aug-21 15:14N 31°56' E 120°13'74637.0
2016-Aug-21 15:07N 31°21' E 121°30'2137.0
2016-Aug-21 14:33N 31°38' E 121°16'7628.4
2016-Aug-21 14:32N 31°31' E 121°17'5510.2
2016-Aug-21 14:32N 31°30' E 121°23'674231.2
2016-Aug-21 14:31N 31°56' E 120°11'1449749.2
2016-Aug-21 14:30N 29°59' E 121°48'191061.5
2016-Aug-21 14:29N 29°51' E 122°07'1585697.0
2016-Aug-21 14:27N 31°58' E 120°18'671075.5
2016-Aug-21 14:23N 31°28' E 121°28'380.6
2016-Aug-21 14:21N 31°28' E 121°25'12354.2
2016-Aug-21 14:19N 31°18' E 121°33'80617.1
2016-Aug-21 14:12N 31°55' E 120°10'771866.8
2016-Aug-21 14:09N 31°21' E 121°31'102704.7
2016-Aug-21 14:09N 31°29' E 121°25'711.9
2016-Aug-21 13:33N 31°34' E 121°19'71264.7
2016-Aug-21 13:33N 31°29' E 121°25'6822392.0
2016-Aug-21 13:33N 31°56' E 120°11'6111637.6
2016-Aug-21 13:32N 31°34' E 121°18'9326.9
2016-Aug-21 13:31N 31°28' E 121°25'693418.9
2016-Aug-21 13:30N 31°55' E 120°10'6760313.8
2016-Aug-21 13:30N 31°30' E 121°23'77895.5
2016-Aug-21 13:30N 31°26' E 121°29'65950453.9
2016-Aug-21 13:29N 23°06' E 113°27'6557935.1
2016-Aug-21 13:24N 31°21' E 121°27'3185.0
2016-Aug-21 13:23N 31°21' E 121°31'466.6
2016-Aug-21 13:19N 31°18' E 121°33'5181.6
2016-Aug-21 13:18N 31°21' E 121°38'67510514.2
2016-Aug-21 13:14N 22°19' E 114°09'676998.4
2016-Aug-21 12:33N 31°40' E 121°12'2421276.8
2016-Aug-21 12:33N 31°24' E 121°32'7827999.9
2016-Aug-21 12:33N 31°57' E 120°09'66118991.6
2016-Aug-21 12:33N 31°32' E 121°21'1828.7
2016-Aug-21 12:33N 31°32' E 121°23'480107897.0
2016-Aug-21 12:33N 24°07' E 117°59'41833417.0
2016-Aug-21 12:32N 29°57' E 122°15'1033068.3
2016-Aug-21 12:30N 31°30' E 121°23'3279.0
2016-Aug-21 12:29N 31°28' E 121°25'67457735.9
2016-Aug-21 12:28N 22°19' E 114°09'6116912.1
2016-Aug-21 12:28N 23°06' E 113°27'65613128.2
2016-Aug-21 12:25N 31°21' E 121°30'761682.9
2016-Aug-21 12:23N 31°56' E 120°11'74473.3
2016-Aug-21 12:13N 31°21' E 121°27'131009.8
2016-Aug-21 12:12N 31°31' E 121°17'6295.3
2016-Aug-21 11:33N 31°56' E 120°11'7716396.0
2016-Aug-21 11:33N 31°23' E 121°33'54588.7
2016-Aug-21 11:33N 31°18' E 121°34'465239120.2
2016-Aug-21 11:33N 24°12' E 118°04'47280941.4
2016-Aug-21 11:33N 31°31' E 121°20'10554194.2
2016-Aug-21 11:33N 29°57' E 122°15'9417736.4
2016-Aug-21 11:32N 31°21' E 121°27'7749.9
2016-Aug-21 11:32N 31°28' E 121°25'9339.8
2016-Aug-21 11:30N 31°21' E 121°31'11621.4
2016-Aug-21 11:29N 31°30' E 121°23'9349.5
2016-Aug-21 11:28N 31°37' E 121°16'594520.8
2016-Aug-21 11:27N 31°56' E 120°11'80713.3
2016-Aug-21 11:20N 31°15' E 121°31'66688786.5
2016-Aug-21 11:20N 22°19' E 114°09'102316085.2
2016-Aug-21 11:16N 39°05' E 117°46'500112494.1
2016-Aug-21 11:16N 31°22' E 121°37'6611188997.6
2016-Aug-21 11:16N 23°06' E 113°27'659942.8
2016-Aug-21 10:34N 31°36' E 121°16'470141046.4
2016-Aug-21 10:33N 24°16' E 118°10'47238642.8
2016-Aug-21 10:33N 31°40' E 121°11'28968.3
2016-Aug-21 10:31N 31°20' E 121°33'9064765.1
2016-Aug-21 10:31N 29°57' E 122°15'16028758.8
2016-Aug-21 10:30N 31°56' E 120°11'74133381.1
2016-Aug-21 10:30N 31°21' E 121°28'3727.6
2016-Aug-21 10:30N 31°23' E 121°31'7165.1
2016-Aug-21 10:28N 31°28' E 121°25'9552.2
2016-Aug-21 10:27N 31°21' E 121°31'778935.5
2016-Aug-21 10:26N 31°56' E 120°11'44314232.8
2016-Aug-21 10:24N 39°04' E 117°50'50269572.7
2016-Aug-21 10:24N 31°15' E 121°31'10315.6
2016-Aug-21 10:22N 31°25' E 121°31'659237305.6
2016-Aug-21 10:22N 23°06' E 113°27'25453866.2
2016-Aug-21 10:22N 20°02' E 110°18'91334586.0
2016-Aug-21 10:20N 31°30' E 121°23'48817582.2
2016-Aug-21 10:18N 39°05' E 117°45'488644.0
2016-Aug-21 09:33N 31°30' E 121°23'32371.1
2016-Aug-21 09:33N 31°28' E 121°25'1864521.2
2016-Aug-21 09:33N 31°41' E 121°10'241093.3
2016-Aug-21 09:32N 31°21' E 121°28'6692409605.4
2016-Aug-21 09:32N 22°19' E 114°09'25565566.0
2016-Aug-21 09:31N 20°02' E 110°18'90618745.4
2016-Aug-21 09:28N 31°15' E 121°31'6476.0
2016-Aug-21 09:28N 31°21' E 121°30'656787292.9
2016-Aug-21 09:28N 23°06' E 113°27'2765987.4
2016-Aug-21 09:25N 24°20' E 118°18'46719118.1
2016-Aug-21 09:23N 31°56' E 120°11'4435867.2
2016-Aug-21 09:19N 39°05' E 117°51'4863672.6
2016-Aug-21 09:11N 31°31' E 121°23'664110.9
2016-Aug-21 09:10N 31°56' E 120°11'5183.5
2016-Aug-21 08:33N 31°43' E 121°08'66091323.9
2016-Aug-21 08:33N 23°06' E 113°27'658182277.2
2016-Aug-21 08:33N 31°28' E 121°25'693571.3
2016-Aug-21 08:32N 31°56' E 120°11'76137564.1
2016-Aug-21 08:32N 31°21' E 121°31'671603784.1
2016-Aug-21 08:32N 22°19' E 114°09'66670507.4
2016-Aug-21 08:31N 31°15' E 121°31'793367.4
2016-Aug-21 08:30N 31°56' E 120°12'732190.6
2016-Aug-21 08:28N 31°22' E 121°28'45080975.8
2016-Aug-21 08:27N 24°22' E 118°25'45744431.3
2016-Aug-21 08:27N 31°30' E 121°23'1108.0
2016-Aug-21 08:26N 31°31' E 121°22'139.9
2016-Aug-21 08:25N 31°30' E 121°23'1585.6
2016-Aug-21 08:14N 31°18' E 121°33'443650.9
2016-Aug-21 07:33N 24°25' E 118°31'44750268.4
2016-Aug-21 07:33N 31°23' E 121°30'749892.4
2016-Aug-21 07:32N 31°56' E 120°12'754509.4
2016-Aug-21 07:31N 31°21' E 121°30'4148.4
2016-Aug-21 07:29N 31°18' E 121°33'1658242.8
2016-Aug-21 07:29N 31°31' E 121°22'4454.2
2016-Aug-21 07:29N 31°28' E 121°25'147185.1
2016-Aug-21 07:29N 31°15' E 121°31'66657076.6
2016-Aug-21 07:28N 22°19' E 114°09'66912955.9
2016-Aug-21 07:25N 31°60' E 120°22'10400.1
2016-Aug-21 07:23N 31°56' E 120°11'7318812.3
2016-Aug-21 07:23N 31°26' E 121°29'28101681.7
2016-Aug-21 07:23N 31°45' E 121°04'222104.2
2016-Aug-21 07:23N 31°30' E 121°23'65917569.0
2016-Aug-21 07:20N 23°06' E 113°27'98423160.0
2016-Aug-21 07:18N 39°05' E 117°46'5024019.1
2016-Aug-21 07:10N 31°18' E 121°33'466.2
2016-Aug-21 07:07N 31°21' E 121°31'72129.6
2016-Aug-21 06:33N 31°57' E 120°17'615657.8
2016-Aug-21 06:33N 31°31' E 121°22'485109180.3
2016-Aug-21 06:32N 39°04' E 117°50'443319281.8
2016-Aug-21 06:32N 31°56' E 120°12'7921898.3
2016-Aug-21 06:32N 31°18' E 121°33'656131114.5
2016-Aug-21 06:32N 23°06' E 113°27'659182447.4
2016-Aug-21 06:32N 31°30' E 121°23'17254.6
2016-Aug-21 06:28N 31°15' E 121°31'6373.0
2016-Aug-21 06:27N 31°21' E 121°31'014.1
2016-Aug-21 06:25N 31°21' E 121°31'671603684.6
2016-Aug-21 06:25N 22°19' E 114°09'67335123.5
2016-Aug-21 06:24N 31°26' E 121°29'42820.5
2016-Aug-21 06:24N 31°28' E 121°25'24503.3
2016-Aug-21 06:21N 31°45' E 121°04'37454.7
2016-Aug-21 06:16N 31°18' E 121°33'5024016.0
2016-Aug-21 06:09N 23°44' E 117°32'516854.6
2016-Aug-21 05:33N 31°45' E 121°04'295854.9
2016-Aug-21 05:32N 31°26' E 121°30'1151.9
2016-Aug-21 05:32N 31°26' E 121°29'67389759.5
2016-Aug-21 05:31N 22°19' E 114°09'6154896.8
2016-Aug-21 05:31N 23°06' E 113°27'659395136.9
2016-Aug-21 05:31N 31°24' E 121°31'49529205.8
2016-Aug-21 05:30N 39°04' E 117°48'486194332.7
2016-Aug-21 05:30N 31°31' E 121°22'1239.3
2016-Aug-21 05:30N 31°30' E 121°23'679256.9
2016-Aug-21 05:29N 31°55' E 120°10'6910391.6
2016-Aug-21 05:29N 31°28' E 121°25'121488.3
2016-Aug-21 05:28N 31°18' E 121°33'016.1
2016-Aug-21 05:28N 31°18' E 121°33'813085.8
2016-Aug-21 05:26N 31°56' E 120°09'529282479.7
2016-Aug-21 05:22N 47°28' W 126°60'52633157727.8
2016-Aug-21 05:22N 31°15' E 121°31'465569.0
2016-Aug-21 04:33N 24°08' E 118°03'47368121.5
2016-Aug-21 04:33N 31°24' E 121°31'73987.8
2016-Aug-21 04:33N 31°28' E 121°25'142010.2
2016-Aug-21 04:32N 31°15' E 121°31'7551.7
2016-Aug-21 04:32N 31°22' E 121°30'162020.3
2016-Aug-21 04:31N 31°35' E 121°18'13328.8
2016-Aug-21 04:29N 31°26' E 121°29'92588.5
2016-Aug-21 04:28N 31°18' E 121°33'826012.9
2016-Aug-21 04:28N 29°58' E 121°56'15425265.1
2016-Aug-21 04:27N 31°58' E 120°02'439112951.2
2016-Aug-21 04:27N 39°04' E 117°51'44393809.3
2016-Aug-21 04:27N 31°56' E 120°12'792591.1
2016-Aug-21 04:25N 31°18' E 121°33'15845.5
2016-Aug-21 04:24N 31°30' E 121°23'1253.5
2016-Aug-21 04:24N 31°31' E 121°22'6137.8
2016-Aug-21 04:21N 31°27' E 121°28'673846.1
2016-Aug-21 03:33N 22°19' E 114°09'30072094.3
2016-Aug-21 03:33N 24°46' E 118°54'41332311.8
2016-Aug-21 03:32N 31°15' E 121°31'194010.0
2016-Aug-21 03:32N 31°31' E 121°19'10713.5
2016-Aug-21 03:31N 31°26' E 121°29'4783.5
2016-Aug-21 03:31N 31°28' E 121°25'10015027.7
2016-Aug-21 03:30N 29°55' E 122°08'1026044.6
2016-Aug-21 03:29N 31°30' E 121°23'058.7
2016-Aug-21 03:29N 31°30' E 121°23'6592372107.6
2016-Aug-21 03:29N 23°06' E 113°27'6566146.3
2016-Aug-21 03:23N 31°18' E 121°33'220.9
2016-Aug-21 03:16N 31°16' E 121°33'409569.8
2016-Aug-21 02:33N 24°50' E 118°60'41621382.5
2016-Aug-21 02:32N 31°24' E 121°31'67356324.1
2016-Aug-21 02:31N 22°19' E 114°09'67433691.5
2016-Aug-21 02:30N 31°30' E 121°23'31354.9
2016-Aug-21 02:30N 31°28' E 121°25'41176.4
2016-Aug-21 02:30N 31°26' E 121°29'6585461.7
2016-Aug-21 02:22N 23°06' E 113°27'6566861.0
2016-Aug-21 02:17N 31°18' E 121°33'739.7
2016-Aug-21 02:07N 31°24' E 121°31'411745.1
2016-Aug-21 01:33N 24°55' E 119°04'31241645.5
2016-Aug-21 01:33N 22°19' E 114°09'67327234.1
2016-Aug-21 01:32N 31°24' E 121°31'278.5
2016-Aug-21 01:30N 31°26' E 121°29'7573.7
2016-Aug-21 01:29N 31°30' E 121°23'15140.5
2016-Aug-21 01:23N 31°18' E 121°33'65642912.8
2016-Aug-21 01:22N 23°06' E 113°27'65916136.2
2016-Aug-21 01:19N 31°27' E 121°27'5 6.1
2016-Aug-21 00:33N 31°30' E 121°23'658394965.0
2016-Aug-21 00:33N 23°06' E 113°27'65832471.1
2016-Aug-21 00:32N 31°26' E 121°29'272.4
2016-Aug-21 00:31N 31°27' E 121°28'11255.8
2016-Aug-21 00:28N 31°21' E 121°39'67536806.0
2016-Aug-21 00:27N 22°19' E 114°09'6743921.4
2016-Aug-21 00:17N 31°30' E 121°23'674925.4
2016-Aug-20 23:33N 22°19' E 114°09'674404414.1
2016-Aug-20 23:33N 31°32' E 121°21'11898.6
2016-Aug-20 23:32N 31°23' E 121°31'91584.4
2016-Aug-20 23:32N 31°30' E 121°23'19682.4
2016-Aug-20 23:30N 31°44' E 121°07'66011820.0
2016-Aug-20 23:27N 23°06' E 113°27'65839509.0
2016-Aug-20 23:26N 31°28' E 121°25'1013147.1
2016-Aug-20 23:24N 29°57' E 122°15'62635223.5
2016-Aug-20 23:23N 23°04' E 113°30'6584187.4
2016-Aug-20 23:13N 31°26' E 121°29'673999.0
2016-Aug-20 22:33N 22°19' E 114°09'6732423542.0
2016-Aug-20 22:33N 31°26' E 121°29'2340933.7
2016-Aug-20 22:33N 31°42' E 121°10'66966.9
2016-Aug-20 22:33N 31°38' E 121°15'113101694.0
2016-Aug-20 22:33N 29°57' E 122°15'94337093.3
2016-Aug-20 22:33N 31°24' E 121°33'101339.3
2016-Aug-20 22:32N 31°30' E 121°23'1555009.6
2016-Aug-20 22:32N 31°18' E 121°34'938165.6
2016-Aug-20 22:32N 29°49' E 122°05'933383.7
2016-Aug-20 22:30N 31°18' E 121°33'65518005.6
2016-Aug-20 22:28N 23°04' E 113°29'656786803.6
2016-Aug-20 22:28N 31°18' E 121°33'12811.9
2016-Aug-20 22:27N 31°28' E 121°25'65865848.3
2016-Aug-20 22:26N 23°06' E 113°27'6564260.3
2016-Aug-20 22:17N 31°18' E 121°33'1672.3
2016-Aug-20 22:04N 31°31' E 121°23'1223.5
2016-Aug-20 21:33N 31°40' E 121°13'2695026.6
2016-Aug-20 21:33N 31°20' E 121°33'41397.9
2016-Aug-20 21:33N 31°22' E 121°30'9210740.1
2016-Aug-20 21:33N 29°55' E 122°06'9610488.0
2016-Aug-20 21:32N 31°26' E 121°29'65891168.3
2016-Aug-20 21:32N 23°06' E 113°27'65971856.3
2016-Aug-20 21:31N 31°29' E 121°25'141962.9
2016-Aug-20 21:31N 31°17' E 121°34'161162.1
2016-Aug-20 21:30N 31°30' E 121°23'1569.9
2016-Aug-20 21:17N 31°18' E 121°33'16286.3
2016-Aug-20 21:14N 31°31' E 121°23'811.3
2016-Aug-20 20:33N 31°37' E 121°17'8475.4
2016-Aug-20 20:32N 31°30' E 121°23'16394.2
2016-Aug-20 20:30N 31°15' E 121°31'807057.5
2016-Aug-20 20:29N 29°57' E 121°53'972597.9
2016-Aug-20 20:27N 31°30' E 121°23'65922377.9
2016-Aug-20 20:25N 23°06' E 113°27'65819572.8
2016-Aug-20 20:23N 31°30' E 121°22'7552.1
2016-Aug-20 20:22N 31°26' E 121°29'67325245.4
2016-Aug-20 20:21N 22°19' E 114°09'6747705.8
2016-Aug-20 20:15N 31°31' E 121°23'710.6
2016-Aug-20 19:33N 31°26' E 121°29'7741.5
2016-Aug-20 19:33N 31°30' E 121°23'33991.9
2016-Aug-20 19:33N 31°33' E 121°21'366.6
2016-Aug-20 19:30N 31°30' E 121°23'67412703.7
2016-Aug-20 19:27N 22°19' E 114°09'67438530.6
2016-Aug-20 19:26N 31°31' E 121°22'65937648.0
2016-Aug-20 19:24N 23°06' E 113°27'6525407.2
2016-Aug-20 19:17N 31°15' E 121°31'1418.4
2016-Aug-20 18:31N 31°29' E 121°27'4440.0
2016-Aug-20 18:30N 31°26' E 121°29'658124756.6
2016-Aug-20 18:30N 23°06' E 113°27'65647203.5
2016-Aug-20 18:29N 31°18' E 121°33'162308.6
2016-Aug-20 18:29N 31°31' E 121°22'179.2
2016-Aug-20 18:28N 31°30' E 121°23'17300.5
2016-Aug-20 18:25N 31°15' E 121°31'17249.7
2016-Aug-20 18:21N 31°30' E 121°23'0 2.3
2016-Aug-20 18:18N 31°30' E 121°23'67410325.7
2016-Aug-20 18:15N 22°19' E 114°09'673981.6
2016-Aug-20 17:33N 31°26' E 121°29'114091.8
2016-Aug-20 17:33N 31°14' E 121°29'172904.6
2016-Aug-20 17:33N 31°30' E 121°23'10185.5
2016-Aug-20 17:30N 31°24' E 121°33'660475203.3
2016-Aug-20 17:29N 23°06' E 113°27'611426.8
2016-Aug-20 17:27N 22°19' E 114°09'6747538.6
2016-Aug-20 17:22N 31°31' E 121°22'173293.0
2016-Aug-20 17:21N 31°15' E 121°31'17409.9
2016-Aug-20 17:19N 31°30' E 121°23'1721.1
2016-Aug-20 16:32N 31°15' E 121°31'171215.3
2016-Aug-20 16:31N 31°30' E 121°23'151717.5
2016-Aug-20 16:30N 31°18' E 121°33'010.0
2016-Aug-20 16:29N 31°18' E 121°33'16812.6
2016-Aug-20 16:28N 31°31' E 121°22'6597412.1
2016-Aug-20 16:23N 23°06' E 113°27'6597748.2
2016-Aug-20 16:18N 31°30' E 121°23'7636.2
2016-Aug-20 16:17N 31°26' E 121°29'751.9
2016-Aug-20 16:09N 31°30' E 121°23'0 0.5
2016-Aug-20 15:33N 31°30' E 121°23'1244703.7
2016-Aug-20 15:33N 31°21' E 121°32'13370.3
2016-Aug-20 15:31N 31°30' E 121°23'145.8
2016-Aug-20 15:30N 31°31' E 121°23'162610.6
2016-Aug-20 15:29N 31°18' E 121°33'65635226.7
2016-Aug-20 15:28N 23°06' E 113°27'65987831.7
2016-Aug-20 15:28N 31°24' E 121°32'336.9
2016-Aug-20 15:23N 31°26' E 121°29'1073.4
2016-Aug-20 15:15N 31°17' E 121°34'7 9.9
2016-Aug-20 14:33N 31°23' E 121°30'2228.0
2016-Aug-20 14:33N 31°25' E 121°30'344.7
2016-Aug-20 14:28N 31°22' E 121°30'10145.9
2016-Aug-20 14:24N 31°30' E 121°23'65917314.5
2016-Aug-20 14:22N 23°06' E 113°27'6594704.8
2016-Aug-20 14:13N 31°30' E 121°23'16271.0
2016-Aug-20 14:10N 31°17' E 121°34'1625.2
2016-Aug-20 13:32N 31°30' E 121°23'0 7.4
2016-Aug-20 13:30N 31°30' E 121°23'91742.5
2016-Aug-20 13:30N 31°23' E 121°30'6731211787.8
2016-Aug-20 13:29N 22°18' E 114°07'601621.6
2016-Aug-20 13:27N 23°06' E 113°27'659724.4
2016-Aug-20 12:33N 31°29' E 121°24'658789937.4
2016-Aug-20 12:33N 23°05' E 113°28'591058.8
2016-Aug-20 12:29N 22°18' E 114°07'67450587.4
2016-Aug-20 12:29N 31°26' E 121°29'7538.7
2016-Aug-20 12:28N 31°30' E 121°23'0150.1
2016-Aug-20 12:28N 31°30' E 121°23'16363.6
2016-Aug-20 12:25N 31°17' E 121°34'637.8
2016-Aug-20 12:16N 31°23' E 121°35'4 6.0
2016-Aug-20 11:33N 31°22' E 121°30'657295699.0
2016-Aug-20 11:33N 23°02' E 113°31'6592373359.3
2016-Aug-20 11:33N 31°33' E 121°20'4103.8
2016-Aug-20 11:31N 31°30' E 121°23'67527617.5
2016-Aug-20 11:29N 22°18' E 114°07'65614679.0
2016-Aug-20 11:27N 31°16' E 121°09'21160.7
2016-Aug-20 11:19N 31°18' E 121°33'50323208.5
2016-Aug-20 11:17N 39°05' E 117°45'9921317.4
2016-Aug-20 10:32N 22°57' E 113°30'66016615.2
2016-Aug-20 10:30N 31°17' E 121°34'67061862.1
2016-Aug-20 10:29N 22°18' E 114°07'67112130.0
2016-Aug-20 10:26N 31°18' E 121°33'670746.5
2016-Aug-20 09:32N 22°19' E 114°07'505427.2
2016-Aug-20 09:32N 22°54' E 113°29'6663984.5
2016-Aug-20 09:21N 31°24' E 121°31'6146.6
2016-Aug-20 09:19N 31°18' E 121°33'6 7.5
2016-Aug-20 08:30N 31°22' E 121°28'7174.7
2016-Aug-20 08:27N 31°15' E 121°31'6611808.4
2016-Aug-20 08:05N 22°55' E 113°25'2 4.6
2016-Aug-20 07:33N 22°54' E 113°28'6605723.2
2016-Aug-20 07:26N 31°15' E 121°31'27586.4
2016-Aug-20 07:24N 31°38' E 121°15'335.4
2016-Aug-20 07:19N 31°36' E 121°17'738.7
2016-Aug-20 07:08N 31°31' E 121°22'3 4.6
2016-Aug-20 06:33N 31°33' E 121°21'481.6
2016-Aug-20 06:31N 31°30' E 121°23'10141.7
2016-Aug-20 06:27N 31°37' E 121°15'253099.1
2016-Aug-20 06:26N 31°18' E 121°33'162887.5
2016-Aug-20 06:26N 31°31' E 121°22'178941.0
2016-Aug-20 06:26N 31°15' E 121°31'17294.3
2016-Aug-20 06:22N 31°30' E 121°23'124.5
2016-Aug-20 06:20N 31°30' E 121°22'4895382.8
2016-Aug-20 06:15N 39°05' E 117°44'478684.5
2016-Aug-20 05:33N 31°39' E 121°14'111820.8
2016-Aug-20 05:33N 31°31' E 121°22'1174.8
2016-Aug-20 05:32N 31°30' E 121°23'4869355.9
2016-Aug-20 05:29N 39°04' E 117°50'50310769.2
2016-Aug-20 05:26N 31°15' E 121°31'16177.1
2016-Aug-20 05:21N 31°30' E 121°22'1417.3
2016-Aug-20 04:33N 31°40' E 121°12'47351598.3
2016-Aug-20 04:33N 39°04' E 117°51'50219644.9
2016-Aug-20 04:31N 31°15' E 121°31'171451.9
2016-Aug-20 04:31N 31°31' E 121°23'12471.6
2016-Aug-20 04:29N 31°21' E 121°31'11336.2
2016-Aug-20 04:27N 31°30' E 121°22'145140.4
2016-Aug-20 04:27N 31°19' E 121°33'1412763.8
2016-Aug-20 04:27N 31°30' E 121°23'4865643.8
2016-Aug-20 04:22N 39°04' E 117°49'50115949.6
2016-Aug-20 04:20N 31°18' E 121°33'1518.8
2016-Aug-20 03:32N 31°30' E 121°23'121340.4
2016-Aug-20 03:31N 31°23' E 121°34'2212.4
2016-Aug-20 03:31N 31°23' E 121°36'49628371.4
2016-Aug-20 03:30N 39°04' E 117°51'4854373.1
2016-Aug-20 03:23N 31°31' E 121°23'18271.4
2016-Aug-20 03:19N 31°14' E 121°30'506140034.7
2016-Aug-20 03:19N 39°05' E 117°44'503592.2
2016-Aug-20 02:28N 31°18' E 121°33'67015262.5
2016-Aug-20 02:25N 22°19' E 114°07'102310142.2
2016-Aug-20 02:19N 39°04' E 117°50'9023245494.6
2016-Aug-20 02:19N 24°02' E 118°02'9028569.9
2016-Aug-20 02:13N 39°05' E 117°46'584890.5
2016-Aug-20 01:33N 29°59' E 121°58'9615031.7
2016-Aug-20 01:33N 31°30' E 121°23'6742981.0
2016-Aug-20 01:20N 22°19' E 114°09'6692588.7
2016-Aug-20 01:04N 31°18' E 121°33'6691233.4
2016-Aug-20 00:31N 22°19' E 114°09'66911872.3
2016-Aug-20 00:28N 31°18' E 121°33'15752.2
2016-Aug-20 00:27N 31°30' E 121°23'1 2.7
2016-Aug-20 00:08N 31°31' E 121°23'1 1.4
2016-Aug-19 23:32N 31°30' E 121°23'15257.9
2016-Aug-19 23:28N 31°18' E 121°33'5207.2
2016-Aug-19 23:27N 31°21' E 121°38'16244.1
2016-Aug-19 23:23N 31°31' E 121°23'151457.2
2016-Aug-19 23:22N 31°22' E 121°37'6 7.5
2016-Aug-19 22:34N 31°23' E 121°30'  

Dump ship's entire track history